[[{"header":{"parameterUnit":"m.s-1","parameterCategory":1,"la1":30.6,"la2":29.2853,"lo1":-89.7004,"lo2":-87.6739,"dy":0.0162,"dx":0.0183,"nx":112,"ny":82,"refTime":"2023-09-26T12:00:00:Z","depth":0,"parameterNumber":2,"parameterNumberName":"U-component_of_WINDS"},"data":[0.0,0.0,0.0,0.0,0.0,0.0,0.0,0.0,0.0,0.0,0.0,0.0,0.0,0.0,0.0,0.0,0.0,0.0,0.0,0.0,0.0,0.0,0.0,0.0,0.0,0.0,0.0,0.0,0.0,0.0,0.0,0.0,0.0,0.0,0.0,0.0,0.0,0.0,0.0,0.0,0.0,0.0,0.0,0.0,0.0,0.0,0.0,0.0,0.0,0.0,0.0,0.0,0.0,0.0,0.0,0.0,0.0,0.0,0.0,0.0,0.0,0.0,0.0,0.0,0.0,0.0,0.0,0.0,0.0,0.0,0.0,0.0,0.0,0.0,0.0,0.0,0.0,0.0,0.0,0.0,0.0,0.0,0.0,0.0,0.0,0.0,0.0,0.0,0.0,0.0,2.0679,2.5795,3.111,3.4271,3.4212,3.429,3.1328,2.4316,0.0,0.0,0.0,0.0,0.0,0.0,0.0,0.0,0.0,0.0,0.0,0.0,0.0,0.0,0.0,0.0,0.0,0.0,0.0,0.0,0.0,0.0,0.0,0.0,0.0,0.0,0.0,0.0,0.0,0.0,0.0,0.0,0.0,0.0,0.0,0.0,0.0,0.0,0.0,0.0,0.0,0.0,0.0,0.0,0.0,0.0,0.0,0.0,0.0,0.0,0.0,0.0,0.0,0.0,0.0,0.0,0.0,0.0,0.0,0.0,0.0,0.0,0.0,0.0,0.0,0.0,0.0,0.0,0.0,0.0,0.0,0.0,0.0,0.0,0.0,0.0,0.0,0.0,0.0,0.0,0.0,0.0,0.0,0.0,0.0,0.0,0.0,0.0,0.0,0.0,0.0,0.0,0.0,0.0,0.0,0.0,0.0,0.0,0.0,0.0,0.0,0.0,0.0,0.0,2.219,2.9757,3.3364,3.5039,3.4629,3.3371,3.0195,2.4645,0.0,0.0,0.0,0.0,0.0,0.0,0.0,0.0,0.0,0.0,0.0,0.0,0.0,0.0,0.0,0.0,0.0,0.0,0.0,0.0,0.0,0.0,0.0,0.0,0.0,0.0,0.0,0.0,0.0,0.0,0.0,0.0,0.0,0.0,0.0,0.0,0.0,0.0,0.0,0.0,0.0,0.0,0.0,0.0,0.0,0.0,0.0,0.0,0.0,0.0,0.0,0.0,0.0,0.0,0.0,0.0,0.0,0.0,0.0,0.0,0.0,0.0,0.0,0.0,0.0,0.0,0.0,0.0,0.0,0.0,0.0,0.0,0.0,0.0,0.0,0.0,0.0,0.0,0.0,0.0,0.0,0.0,0.0,0.0,0.0,0.0,0.0,0.0,0.0,0.0,0.0,0.0,0.0,0.0,0.0,0.0,0.0,0.0,0.0,0.0,0.0,0.0,0.0,2.1409,2.582,3.1677,3.3971,3.4896,3.4483,3.3459,3.043,2.4742,2.3379,0.0,0.0,0.0,0.0,0.0,0.0,0.0,0.0,0.0,0.0,0.0,0.0,0.0,0.0,0.0,0.0,0.0,0.0,0.0,0.0,0.0,0.0,0.0,0.0,0.0,0.0,0.0,0.0,0.0,0.0,0.0,0.0,0.0,0.0,0.0,0.0,0.0,0.0,0.0,0.0,0.0,0.0,0.0,0.0,0.0,0.0,0.0,0.0,0.0,0.0,0.0,0.0,0.0,0.0,0.0,0.0,0.0,0.0,0.0,0.0,0.0,0.0,0.0,0.0,0.0,0.0,0.0,0.0,0.0,0.0,0.0,0.0,0.0,0.0,0.0,0.0,0.0,0.0,0.0,0.0,0.0,0.0,0.0,0.0,0.0,0.0,0.0,0.0,0.0,0.0,0.0,0.0,0.0,0.0,0.0,0.0,0.0,0.0,0.0,0.0,0.0,0.0,2.5271,2.8546,3.2592,3.4179,3.4811,3.4371,3.3429,3.0498,2.4879,2.2539,0.0,0.0,0.0,0.0,0.0,0.0,0.0,0.0,0.0,0.0,0.0,0.0,0.0,0.0,0.0,0.0,0.0,0.0,0.0,0.0,0.0,0.0,0.0,0.0,0.0,0.0,0.0,0.0,0.0,0.0,0.0,0.0,0.0,0.0,0.0,0.0,0.0,0.0,0.0,0.0,0.0,0.0,0.0,0.0,0.0,0.0,0.0,0.0,0.0,0.0,0.0,0.0,0.0,0.0,0.0,0.0,0.0,0.0,0.0,0.0,0.0,0.0,0.0,0.0,0.0,0.0,0.0,0.0,0.0,0.0,0.0,0.0,0.0,0.0,0.0,0.0,0.0,0.0,0.0,0.0,0.0,0.0,0.0,0.0,0.0,0.0,0.0,0.0,0.0,0.0,0.0,0.0,0.0,0.0,0.0,0.0,0.0,0.0,0.0,0.0,0.0,0.0,2.4573,2.8351,3.256,3.448,3.524,3.4706,3.2634,2.9506,2.5146,2.1659,0.0,0.0,0.0,0.0,0.0,0.0,0.0,0.0,0.0,0.0,0.0,0.0,0.0,0.0,0.0,0.0,0.0,0.0,0.0,0.0,0.0,0.0,0.0,0.0,0.0,0.0,0.0,0.0,0.0,0.0,0.0,0.0,0.0,0.0,0.0,0.0,0.0,0.0,0.0,0.0,0.0,0.0,0.0,0.0,0.0,0.0,0.0,0.0,0.0,0.0,0.0,0.0,0.0,0.0,0.0,0.0,0.0,0.0,0.0,0.0,0.0,0.0,0.0,0.0,0.0,0.0,0.0,0.0,0.0,0.0,0.0,0.0,0.0,0.0,0.0,0.0,0.0,0.0,0.0,0.0,0.0,0.0,0.0,0.0,0.0,0.0,0.0,0.0,0.0,0.0,0.0,0.0,0.0,0.0,0.0,0.0,0.0,0.0,0.0,0.0,0.0,0.0,2.5237,2.8822,0.0,3.3415,3.3778,3.3068,3.1464,2.852,2.3879,0.0,0.0,0.0,0.0,0.0,0.0,0.0,0.0,0.0,0.0,0.0,0.0,0.0,0.0,0.0,0.0,0.0,0.0,0.0,0.0,0.0,0.0,0.0,0.0,0.0,0.0,0.0,0.0,0.0,0.0,0.0,0.0,0.0,0.0,0.0,0.0,0.0,0.0,0.0,0.0,0.0,0.0,0.0,0.0,0.0,0.0,0.0,0.0,0.0,0.0,0.0,0.0,0.0,0.0,0.0,0.0,0.0,0.0,0.0,0.0,0.0,0.0,0.0,0.0,0.0,0.0,0.0,0.0,0.0,0.0,0.0,0.0,0.0,0.0,0.0,0.0,0.0,0.0,0.0,0.0,0.0,0.0,0.0,0.0,0.0,0.0,0.0,0.0,0.0,0.0,0.0,0.0,0.0,0.0,0.0,0.0,0.0,0.0,0.0,0.0,0.0,0.0,2.1865,2.5969,2.9512,0.0,3.3031,3.3283,3.2551,3.0798,2.7855,2.3465,0.0,0.0,0.0,0.0,0.0,0.0,0.0,0.0,0.0,0.0,0.0,0.0,0.0,0.0,0.0,0.0,0.0,0.0,0.0,0.0,0.0,0.0,0.0,0.0,0.0,0.0,0.0,0.0,0.0,0.0,0.0,0.0,0.0,0.0,0.0,0.0,0.0,0.0,0.0,0.0,0.0,0.0,0.0,0.0,0.0,0.0,0.0,0.0,0.0,0.0,0.0,0.0,0.0,0.0,0.0,0.0,0.0,0.0,0.0,0.0,0.0,0.0,0.0,0.0,0.0,0.0,0.0,0.0,0.0,0.0,0.0,0.0,0.0,0.0,0.0,0.0,0.0,0.0,0.0,0.0,0.0,0.0,0.0,0.0,0.0,0.0,0.0,0.0,0.0,0.0,0.0,0.0,0.0,0.0,0.0,0.0,0.0,0.0,0.0,0.0,0.0,0.0,2.1826,2.6478,3.0382,3.2368,3.3663,3.4153,3.3624,3.0689,2.749,0.0,0.0,0.0,0.0,0.0,0.0,0.0,0.0,0.0,0.0,0.0,0.0,0.0,0.0,0.0,0.0,0.0,0.0,0.0,0.0,0.0,0.0,0.0,0.0,0.0,0.0,0.0,0.0,0.0,0.0,0.0,0.0,0.0,0.0,0.0,0.0,0.0,0.0,0.0,0.0,0.0,0.0,0.0,0.0,0.0,0.0,0.0,0.0,0.0,0.0,0.0,0.0,0.0,0.0,0.0,0.0,0.0,0.0,0.0,0.0,0.0,0.0,0.0,0.0,0.0,0.0,0.0,0.0,0.0,0.0,0.0,0.0,0.0,0.0,0.0,0.0,0.0,0.0,0.0,0.0,0.0,0.0,0.0,0.0,0.0,0.0,0.0,0.0,0.0,0.0,0.0,0.0,0.0,0.0,0.0,0.0,0.0,0.0,0.0,0.0,0.0,0.0,0.0,2.1464,2.6343,3.0178,3.1687,3.2663,3.2801,3.1771,2.955,2.6599,2.2828,0.0,0.0,0.0,0.0,0.0,0.0,0.0,0.0,0.0,0.0,0.0,0.0,0.0,0.0,0.0,0.0,0.0,0.0,0.0,0.0,0.0,0.0,0.0,0.0,0.0,0.0,0.0,0.0,0.0,0.0,0.0,0.0,0.0,0.0,0.0,0.0,0.0,0.0,0.0,0.0,0.0,0.0,0.0,0.0,0.0,0.0,0.0,0.0,0.0,0.0,0.0,0.0,0.0,0.0,0.0,0.0,0.0,0.0,0.0,0.0,0.0,0.0,0.0,0.0,0.0,0.0,0.0,0.0,0.0,0.0,0.0,0.0,0.0,0.0,0.0,0.0,0.0,0.0,0.0,0.0,0.0,0.0,0.0,0.0,0.0,0.0,0.0,0.0,0.0,0.0,0.0,0.0,0.0,0.0,0.0,0.0,0.0,0.0,0.0,0.0,0.0,0.0,2.1394,2.6436,3.038,3.1793,3.265,3.265,3.1451,2.9507,2.6811,2.3224,0.0,0.0,0.0,0.0,0.0,0.0,0.0,0.0,0.0,0.0,0.0,0.0,0.0,0.0,0.0,0.0,0.0,0.0,0.0,0.0,0.0,0.0,0.0,0.0,0.0,0.0,0.0,0.0,0.0,0.0,0.0,0.0,0.0,0.0,0.0,0.0,0.0,0.0,0.0,0.0,0.0,0.0,0.0,0.0,0.0,0.0,0.0,0.0,0.0,0.0,0.0,0.0,0.0,0.0,0.0,0.0,0.0,0.0,0.0,0.0,0.0,0.0,0.0,0.0,0.0,0.0,0.0,0.0,0.0,0.0,0.0,0.0,0.0,0.0,0.0,0.0,0.0,0.0,0.0,0.0,0.0,0.0,0.0,0.0,0.0,0.0,0.0,0.0,0.0,0.0,0.0,0.0,0.0,0.0,0.0,0.0,0.0,0.0,0.0,0.0,0.0,0.0,2.1475,2.6701,3.0791,3.2313,3.3248,3.3266,3.2056,3.0167,2.7768,2.4759,0.0,0.0,0.0,0.0,0.0,0.0,0.0,0.0,0.0,0.0,0.0,0.0,0.0,0.0,0.0,0.0,0.0,0.0,0.0,0.0,0.0,0.0,0.0,0.0,0.0,0.0,0.0,0.0,0.0,0.0,0.0,0.0,0.0,0.0,0.0,0.0,0.0,0.0,0.0,0.0,0.0,0.0,0.0,0.0,0.0,0.0,0.0,0.0,0.0,0.0,0.0,0.0,0.0,0.0,0.0,0.0,0.0,0.0,0.0,0.0,2.3167,0.0,0.0,0.0,0.0,0.0,0.0,0.0,0.0,0.0,0.0,0.0,0.0,0.0,0.0,0.0,0.0,0.0,0.0,0.0,0.0,0.0,0.0,0.0,0.0,0.0,0.0,0.0,0.0,0.0,0.0,0.0,0.0,0.0,0.0,0.0,0.0,0.0,0.0,0.0,0.0,0.0,2.1453,2.6701,3.0571,3.1543,3.2661,3.2845,3.1616,3.0272,2.8202,2.5237,2.3499,0.0,0.0,0.0,0.0,0.0,0.0,0.0,0.0,0.0,0.0,0.0,0.0,0.0,0.0,0.0,0.0,0.0,0.0,0.0,0.0,0.0,0.0,0.0,0.0,0.0,0.0,0.0,0.0,0.0,0.0,0.0,0.0,0.0,0.0,0.0,0.0,0.0,0.0,0.0,0.0,0.0,0.0,0.0,0.0,0.0,0.0,0.0,0.0,0.0,0.0,0.0,0.0,0.0,0.0,0.0,0.0,0.0,0.0,0.0,0.0,2.3732,0.0,0.0,0.0,0.0,0.0,0.0,0.0,0.0,0.0,0.0,0.0,0.0,0.0,0.0,0.0,0.0,0.0,0.0,0.0,0.0,0.0,0.0,0.0,0.0,0.0,0.0,0.0,0.0,0.0,0.0,0.0,0.0,0.0,0.0,0.0,0.0,0.0,0.0,0.0,0.0,2.1383,2.6463,3.0382,3.1561,3.2606,3.2716,3.152,3.0473,2.8991,2.6865,2.4463,0.0,0.0,0.0,0.0,0.0,0.0,0.0,0.0,0.0,0.0,0.0,0.0,0.0,0.0,0.0,0.0,0.0,0.0,0.0,0.0,0.0,0.0,0.0,0.0,0.0,0.0,0.0,0.0,0.0,0.0,0.0,0.0,0.0,0.0,0.0,0.0,0.0,0.0,0.0,0.0,0.0,0.0,0.0,0.0,0.0,0.0,0.0,0.0,0.0,0.0,0.0,0.0,0.0,2.9134,2.9843,3.0954,3.1814,3.1741,3.0882,2.8666,2.7832,2.7853,2.5349,0.0,0.0,0.0,0.0,0.0,0.0,0.0,0.0,0.0,0.0,0.0,0.0,0.0,0.0,0.0,0.0,0.0,0.0,0.0,0.0,0.0,0.0,0.0,0.0,2.3361,2.2783,0.0,0.0,0.0,0.0,0.0,0.0,0.0,0.0,0.0,0.0,0.0,0.0,2.153,2.6381,3.0272,3.1744,3.2536,3.2606,3.1612,3.0699,2.9709,2.8572,2.5426,2.3346,0.0,0.0,0.0,0.0,0.0,0.0,0.0,0.0,0.0,0.0,0.0,0.0,0.0,0.0,0.0,0.0,0.0,0.0,0.0,0.0,0.0,0.0,0.0,0.0,0.0,0.0,0.0,0.0,0.0,0.0,0.0,0.0,2.1521,2.3173,0.0,0.0,0.0,0.0,0.0,0.0,0.0,0.0,0.0,0.0,0.0,0.0,0.0,2.8678,3.0509,3.2626,3.3819,3.4118,3.5521,3.6071,3.5873,3.5998,3.6425,3.6912,3.4661,0.0,3.011,2.9226,0.0,0.0,0.0,0.0,0.0,0.0,0.0,0.0,0.0,0.0,0.0,0.0,0.0,0.0,0.0,0.0,0.0,0.0,0.0,0.0,0.0,0.0,2.7784,2.7651,2.6561,2.5861,0.0,2.3103,1.9411,1.976,1.826,0.0,0.0,0.0,0.0,0.0,0.0,0.0,2.251,2.704,3.0461,3.1359,3.1891,3.2093,3.1946,3.0864,2.9837,2.8986,2.7865,2.5891,2.291,2.4324,0.0,0.0,0.0,0.0,0.0,0.0,0.0,0.0,0.0,0.0,0.0,0.0,0.0,0.0,0.0,0.0,0.0,0.0,0.0,0.0,0.0,0.0,0.0,0.0,0.0,0.0,0.0,0.0,0.0,2.2326,2.4501,2.4878,2.5887,2.5277,0.0,0.0,0.0,0.0,0.0,0.0,0.0,0.0,0.0,2.8757,3.1477,3.2991,3.3146,3.6278,3.8151,3.8762,3.9945,4.0717,4.1027,4.1296,4.1772,4.2331,4.1104,3.9382,3.7192,3.3071,3.1007,3.0114,0.0,0.0,0.0,0.0,2.4522,2.5994,2.6088,2.7503,0.0,2.8736,0.0,0.0,0.0,0.0,0.0,0.0,0.0,0.0,0.0,0.0,2.9439,3.0242,3.0571,3.0717,3.0754,2.7788,2.4622,0.0,2.1121,1.9319,1.7515,0.0,0.0,0.0,0.0,2.3207,2.4482,2.8077,3.0919,3.1946,3.2441,3.2588,3.2368,3.1433,3.0717,3.0382,2.8758,2.7169,2.567,2.6033,2.4933,0.0,0.0,0.0,0.0,0.0,0.0,0.0,0.0,0.0,0.0,0.0,0.0,0.0,0.0,0.0,0.0,0.0,0.0,0.0,0.0,0.0,0.0,0.0,0.0,0.0,0.0,0.0,0.0,2.485,2.6796,2.6528,2.7897,2.7351,0.0,0.0,0.0,0.0,0.0,0.0,2.9935,3.1275,3.2331,3.3099,3.6504,3.7958,3.7251,4.0226,4.215,4.2973,4.3408,4.4049,4.4836,4.5064,4.5416,4.583,4.5478,4.4753,4.3287,3.7145,3.4277,3.3536,3.1471,3.0102,2.9202,2.8897,2.9448,3.0451,3.115,3.2357,3.3437,3.2461,3.1159,2.9364,2.6022,0.0,0.0,0.0,0.0,2.5957,2.7968,2.9575,3.1101,3.2713,3.4,3.4568,3.345,3.1675,2.9416,0.0,2.4441,2.255,2.0592,0.0,0.0,0.0,0.0,2.5506,2.6388,2.9188,3.1488,3.2496,3.279,3.2863,3.2771,3.1818,3.1263,3.1263,2.928,2.7922,2.7518,2.7027,2.5785,2.3716,0.0,0.0,0.0,0.0,0.0,0.0,0.0,0.0,0.0,0.0,0.0,0.0,0.0,0.0,0.0,0.0,0.0,0.0,0.0,0.0,0.0,0.0,0.0,0.0,0.0,0.0,0.0,0.0,0.0,2.8334,3.1537,0.0,0.0,0.0,0.0,2.8277,3.0718,3.3024,3.4762,3.6581,3.8642,4.0948,4.2488,4.4008,4.5666,4.5893,4.6245,4.672,4.5933,4.5788,4.6183,4.583,4.5892,4.6265,4.6245,4.6203,4.581,4.1565,3.9053,3.7636,3.492,3.3829,3.3505,3.138,3.2224,3.439,3.3542,3.4493,3.6222,3.7541,3.5409,3.1593,2.7611,2.6286,0.0,0.0,2.7696,2.9916,3.0493,3.2661,3.4899,3.5797,3.6054,3.5889,3.5046,3.3408,3.1651,0.0,2.7673,2.5645,2.515,0.0,2.4484,2.2616,2.5024,2.7252,2.7816,3.026,3.2111,3.2551,3.2276,3.2368,3.3104,3.1726,3.0827,3.0827,2.9617,2.8242,2.6719,2.6646,2.6427,2.604,2.3933,0.0,0.0,0.0,0.0,0.0,0.0,0.0,0.0,0.0,0.0,0.0,0.0,0.0,0.0,0.0,0.0,0.0,0.0,0.0,0.0,0.0,0.0,0.0,0.0,0.0,0.0,0.0,0.0,3.2635,3.4674,0.0,3.2271,3.2857,3.344,3.3514,3.6295,3.8877,4.0933,4.2272,4.3731,4.5476,4.6264,4.6844,4.7217,4.8086,4.8479,4.8334,4.8603,4.881,4.8913,4.881,4.881,4.8913,4.8666,4.7852,4.6632,4.4865,4.3162,4.1462,3.9323,3.8308,3.7935,3.7094,3.7262,3.7874,3.7848,3.7957,3.7952,3.7171,3.5397,3.3193,3.1355,3.0815,3.0804,3.0938,3.2073,3.3348,3.3796,3.5009,3.6218,3.6512,3.697,3.7154,3.6328,3.5632,3.4847,3.3855,3.0628,2.7976,2.7765,2.816,2.7903,2.6203,2.8208,3.007,3.0505,3.1869,3.2936,3.334,3.3028,3.2866,3.3159,3.1726,3.0791,3.0791,2.9415,2.8223,2.7408,2.6894,2.6424,2.609,2.5029,2.3705,0.0,0.0,0.0,0.0,0.0,0.0,0.0,0.0,0.0,0.0,0.0,0.0,0.0,0.0,0.0,0.0,0.0,0.0,0.0,0.0,0.0,0.0,0.0,0.0,0.0,3.0456,3.4435,3.5982,3.8103,3.8789,3.7096,3.7636,3.8411,3.9189,4.1533,4.376,4.5581,4.6409,4.7341,4.8397,4.8831,4.8997,4.8852,4.964,4.9951,4.9763,4.9846,4.9896,4.994,4.9521,4.9027,4.8423,4.8847,4.7932,4.6174,4.6226,4.5642,4.4501,4.2517,4.1586,4.1302,4.1141,4.0947,4.0702,4.0594,4.0138,3.9279,3.7538,3.6139,3.5118,3.4583,3.4405,3.4496,3.4881,3.5577,3.631,3.6695,3.7338,3.7851,3.7851,3.8144,3.8197,3.7556,3.686,3.6347,3.6218,3.3367,3.0674,2.9751,3.0039,2.9764,2.7885,2.9188,3.0479,3.0754,3.1854,3.2683,3.2973,3.3138,3.3196,3.3196,3.1469,3.0442,3.0589,2.8957,2.7885,2.761,2.6618,2.5845,2.5414,2.4398,2.3121,2.1623,0.0,0.0,0.0,0.0,0.0,0.0,0.0,0.0,0.0,0.0,0.0,0.0,0.0,0.0,0.0,0.0,0.0,0.0,0.0,0.0,0.0,0.0,0.0,2.6943,3.328,3.7944,3.8327,4.1946,4.3573,4.1395,4.318,4.467,4.5126,4.6389,4.7589,4.8501,4.8893,4.9307,4.9763,5.0153,5.0588,5.1022,5.065,5.0671,5.106,4.9648,4.8956,4.902,4.7951,4.644,4.4736,4.6699,4.6406,4.4677,4.5777,4.643,4.6542,4.436,4.3524,4.3465,4.3059,4.2925,4.2684,4.1411,4.079,4.029,3.9062,3.8124,3.7391,3.7006,3.6896,3.697,3.7354,3.8032,3.8728,3.9131,3.9557,3.9909,3.9909,3.9557,3.9113,3.871,3.7079,3.6054,3.7171,3.5852,3.3743,3.1377,3.0937,3.013,2.7812,2.8124,0.0,2.8608,3.0314,3.1524,3.152,3.2478,3.3141,3.3196,3.0937,2.9721,3.0149,2.8326,2.7206,2.7206,2.5814,2.4806,2.4293,2.2057,2.1392,2.235,0.0,0.0,0.0,0.0,0.0,0.0,0.0,0.0,0.0,0.0,0.0,0.0,0.0,0.0,0.0,0.0,0.0,0.0,0.0,0.0,0.0,3.1221,3.4898,3.4683,3.7848,4.1264,4.4204,4.6467,4.7548,4.6926,4.7982,4.879,4.8914,5.0218,5.1108,5.1336,4.9978,4.9216,4.9338,4.946,4.942,4.9216,5.0585,5.1142,5.094,5.0146,4.976,4.9694,4.9128,4.8567,4.8066,4.8314,4.756,4.6184,4.6502,4.6114,4.5231,4.4707,4.4327,4.3954,4.3548,4.2828,4.1694,3.9254,3.9348,4.0435,4.0079,3.9652,3.9193,3.9083,3.9065,3.9083,3.9193,3.9377,3.9652,4.0015,4.0258,4.0331,4.0331,4.0258,3.9942,3.9186,3.8362,3.7776,3.7851,3.7134,3.6201,3.4935,3.4238,3.3599,3.2973,3.3031,0.0,3.3211,3.3654,3.4002,3.4018,3.2478,3.2056,3.3523,3.0075,2.8417,2.9702,2.816,2.7206,2.7206,2.6517,2.6076,2.5939,2.427,2.3494,0.0,0.0,0.0,0.0,0.0,0.0,0.0,0.0,0.0,0.0,0.0,0.0,0.0,0.0,0.0,0.0,0.0,0.0,0.0,0.0,0.0,0.0,3.5832,4.0492,4.2486,4.3744,4.5415,4.8086,4.9845,5.0842,5.0842,5.1274,5.1584,5.1584,5.2329,5.26,5.2164,5.1316,5.018,4.8608,4.9623,4.9522,4.8145,4.9974,5.0821,5.0563,4.9977,4.9598,4.9424,4.89,4.8148,4.7178,4.7653,4.6892,4.5475,4.5953,4.5797,0.0,0.0,0.0,0.0,0.0,4.2876,4.1733,4.0216,4.0272,4.1047,4.1213,4.0864,4.0423,4.0607,3.9928,3.912,3.912,3.8514,3.8108,3.9373,3.9703,3.996,4.1029,4.0882,4.0387,3.985,3.8621,3.7721,3.816,3.7373,0.0,3.6934,3.5595,3.4148,3.3122,3.2976,3.2976,3.2976,3.3596,3.3965,3.3965,3.3138,3.29,3.3743,3.0809,0.0,0.0,0.0,2.6848,2.6056,2.5911,0.0,0.0,0.0,2.4325,2.5186,2.4356,0.0,0.0,2.2903,2.2158,0.0,0.0,0.0,0.0,0.0,0.0,0.0,0.0,0.0,0.0,0.0,0.0,0.0,0.0,0.0,0.0,3.9969,4.4277,4.9281,4.9694,4.9777,5.0671,5.2247,5.3235,5.3183,5.3204,5.3157,5.2997,5.2997,5.2576,5.1617,0.0,0.0,0.0,0.0,5.0,4.7605,4.918,5.0036,5.0055,4.9434,4.8931,4.8573,4.7942,4.6525,4.4563,4.5957,4.5517,4.3921,4.4985,4.559,4.5737,4.4976,4.4388,4.3866,4.3243,4.2729,4.2406,4.2534,0.0,0.0,4.2161,4.1763,4.1176,4.1555,4.0162,3.8438,3.8475,3.7209,3.631,3.8453,3.904,3.9608,4.1776,4.1543,4.0754,4.0662,3.8585,3.7154,3.8472,3.7244,3.642,3.7778,3.5907,3.3468,3.1286,3.0956,3.0937,3.0882,3.2129,3.301,3.301,0.0,0.0,3.4055,3.2276,3.1153,3.0992,2.8876,2.682,2.5053,2.5256,2.476,2.3436,2.3751,2.4928,2.6995,2.6764,2.7704,2.9629,2.5315,2.4411,0.0,0.0,0.0,0.0,0.0,0.0,0.0,0.0,0.0,0.0,0.0,0.0,0.0,0.0,0.0,4.121,4.5448,4.8925,5.0986,5.1495,5.2043,5.3018,5.3442,5.3532,5.3093,5.3038,5.2683,5.1819,5.1771,5.1674,5.1462,4.9561,4.8184,4.7442,4.7933,4.7952,4.7442,4.91,4.9959,4.991,0.0,0.0,4.8343,4.7907,4.7442,4.7002,4.6984,4.658,4.592,4.6158,4.592,4.5333,4.4508,4.3756,4.2901,4.0804,4.1207,4.2571,4.1011,4.1231,4.2222,4.2252,4.1763,4.1176,4.1555,4.1354,0.0,4.1372,4.117,4.0987,4.1445,4.1812,4.213,4.2234,4.2387,4.2277,4.1592,4.0749,4.0056,3.9707,3.9025,3.838,3.8071,3.7263,3.642,3.5632,3.5522,3.5394,3.5082,3.532,3.5504,3.5504,3.4037,3.367,3.5155,3.1983,3.062,3.2148,3.0882,2.9647,2.863,2.895,2.8876,2.8273,2.83,2.8741,2.9507,2.9445,2.9813,3.0516,2.8649,2.8171,0.0,0.0,0.0,0.0,0.0,0.0,0.0,0.0,0.0,0.0,0.0,3.2461,3.3383,0.0,4.0982,4.3916,4.7623,5.0443,5.1317,5.2356,5.2811,5.2321,5.2462,5.2572,5.2498,5.2489,5.2374,5.2051,5.1806,5.1591,5.1262,5.0069,4.8757,4.7297,4.8374,4.8393,4.725,4.8871,4.958,4.9375,4.8847,4.8487,4.8286,4.8084,4.7992,4.7974,4.7571,4.7277,4.7057,4.6654,4.6012,4.526,4.4856,4.4196,4.3353,4.2326,4.2472,4.3103,4.2296,4.2277,4.2644,4.2821,4.2619,4.2326,4.2527,4.1886,4.1121,4.1102,4.0221,3.952,4.073,4.1189,4.161,4.2637,4.2773,4.2516,4.2069,4.1543,4.0919,4.0313,3.9997,3.9593,3.8728,3.8417,3.8014,3.7208,3.7263,3.7283,3.6861,3.6824,3.6695,3.6512,3.5247,3.4733,3.5522,3.3395,3.2258,3.2863,3.2148,3.1322,3.0547,3.0479,3.0681,3.1084,3.0712,3.1006,3.2001,3.1818,3.1818,3.1968,3.0749,3.042,0.0,0.0,0.0,0.0,0.0,0.0,0.0,2.9493,3.1724,3.2158,3.5156,3.791,3.8644,4.1165,4.388,4.6048,4.8811,5.0795,5.1202,5.2394,5.2521,5.0697,5.1076,5.1621,5.19,5.1881,5.1879,5.2008,5.1688,5.1302,5.0843,5.0916,4.9991,4.7766,4.9406,4.9443,4.7699,4.8891,4.9349,4.9019,4.9019,4.8818,4.8414,4.8414,4.8359,4.8267,4.7864,4.7662,4.7534,4.6782,4.6012,4.5315,4.5388,4.4875,4.4123,4.4572,4.427,4.3774,4.4086,4.3709,4.3085,4.3389,4.3444,4.3389,4.3463,4.2362,4.1047,4.079,3.923,3.8053,3.9923,4.0418,4.0895,4.2803,4.2821,4.2443,4.2443,4.191,4.1341,4.0937,4.0809,4.0515,3.9722,3.9593,3.9076,3.7702,3.7776,3.7869,3.7428,3.7391,3.7263,3.6951,3.6548,3.6127,3.5632,3.5009,3.433,3.358,3.3248,3.2735,3.2001,3.1653,3.1946,3.2918,3.2294,3.2661,3.402,3.369,3.3544,3.3509,3.2228,3.1896,2.7071,2.4198,2.3361,2.5673,2.6515,2.7907,0.0,3.5289,3.7487,3.8329,4.0784,4.3177,4.4515,4.5923,4.7497,4.9357,5.0514,5.1221,5.1129,5.13,5.0949,4.9767,5.1,5.1859,5.1745,5.1397,5.0805,4.9902,4.9814,4.9745,4.9699,4.9708,4.975,4.979,4.9653,4.9653,4.9738,4.9606,4.9478,4.9441,4.9441,4.9221,4.8836,4.8836,4.8634,4.8267,4.7864,4.7497,4.713,4.6672,4.6012,4.5333,4.5682,4.5113,4.4123,4.4572,4.4664,4.4545,4.4645,4.4086,4.3426,4.3481,4.3243,4.3048,4.3371,4.3334,4.3224,4.3518,4.3169,4.2656,4.2589,4.2571,4.2553,4.2436,4.2663,4.2846,4.2846,4.2773,4.2589,4.2186,4.1794,4.1409,4.0974,4.0901,4.024,3.8236,3.7979,3.7869,3.7428,3.7391,3.7373,3.7336,3.697,3.642,3.565,3.554,3.5266,3.4826,3.4753,3.4515,3.4073,3.4018,3.4055,3.4202,3.411,3.433,3.4863,3.4808,3.4789,3.4754,3.3171,3.2877,2.9916,2.9246,2.9647,3.0503,3.2678,3.5423,3.8528,4.0737,4.2402,4.3274,4.5877,4.7769,4.7124,4.7741,4.8521,4.9386,4.9616,4.986,5.0442,5.0635,5.0335,4.9248,4.8118,4.7841,4.8922,4.974,4.9707,4.8556,4.9331,4.9973,5.0193,4.9753,4.9808,5.045,5.0083,5.0065,5.0468,5.0303,5.0101,4.9863,4.9863,4.9533,4.8909,4.8909,4.8689,4.8267,4.8102,4.7809,4.7424,4.7002,4.6507,4.5975,4.592,4.5572,4.5095,4.4783,4.4572,4.4325,4.4325,4.427,4.4178,4.4178,4.405,4.3948,4.3848,4.3829,4.3829,4.3756,4.3628,4.3444,4.3279,4.3224,4.3188,4.3023,4.2975,4.2975,4.3188,4.2901,4.2516,4.2307,4.2002,4.1555,4.1176,4.1102,4.0809,3.9923,3.9593,3.93,3.8918,3.842,3.7514,3.6058,3.5748,3.5078,3.3737,3.3424,3.3276,3.3141,3.3125,3.2956,3.2605,3.2531,3.2531,3.2588,3.2146,3.2112,3.2483,3.2483,3.2382,3.2106,3.0996,3.0991,3.043,3.1708,3.3519,3.4542,3.7552,4.102,4.3615,4.4943,4.6019,4.7433,4.907,4.9893,4.8755,4.8522,4.8576,4.882,4.878,4.9046,4.9841,4.9988,4.9387,4.7632,4.5182,4.3806,4.4261,4.6857,4.8534,4.8543,4.9624,5.0361,5.0706,5.0156,5.0156,5.0853,5.0563,5.0596,5.0872,5.089,5.0688,5.0285,5.0285,4.9812,4.9074,4.8836,4.8506,4.8121,4.8121,4.7827,4.7332,4.7057,4.669,4.6287,4.5993,4.5828,4.5645,4.5058,4.4655,4.4398,4.4288,4.4361,4.4508,4.4508,4.4508,4.4453,4.4178,4.4086,4.4031,4.3738,4.3573,4.3499,4.3499,4.3408,4.3298,4.3188,4.3004,4.2957,4.3114,4.2784,4.2516,4.2582,4.2197,4.1837,4.1635,4.1506,4.1433,4.1433,4.1102,4.0662,4.0129,3.8987,3.7441,3.5486,3.4806,3.3911,3.2412,3.2,3.1802,3.1785,3.169,3.157,3.1315,3.1223,3.1185,3.13,3.0747,3.0567,3.0858,3.0858,3.0732,3.0419,2.937,2.9383,2.6731,2.8181,3.0695,3.5893,3.8934,4.1873,4.6427,4.7262,4.7945,5.0661,4.9516,4.8396,4.9694,4.8774,4.7939,4.832,4.902,4.9459,4.9514,4.9166,4.7638,4.4169,4.2937,4.1049,3.7626,4.2591,4.7307,5.038,5.067,5.0706,5.0725,5.0706,5.0872,5.1275,5.1275,5.1275,5.1293,5.1293,5.1092,5.0706,5.0706,5.0266,4.9459,4.8671,4.8084,4.7717,4.7717,4.7259,4.6555,4.6507,4.6269,4.5902,4.5902,4.5645,4.5315,4.5297,4.5278,4.5205,4.4801,4.4416,4.4105,4.4105,4.4105,4.4105,4.4086,4.4086,4.4086,4.4068,4.3793,4.3499,4.3499,4.3188,4.2828,4.2443,4.2644,4.281,4.2443,4.2644,4.3012,4.3371,4.2803,4.2424,4.2791,4.2534,4.2234,4.2234,4.1904,4.1354,4.0588,3.8547,3.697,3.6512,3.4842,3.3423,3.2646,3.2324,3.2055,3.1723,3.1468,3.1315,3.13,3.13,3.13,3.13,3.1284,3.1268,3.1284,3.1284,3.1284,3.1229,2.9657,2.8934,2.8896,3.2263,3.6121,3.947,4.2202,4.4807,4.7612,4.7976,4.7949,4.89,4.73,4.5255,4.3619,4.2621,4.233,4.3269,4.3406,4.4607,4.8089,4.5783,4.3958,4.4672,4.1623,4.0198,4.1933,4.3219,4.4462,4.5828,4.8396,5.0266,5.1073,5.111,5.1293,5.1715,5.1458,5.1312,5.1312,5.1055,5.0725,5.0321,4.9771,4.9514,4.9478,4.8653,4.8212,4.8084,4.8084,4.7791,4.7259,4.7002,4.6654,4.625,4.5993,4.581,4.5663,4.5407,4.5297,4.5242,4.482,4.4627,4.4517,4.4517,4.3404,4.2105,4.2105,4.1,3.9791,3.9791,3.9707,3.988,4.1165,4.1394,4.1629,4.2786,4.3012,4.2957,4.3059,4.1718,4.064,4.1026,3.9656,3.8446,3.8608,3.8524,3.8485,3.8546,3.9045,3.9246,3.8719,3.6652,3.4735,3.3444,3.2768,3.1788,3.0312,2.9815,2.9502,2.9362,2.8906,2.8662,2.8662,2.8662,2.8523,2.831,2.831,2.825,2.8036,2.825,2.831,2.831,2.7977,2.7834,3.0772,3.5058,3.9365,4.2115,4.4691,4.6986,4.8558,4.7999,4.7183,4.7143,4.5169,4.2578,3.9724,3.8554,3.8473,3.9829,4.005,4.1782,4.6613,4.4573,4.291,4.3933,4.1025,3.9783,4.1969,4.2209,4.2791,4.405,4.68,4.8891,4.9955,5.001,5.0541,5.1678,5.144,5.1238,5.1092,5.0982,5.0651,5.0068,4.9441,4.9111,4.9038,4.8377,4.7681,4.702,4.7607,4.7387,4.6635,4.68,4.6727,4.6434,4.6048,4.5883,4.5865,4.5608,4.5425,4.5242,4.482,4.4627,4.4362,4.3658,4.2256,4.0737,4.005,3.8811,3.7575,3.7575,3.7575,3.7897,3.915,3.9524,3.9911,4.1037,4.1231,4.1179,4.1301,3.9914,3.8685,3.9008,3.7724,3.6582,3.6657,3.6561,3.6559,3.6746,3.6684,3.6753,3.7065,3.5146,3.3312,3.2177,3.1454,3.0554,2.9293,2.8644,2.8353,2.8353,2.7697,2.7349,2.7456,2.7362,2.7215,2.6987,2.6987,2.6881,2.6707,2.6894,2.6987,2.6987,2.7281,2.7415,3.2273,3.649,4.0361,4.3869,4.6308,4.8047,4.9012,4.735,4.5582,4.5323,4.2807,3.9931,3.7647,3.6317,3.6147,3.791,3.8985,4.1027,4.5158,4.5374,4.4301,4.2137,4.1184,3.9983,3.8225,4.0111,4.2516,4.5132,4.6122,4.6984,4.7864,4.7919,4.8983,5.133,5.133,5.1147,5.078,5.1073,5.0835,5.005,4.9643,4.9038,4.8304,4.7901,4.6672,4.4994,4.6489,4.6269,4.4958,4.6048,4.6507,4.647,4.5954,4.5808,4.592,4.5648,4.5411,4.5092,4.458,4.4225,4.3633,4.1757,4.072,3.9885,3.8053,3.7392,3.7331,3.7331,3.7315,3.7299,3.7437,3.7644,3.7756,3.747,3.7691,3.788,3.747,3.7315,3.7299,3.7437,3.6924,3.6551,3.6658,3.6359,3.6249,3.6625,3.4819,3.4066,3.5788,3.3988,3.2601,3.2601,3.0987,2.982,2.9553,2.8991,2.8657,2.8657,2.7829,2.751,2.7762,2.7495,2.7376,2.7376,2.7376,2.7362,2.7349,2.7349,2.7362,2.7389,2.7602,2.7736,3.6444,4.0081,4.3425,4.5951,4.5974,4.5377,4.5396,4.3817,4.1649,3.9088,3.5664,3.2046,2.8383,2.8136,2.9667,3.3176,3.6191,3.9407,4.3204,4.3595,4.3349,4.3036,4.3098,4.3478,4.4152,4.503,4.5608,4.5737,4.7332,4.9038,5.0761,5.0853,5.1403,5.2614,5.1788,5.1403,5.157,5.0523,4.9863,4.9661,4.8928,4.8653,4.8744,4.8322,4.7846,4.7387,4.7809,4.7589,4.6929,4.6947,4.6947,4.6729,4.4458,4.4703,4.5954,4.2542,4.2181,4.321,4.1565,4.1538,4.2157,4.1647,3.9356,3.6703,3.6181,3.4845,3.3485,3.3485,3.3378,3.3525,3.4995,3.5428,3.5831,3.7238,3.7655,3.7687,3.7561,3.6375,3.5322,3.5368,3.3862,3.2641,3.2687,3.2435,3.2253,3.2383,3.1882,3.2295,3.4424,3.2671,3.1286,3.1286,3.0686,3.0266,3.0186,2.9637,2.9259,2.9259,2.8631,2.839,2.8641,2.8417,2.827,2.827,2.827,2.815,2.7965,2.7965,2.8085,2.8257,2.8138,2.8312,4.0157,4.3131,4.5512,4.6774,4.6264,4.4984,4.2964,4.0909,3.8238,3.3991,3.0771,2.7543,2.3824,2.4307,2.6542,3.0425,3.4181,3.7938,4.1748,4.275,4.3355,4.4111,4.4247,4.5158,4.732,4.7589,4.7736,4.7992,4.7754,4.8469,5.0505,5.0431,5.1037,5.254,5.1752,5.1257,5.1094,5.0413,4.9771,4.9239,4.9148,4.8836,4.8377,4.8304,4.7809,4.702,0.0,4.7497,4.6624,4.5981,4.566,4.5234,4.2516,4.2271,4.3211,4.061,4.0449,4.127,4.011,3.9563,3.934,3.9227,3.7405,3.5177,3.4281,3.3127,3.2078,3.1944,3.1891,3.211,3.3083,3.3436,3.3804,3.4921,3.5202,3.5202,3.5202,3.4439,3.3731,3.3731,3.2496,3.1423,3.1423,3.1289,3.1169,3.1169,3.1169,3.1603,3.2733,3.165,3.0795,3.0795,3.0648,3.0547,3.0413,2.994,2.9673,2.9673,2.9125,2.8925,2.9219,2.8951,2.8804,2.8804,2.8804,2.8711,2.8537,2.8537,2.8631,2.8791,2.8751,2.8911,4.3221,4.5515,4.6919,4.6868,4.6628,4.5378,4.1474,3.8443,3.5001,2.9847,2.7137,2.4812,2.1972,2.3188,2.5774,2.9299,3.3216,3.7002,4.0438,4.2495,4.3934,4.4847,4.4977,4.609,4.8951,4.8653,4.9019,5.0835,4.8212,4.7369,4.9294,4.9001,4.9698,5.1662,5.1477,5.0927,5.0087,5.0413,5.001,4.8928,4.9569,4.9166,4.7864,4.8102,4.7132,4.5379,4.6707,4.6314,4.4724,4.3918,4.3392,4.2891,4.0286,3.9461,3.9687,3.9104,3.904,3.9235,3.8942,3.767,3.6115,3.6134,3.557,3.4546,3.2796,3.2251,3.2171,3.1965,3.1998,3.2091,3.1845,3.1917,3.2091,3.2051,3.2051,3.2051,3.2091,3.2353,3.2527,3.2487,3.2059,3.1711,3.1711,3.1711,3.1711,3.1711,3.1711,3.157,3.1316,3.1062,3.0889,3.0849,3.0849,3.0755,3.0547,3.0207,3.0034,3.0034,2.9508,2.9392,2.9646,2.9379,2.9175,2.9175,2.9135,2.9108,2.9108,2.9068,2.9068,2.9121,2.9339,2.9472,4.4573,4.6303,4.7656,4.7347,4.5858,4.3803,4.1183,3.6463,3.1337,2.6983,2.3573,2.1019,1.9866,2.2733,2.6468,3.0182,3.4611,3.7755,3.8348,4.2376,4.4874,4.3827,4.564,4.7998,5.0636,4.9313,4.9368,5.2009,5.0761,5.0468,5.1825,5.1461,5.1131,5.0945,5.1165,5.0927,5.0087,4.9863,4.9441,4.8909,4.8708,4.8634,4.8689,4.8066,4.687,4.5235,4.5034,0.0,4.1979,4.1451,4.1448,4.1361,3.8265,3.8329,3.971,3.5898,3.5564,3.68,3.5082,3.425,3.4186,3.5903,3.5175,3.362,3.3286,3.3013,3.2812,3.2808,3.2661,3.2447,3.2104,3.2064,3.2038,3.1797,3.1791,3.181,3.2051,3.2144,3.2104,3.1912,3.1791,3.1711,3.1711,3.1711,3.1711,3.1711,3.1711,3.1698,3.1597,3.1543,3.1423,3.1169,3.1156,3.1129,3.1076,3.0808,3.0635,3.0635,3.0541,3.0515,3.0568,3.0333,3.0172,3.0172,2.9887,2.9722,2.9722,2.9526,2.9526,2.9708,2.9268,2.9335,4.5549,4.7021,4.8269,4.7553,4.5669,4.2621,3.7381,3.2415,2.7446,2.2073,1.8888,1.6953,1.6612,1.9456,2.3427,2.8184,3.2343,3.6157,3.9511,4.2201,4.4348,4.576,4.7131,4.8661,5.0508,4.9624,4.9569,5.1112,5.0541,5.089,5.2742,5.2212,5.1699,5.1367,5.1128,5.0725,5.0087,4.9936,4.9514,4.8909,4.9129,4.9019,4.8579,4.8616,4.7264,4.4877,4.4745,4.3366,4.1029,3.966,3.9129,3.8856,3.6022,3.5614,3.646,3.4191,3.3955,3.4547,3.3534,3.3187,3.3385,3.4363,3.4017,3.3187,3.3187,3.3093,3.2946,3.2848,3.2808,3.2755,3.246,3.238,3.2251,3.1971,3.1784,3.1744,3.2038,3.1984,3.1877,3.1891,3.1818,3.1711,3.1711,3.1711,3.1711,3.1711,3.1711,3.1657,3.1463,3.157,3.1657,3.1476,3.145,3.1396,3.1189,3.1102,3.0955,3.0808,3.0795,3.0795,3.0795,3.056,3.048,3.0627,3.014,3.006,3.0368,2.9927,2.994,3.0354,2.9766,2.9726,4.6406,4.7739,4.8714,4.7536,4.5293,4.1457,3.4059,2.9008,2.423,1.8336,1.5531,1.4247,1.4743,1.703,2.0691,2.6313,2.9377,3.3339,3.9909,4.12,4.2998,4.7234,4.8115,4.9039,5.0599,5.023,5.0175,5.0801,5.0505,5.1037,5.276,5.2212,5.1809,5.1625,5.1055,5.0578,5.0215,5.0123,4.9757,4.9184,4.9735,4.9441,4.8432,4.8439,4.6791,4.3873,4.3524,4.1784,3.9088,3.7507,3.6603,3.5952,3.4128,3.3414,3.3414,3.3494,3.328,3.3,3.3133,3.3093,3.2986,3.3053,3.3066,3.3066,3.3066,3.3066,3.3026,3.2848,3.2995,3.3093,3.2781,3.2688,3.2581,3.2104,3.1877,3.181,3.1971,3.1877,3.181,3.1971,3.1824,3.1711,3.1711,3.1711,3.1711,3.1711,3.1711,3.1583,3.1356,3.153,3.1711,3.1711,3.1711,3.157,3.1343,3.1316,3.1223,3.0996,3.0982,3.0982,3.0982,3.0702,3.0648,3.0875,3.0368,3.0327,3.0795,3.0327,3.0341,3.0782,3.0314,3.0234,4.7243,4.8355,4.8646,4.721,4.4111,4.0029,3.4475,2.8406,2.28,1.8747,1.5873,1.4743,1.6819,1.8548,2.1417,2.6704,2.746,2.9671,3.6188,3.8373,4.0963,4.5392,4.7544,4.9771,5.256,5.1807,5.177,5.3256,5.3017,5.2559,5.201,5.1919,5.1552,5.0853,5.0761,5.0706,5.067,5.0251,5.005,4.9958,4.9698,4.9313,4.8786,4.6217,4.3807,4.1482,3.9115,3.6284,0.0,3.4257,3.3814,3.2612,3.3202,3.3414,3.3454,3.3734,3.348,3.3053,3.3614,3.344,3.3026,3.328,3.3374,3.3374,3.3374,3.3374,3.336,3.3334,3.3561,3.3668,3.3093,3.2933,3.2781,3.1952,3.1891,3.1998,3.1757,3.1891,3.1998,3.1805,3.1738,3.1711,3.1711,3.1711,3.1711,3.1711,3.1711,3.1711,3.1684,3.1698,3.1711,3.1711,3.1711,3.1711,3.1684,3.1623,3.1623,3.1631,3.1631,3.1631,3.1631,3.1303,3.1156,3.1136,3.0875,3.0742,3.0795,3.0742,3.0742,3.0795,3.0742,3.0728,4.4693,4.6713,4.7962,4.6491,4.3149,3.8503,3.2075,2.6628,2.1662,1.6987,1.4812,1.4024,1.4932,1.5791,1.7871,2.245,2.2799,2.5459,3.3911,3.5627,3.8777,4.6362,4.8398,5.0008,5.2157,5.1733,5.1385,5.1497,5.1667,5.1759,5.1917,5.1882,5.1625,5.1092,5.0835,5.0563,5.0306,5.016,4.9305,4.7681,4.7769,4.668,4.4532,4.3866,4.1911,3.9029,3.8382,3.6053,0.0,3.4108,3.3769,3.2594,3.3395,3.3694,3.3694,3.3627,3.3334,3.3013,3.3253,3.3187,3.3,3.3106,3.3267,3.3414,3.3414,3.3414,3.3414,3.3414,3.3641,3.3828,3.3587,3.3253,3.2799,3.2091,3.1891,3.181,3.1738,3.1757,3.181,3.1738,3.1711,3.1711,3.1711,3.1711,3.1711,3.1711,3.1711,3.1711,3.1711,3.1711,3.1711,3.1711,3.1711,3.1711,3.1711,3.1711,3.1711,3.1711,3.1711,3.1711,3.1711,3.1383,3.1316,3.149,3.1036,3.0969,3.1316,3.0969,3.0982,3.1316,3.0955,3.0889,4.1748,4.4779,4.7073,4.5549,4.1743,3.6594,3.0087,2.5035,2.0303,1.5514,1.3973,1.3496,1.3496,1.3733,1.5273,1.9463,2.0222,2.3268,3.1781,3.3584,3.6956,4.4818,4.68,4.8477,5.0963,5.1715,5.1468,5.0092,5.0192,5.011,4.9689,4.9618,4.969,4.9931,4.9714,4.9062,4.8154,4.8103,4.7166,4.53,4.552,4.401,4.1108,4.1347,3.977,3.6896,3.7285,3.5614,0.0,3.4212,3.4,3.283,3.3616,3.3881,3.3855,3.3627,3.3307,3.3049,3.3187,3.3133,3.2986,3.308,3.324,3.3414,3.3414,3.3414,3.3414,3.3414,3.3574,3.3748,3.3748,3.3307,3.2768,3.2225,3.1877,3.1738,3.1784,3.1778,3.1764,3.1938,3.1831,3.1751,3.1784,3.173,3.1711,3.1711,3.1711,3.1711,3.1711,3.1711,3.1711,3.1711,3.1711,3.1711,3.1711,3.1711,3.1711,3.1711,3.1711,3.1711,3.1711,3.1463,3.145,3.1711,3.1263,3.1263,3.1711,3.1249,3.1263,3.1711,3.1249,3.1156,3.9137,4.281,4.5841,4.4385,3.9744,3.4265,2.9316,2.3793,1.8657,1.4881,1.3785,1.3496,1.3496,1.3496,1.4876,1.9041,2.0927,2.3859,2.9563,3.2572,3.5595,3.9339,4.1525,4.4569,4.9106,5.201,5.254,4.9871,4.9327,4.7764,4.4663,4.4258,4.492,4.6783,4.687,4.5738,4.3507,4.3454,4.3454,4.3438,4.3156,4.1821,3.9596,3.8661,3.7133,3.5222,3.494,3.3959,0.0,3.42,3.3932,3.271,3.3584,3.3881,3.3881,3.3881,3.3494,3.3066,3.3668,3.348,3.3026,3.332,3.3414,3.3414,3.3414,3.3414,3.3414,3.3414,3.3414,3.3414,3.3414,3.2986,3.2527,3.2171,3.1877,3.1744,3.2038,3.1877,3.1885,3.2474,3.2112,3.1757,3.2051,3.1864,3.1711,3.1711,3.1711,3.1711,3.1711,3.1711,3.1711,3.1711,3.1711,3.1711,3.1711,3.1711,3.1711,3.1711,3.1711,3.1711,3.1711,3.1711,3.1711,3.1711,3.1711,3.1711,3.1711,3.1711,3.1711,3.1711,3.1711,3.1711,3.1646,3.4145,3.596,3.4967,3.2004,2.8391,2.4778,2.1141,1.7684,1.4709,1.3785,1.3496,1.3496,1.3496,1.4948,1.938,2.0737,2.3363,2.9505,3.277,3.6583,4.2054,4.7375,5.0532,5.0261,4.9898,4.9578,4.9296,4.663,4.4837,4.4436,4.4303,4.4345,4.4491,4.4475,4.3976,4.2998,4.3103,4.2188,4.0341,4.0129,3.8319,3.5226,3.5609,3.5083,3.3886,3.4527,3.4079,3.3009,3.4442,3.4119,3.2701,3.3761,3.4055,3.3855,3.3641,3.344,3.3307,3.3494,3.3427,3.3293,3.3387,3.3414,3.3414,3.3414,3.3414,3.3454,3.3681,3.3839,3.3887,3.3683,3.3317,3.2945,3.2443,3.2015,3.1744,3.2038,3.2024,3.2078,3.2514,3.2273,3.1998,3.2091,3.1864,3.1711,3.1711,3.1711,3.1711,3.1711,3.1711,3.1711,3.1711,3.1711,3.1711,3.1711,3.1711,3.1711,3.1711,3.1711,3.1711,3.1711,3.1711,3.1711,3.1711,3.1711,3.1711,3.1711,3.1711,3.1711,3.1711,3.1711,3.1711,2.572,2.8631,3.0566,2.9967,2.7501,2.4607,2.2295,1.926,1.6369,1.4298,1.4247,1.4383,1.3648,1.4093,1.5394,1.7812,2.0189,2.3199,2.7474,3.1516,3.5815,4.0528,4.622,4.9141,4.7632,4.7152,4.6752,4.6241,4.3661,4.1974,4.1567,4.1252,4.0923,4.0639,4.1599,4.1438,3.9965,4.0138,3.9237,3.7348,3.7103,3.5484,3.2827,3.401,3.3889,3.2868,3.4342,3.4494,0.0,3.4656,3.4427,3.3477,3.3961,3.4042,3.3841,3.3534,3.3414,3.3414,3.3414,3.3414,3.3414,3.3414,3.3414,3.3414,3.3414,3.3414,3.3454,3.3654,3.3825,3.3837,3.3647,3.3295,3.2924,3.2558,3.2062,3.1831,3.2185,3.2235,3.2331,3.2661,3.2485,3.221,3.2126,3.1944,3.1845,3.1738,3.1805,3.1797,3.1724,3.1711,3.1616,3.1439,3.1379,3.1331,3.1093,3.1474,3.1711,3.1711,3.1521,3.1379,3.1379,3.1379,3.1379,3.1379,3.1629,3.1711,3.1711,3.1711,3.1711,3.1711,3.1711,3.1711,0.0,2.5412,2.8289,2.7912,2.5155,2.2253,2.1216,1.7926,0.0,1.3923,1.5154,1.5858,1.411,1.5343,1.6288,1.5274,1.9681,2.35,2.4268,2.9559,3.4042,3.5954,3.9963,4.2423,4.2104,4.3986,4.4194,4.1547,4.0768,3.9337,3.6969,3.6085,3.5805,3.6086,3.8452,3.829,3.5231,3.5458,3.5257,3.4681,3.4376,3.344,3.2093,3.3574,3.3507,0.0,3.4282,3.5017,3.4842,3.4829,3.4802,3.4721,3.4108,3.3868,3.3814,3.3521,3.3414,3.3464,3.3414,3.3414,3.3464,3.3414,3.3414,3.3414,3.3414,3.3414,3.3414,3.3414,3.34,3.3437,3.3437,3.2995,3.2616,3.2616,3.2139,3.1898,3.2474,3.2489,3.2545,3.2911,3.2678,3.2334,3.2174,3.2131,3.2038,3.1791,3.1944,3.2024,3.1696,3.1656,3.1466,3.0942,3.0834,3.0617,3.0128,3.0998,3.1569,3.1569,3.1093,3.0856,3.0856,3.0856,3.0856,3.0856,3.1331,3.1616,3.1616,3.1616,3.1664,3.1711,3.1711,3.1711,1.6576,0.0,1.9269,1.8562,1.7703,1.6985,0.0,1.5446,1.4692,1.5856,1.6252,1.6424,1.6526,1.7817,1.8884,1.8964,2.215,2.4999,2.6119,3.214,3.6627,3.7099,4.183,4.365,4.0053,4.1535,4.2301,4.1197,3.9265,3.7671,3.6675,3.6393,3.6126,3.5738,3.6545,3.6544,3.5538,3.5151,3.4597,3.39,3.3698,3.2846,3.1459,3.3188,3.3627,3.3019,3.4315,3.495,3.5084,3.4909,3.4629,3.4389,3.4028,3.3734,3.3507,3.344,3.3664,3.3964,3.3564,3.3664,3.3964,3.3514,3.3414,3.3414,3.3414,3.3414,3.3414,3.3414,3.3502,3.3638,3.3638,3.3239,3.2824,3.2824,3.2393,3.2104,3.2514,3.2584,3.266,3.2942,3.2785,3.2552,3.2474,3.2487,3.2393,3.2051,3.23,3.2235,3.1509,3.1373,3.1181,3.0664,3.0411,3.0223,3.0128,3.0319,3.0462,3.0462,3.0366,3.0271,3.0271,3.0271,3.0271,3.0271,3.0414,3.0665,3.1107,3.1107,3.1297,3.1711,3.1711,3.1711,1.5001,1.5514,1.5994,1.661,1.5959,1.5463,1.6524,1.5377,1.4624,1.6506,1.661,1.6492,1.6867,1.7702,1.8591,1.9388,2.107,2.403,2.899,3.3644,3.6917,3.7838,3.9717,4.0069,3.7884,3.8988,3.9715,3.9377,3.7892,3.6901,3.6672,3.6326,3.6019,3.5845,3.5605,3.5391,3.5231,3.5057,3.4367,3.3184,3.3627,3.3143,3.1923,3.3552,3.4181,3.3939,3.4145,3.4555,3.4976,3.4151,3.3926,3.4095,3.4041,3.3912,3.3814,3.4064,3.4164,3.4164,3.3864,3.3814,3.3814,3.3514,3.332,3.324,3.3374,3.332,3.324,3.3374,3.3506,3.3557,3.3422,3.3092,3.274,3.274,3.2439,3.2185,3.2527,3.2789,3.2878,3.2844,3.2897,3.2838,3.2643,3.2701,3.259,3.2005,3.2217,3.21,3.1228,3.114,3.0894,3.0234,3.0034,2.9788,2.9436,2.9423,2.9615,3.008,2.9889,2.9806,2.9806,2.9806,2.9889,3.008,3.008,3.0223,3.0522,3.0522,3.0808,3.1344,3.1344,3.1487,1.5052,1.5326,1.5822,1.7757,1.6713,1.5754,1.7794,1.6148,1.4795,1.6899,1.707,1.6848,1.6973,1.783,1.8647,1.8973,1.9682,2.3142,3.1668,3.4102,3.5676,3.7585,3.6371,3.5543,3.591,3.6814,3.7398,3.7315,3.6794,3.658,3.6794,3.6005,3.5725,3.5939,3.527,3.4855,3.4815,3.4923,3.4272,3.2831,3.3762,3.3681,3.2817,3.4125,3.4696,3.4695,3.4084,0.0,3.4628,3.3372,3.3269,3.3905,3.4036,3.4064,3.4114,3.4612,3.4513,3.4214,3.4214,3.3823,3.336,3.34,3.3213,3.3026,3.332,3.324,3.3093,3.3347,3.3414,3.336,3.3106,3.2875,3.2648,3.2607,3.2433,3.2291,3.2554,3.2962,3.3135,3.2759,3.3003,3.3135,3.271,3.2803,3.265,3.1868,3.2004,3.186,3.0983,3.0885,3.0587,2.9822,2.9712,2.9382,2.8644,2.862,2.8944,2.9841,2.9519,2.9292,2.9292,2.9292,2.9471,2.9841,2.9889,2.9889,2.9984,2.9984,3.0271,3.076,3.0869,3.1154,1.5326,1.5907,1.6232,1.6574,1.5924,1.548,1.651,1.5617,1.5497,1.8644,1.9221,1.9359,1.9992,2.3556,2.5183,2.1558,2.3565,2.7182,3.1679,3.2797,3.3469,3.4501,3.6244,3.6585,3.4558,3.6221,3.7275,3.7008,3.6687,3.6433,3.6219,3.5845,3.5538,3.5338,3.5204,3.5017,3.4815,3.4309,3.3869,3.3443,3.352,3.3372,3.3165,3.4004,3.4389,3.4389,0.0,3.4507,3.4349,3.3879,3.3771,3.3855,3.3634,3.3514,3.3514,3.3614,3.3864,3.4214,3.4214,3.3701,3.3093,3.3334,3.3213,3.3026,3.332,3.3374,3.336,3.34,3.3414,3.34,3.336,3.3133,3.2902,3.2648,3.2755,3.2786,3.2634,3.283,3.3005,3.2955,3.3005,3.3005,3.2955,3.2799,3.2555,3.2168,3.2171,3.182,3.0765,3.0851,3.0589,2.959,2.9237,2.9007,2.8644,2.862,2.8668,2.8812,2.8764,2.8716,2.8716,2.8716,2.8764,2.8812,2.8812,2.904,2.9519,2.9519,2.9758,3.0223,3.0665,3.0964,1.4316,1.483,1.5599,1.7615,1.7276,1.7181,1.9991,1.7864,1.6649,2.1423,1.966,1.8201,2.1251,2.2628,2.3143,2.2698,2.7552,3.1614,3.2225,3.2778,3.3734,3.5417,3.5537,3.5289,3.4816,3.6087,3.6834,3.6727,3.6433,3.6219,3.614,3.5645,3.5338,3.5204,3.4736,3.4496,3.4523,3.4095,3.3708,3.3396,3.3896,3.3839,3.3219,3.3815,3.4082,3.4055,0.0,3.3574,3.3774,3.326,3.3264,3.3614,3.3768,3.3814,3.3787,3.3688,3.3769,3.389,3.3494,3.3099,3.2835,3.308,3.2986,3.2875,3.328,3.3307,3.3213,3.3374,3.3414,3.3374,3.3213,3.308,3.2906,3.2661,3.2808,3.2955,3.2661,3.2942,3.316,3.3013,3.3106,3.3114,3.2815,3.2814,3.2502,3.1667,3.1794,3.1649,3.0692,3.0703,3.0528,2.9888,2.9477,2.9115,2.8862,2.8657,2.862,2.862,2.862,2.862,2.862,2.862,2.862,2.862,2.862,2.8716,2.8956,2.8956,2.9232,2.9758,2.9949,3.0379,1.3716,1.4127,1.5137,1.837,1.7997,1.8218,2.3418,2.0298,1.8057,2.4271,2.1041,1.8534,2.3143,2.2444,2.2025,2.4611,3.043,3.4215,3.303,3.3438,3.4659,3.6621,3.5243,3.4541,3.5582,3.606,3.6326,3.6393,3.6072,3.5899,3.5965,3.5418,3.5097,3.5097,3.4376,3.4095,3.4322,3.4028,3.3725,3.3466,3.4127,3.4125,3.348,3.3685,3.3828,3.3879,3.3035,3.2946,3.3347,3.2792,3.2905,3.3464,3.3864,3.4014,3.3987,3.3755,3.3723,3.3647,3.3023,3.2755,3.2741,3.2986,3.2929,3.2795,3.3253,3.3253,3.3133,3.3347,3.3414,3.336,3.3133,3.308,3.3013,3.2768,3.2817,3.2851,3.2559,3.2805,3.2947,3.2772,3.2868,3.2939,3.2551,3.2556,3.229,3.1324,3.1503,3.1429,3.07,3.066,3.0552,3.0153,2.9695,2.9272,2.8946,2.8741,2.862,2.862,2.862,2.862,2.862,2.862,2.862,2.862,2.862,2.862,2.862,2.862,2.8812,2.9244,2.9328,2.9806,1.4607,1.5103,1.5531,1.7229,1.6269,1.6817,2.411,2.162,1.9715,2.6632,2.5244,2.3828,2.7194,2.7422,2.7506,2.87,3.1032,3.3042,3.404,3.4676,3.536,3.606,3.602,3.6046,3.6394,3.5965,3.5805,3.6086,3.5578,3.5378,3.5591,3.511,3.4842,3.4842,3.4469,3.4295,3.4322,3.4028,3.3988,3.424,3.3721,3.3748,3.4175,3.3694,3.3627,3.3881,3.3825,3.3651,3.34,3.332,3.3334,3.3414,3.3464,3.3464,3.3464,3.3437,3.3424,3.3424,3.336,3.3173,3.3,3.328,3.3187,3.3,3.332,3.34,3.3387,3.34,3.3414,3.3414,3.3387,3.3374,3.3307,3.3013,3.2825,3.2557,3.227,3.2053,3.1907,3.1882,3.1907,3.1996,3.2201,3.1805,3.1546,3.173,3.1545,3.1232,3.0672,3.0817,3.0672,2.9912,2.9574,2.92,2.8644,2.8632,2.862,2.862,2.862,2.862,2.862,2.862,2.862,2.862,2.862,2.862,2.862,2.862,2.862,2.8668,2.9196,2.9423,1.3271,1.4239,1.5739,1.8535,1.7586,1.7813,2.4992,2.3078,2.2118,3.0449,2.7083,2.2908,2.3956,2.6445,2.8387,2.8563,3.1142,3.3434,3.4452,3.479,3.5137,3.5725,3.5631,3.5578,3.5685,3.5485,3.5404,3.5511,3.4505,3.4031,3.4263,3.3104,3.2434,3.2434,3.2106,3.1893,3.1768,3.1667,3.1592,3.1516,3.2775,3.3534,3.3748,3.3334,3.3213,3.332,3.332,3.3253,3.316,3.3334,3.3414,3.3414,3.3414,3.3414,3.3387,3.3213,3.3146,3.312,3.2982,3.2848,3.2808,3.3053,3.3066,3.2977,3.292,3.3163,3.3314,3.3013,3.2912,3.2912,3.2912,3.2912,3.2747,3.216,3.2066,3.2044,3.1762,3.1766,3.1819,3.1819,3.1819,3.1744,3.1503,3.1548,3.1489,3.1118,3.1369,3.1517,3.1143,3.1034,3.0877,3.0576,3.0008,2.9429,2.891,2.8862,2.8801,2.8632,2.862,2.862,2.862,2.862,2.862,2.862,2.862,2.862,2.862,2.862,2.862,2.862,2.8812,2.91,1.2655,1.3545,1.5217,1.8714,1.8117,1.8623,2.6011,2.4414,2.3745,3.207,2.9395,2.5011,2.3123,2.6082,2.8629,2.7994,3.0616,3.3133,3.4374,3.4563,3.4699,3.4808,3.4557,3.4321,3.4084,3.3875,3.381,3.3901,3.2899,3.2443,3.2719,3.1552,3.0841,3.0841,3.0588,3.0371,3.024,3.0358,3.0274,3.0041,3.1877,3.2581,3.2268,3.2421,3.2531,3.2623,3.2971,3.312,3.3133,3.3334,3.3314,3.3163,3.3163,3.301,3.2768,3.2662,3.257,3.2478,3.236,3.2333,3.236,3.2557,3.2623,3.2613,3.2409,3.2611,3.2812,3.2461,3.236,3.231,3.2159,3.2209,3.2221,3.1678,3.1529,3.1517,3.1327,3.1277,3.1315,3.1315,3.1315,3.1188,3.0932,3.1201,3.1243,3.0796,3.1203,3.1457,3.1179,3.0986,3.0805,3.0636,3.0129,2.9622,2.9175,2.9067,2.8934,2.8753,2.8669,2.862,2.862,2.862,2.862,2.862,2.862,2.862,2.862,2.862,2.862,2.862,2.862,2.8908,1.3205,1.3271,1.3808,1.7158,1.7353,1.8867,2.7086,2.5617,2.4364,3.0856,3.2645,3.1447,2.6082,2.7323,2.8707,2.7505,2.9521,3.1864,3.3641,3.4135,3.4003,3.3171,3.2863,3.2384,3.1547,3.0929,3.0736,3.1054,3.0772,3.0736,3.1066,3.0772,3.0576,3.0576,3.0322,3.0189,3.0291,3.0464,3.0578,3.0578,3.1088,3.0802,2.9841,3.0902,3.1552,3.187,3.2912,3.3364,3.3364,3.3364,3.3063,3.2611,3.2611,3.2092,3.1438,3.1705,3.1641,3.1438,3.1717,3.1806,3.1819,3.1819,3.1819,3.1819,3.1819,3.1819,3.1819,3.1819,3.1819,3.1668,3.1113,3.1416,3.1769,3.1769,3.1365,3.1012,3.1012,3.0568,3.0214,3.0214,3.0214,3.0298,3.0564,3.06,3.0696,3.095,3.0998,3.0902,3.0636,3.0612,3.0395,2.9851,2.9803,2.9695,2.9429,2.9175,2.9019,2.9019,2.8765,2.8572,2.862,2.862,2.862,2.862,2.862,2.862,2.862,2.862,2.862,2.862,2.862,2.886,1.4385,1.4209,1.4363,1.715,1.838,1.9917,2.3864,2.4263,2.4931,2.9102,3.0758,3.0302,2.6444,2.8392,3.0053,2.8468,3.0616,3.2786,3.3748,3.3961,3.3633,3.2571,3.2404,3.1817,3.0438,3.0337,3.0363,3.0242,2.9462,2.9311,3.0169,2.9174,2.886,2.9404,2.9161,2.894,2.8805,2.8524,2.8351,2.8351,2.8499,2.9392,3.0951,3.1453,3.173,3.1806,3.1953,3.2079,3.2247,3.2053,3.1992,3.2045,3.1853,3.1625,3.1412,3.1501,3.1476,3.1412,3.1501,3.1654,3.1819,3.1819,3.1819,3.1718,3.1365,3.1517,3.1718,3.1365,3.1264,3.1214,3.1062,3.0809,3.067,3.067,3.0568,3.0416,3.0416,3.0315,3.0214,3.0214,3.0214,3.0238,3.0322,3.0491,3.0636,3.0708,3.0877,3.0902,3.0636,3.0612,3.0479,3.0129,3.0093,2.9984,2.9707,2.961,2.9405,2.9031,2.8946,2.8813,2.8632,2.862,2.862,2.862,2.862,2.862,2.862,2.862,2.862,2.862,2.862,2.8668,1.4176,1.4287,1.5141,1.8965,1.9838,2.0484,2.32,2.479,2.6532,2.9584,3.0612,3.0417,2.8618,2.9873,3.0915,2.998,3.1503,3.2982,3.3357,3.341,3.2797,3.1277,3.1076,3.0387,2.8573,2.8527,2.8612,2.8438,2.7838,2.7823,2.8624,2.7891,2.779,2.8444,2.8307,2.8102,2.7901,2.7893,2.7842,2.7738,2.7933,2.8881,3.0441,3.0715,3.0839,3.0877,3.1112,3.1336,3.1476,3.131,3.1237,3.1164,3.1,3.0726,3.0441,3.0553,3.0515,3.0441,3.0553,3.0702,3.0839,3.0839,3.0839,3.0802,3.0612,3.075,3.0963,3.0734,3.067,3.067,3.067,3.0416,3.0214,3.0214,3.0214,3.0214,3.0214,3.0214,3.0214,3.0214,3.0214,3.0214,3.0214,3.0346,3.0455,3.0455,3.0588,3.0624,3.0467,3.0455,3.0395,3.0238,3.0214,3.0153,2.9972,2.9864,2.9658,2.9344,2.9224,2.9055,2.8789,2.8681,2.862,2.862,2.862,2.862,2.862,2.862,2.862,2.862,2.862,2.8716,1.3527,1.4084,1.5974,2.1403,2.1365,2.0981,2.4774,2.6774,2.8631,3.1476,3.1597,3.1316,3.1764,3.157,3.1463,3.1751,3.226,3.2621,3.2621,3.2607,3.18,2.9726,2.9405,2.8527,2.6406,2.6146,2.6146,2.6125,2.6114,2.6424,2.7031,2.7031,2.734,2.792,2.7924,2.7737,2.7519,2.8194,2.8405,2.8157,2.8655,2.8922,2.8946,2.9236,2.9357,2.9382,3.0402,3.0769,3.0731,3.0757,3.0524,3.0095,3.0095,2.9653,2.9043,2.9284,2.9224,2.9043,2.9284,2.9381,2.9405,2.9405,2.9405,2.9453,2.9719,2.9791,2.9851,3.0129,3.0214,3.0214,3.0214,3.0214,3.0214,3.0214,3.0214,3.0214,3.0214,3.0214,3.0214,3.0214,3.0214,3.0214,3.0214,3.0214,3.0214,3.0214,3.0214,3.0214,3.0214,3.0214,3.0214,3.0214,3.0214,3.0214,3.0214,2.9984,2.9827,2.9803,2.9574,2.932,2.9055,2.8801,2.8596,2.862,2.862,2.862,2.862,2.862,2.862,2.862,2.862,2.886,1.6906,1.6322,1.6009,1.9237,2.113,2.3569,2.8698,2.9268,2.9282,3.1343,3.1289,3.1263,3.2478,3.2639,3.2545,3.2433,3.2585,3.2772,3.2772,3.2688,3.1943,3.0239,2.9342,2.8077,2.6179,2.5949,2.5873,2.569,2.5669,2.6146,2.7328,2.7388,2.7922,2.8998,2.8665,2.8379,2.8319,2.8105,2.7936,2.7876,2.8018,2.8174,2.8391,2.8874,2.8982,2.8801,2.925,2.9201,2.881,2.9042,2.9152,2.9237,2.9237,2.9152,2.9019,2.9079,2.9067,2.9019,2.9079,2.9236,2.9405,2.9405,2.9405,2.9453,2.9719,2.9791,2.9851,3.0129,3.0214,3.0214,3.0214,3.0214,3.0214,3.0214,3.0214,3.0214,3.0214,3.0214,3.0214,3.0214,3.0214,3.0214,3.0214,3.0214,3.0214,3.0214,3.0214,3.0214,3.0214,3.0214,3.0214,3.0214,3.0214,3.0214,3.0214,3.0165,3.0033,2.9803,2.9743,2.9598,2.9332,2.9067,2.8825,2.8572,2.862,2.862,2.862,2.862,2.862,2.862,2.862,2.8668,1.5781,1.6425,1.7677,2.1319,2.4156,2.672,2.9366,3.0034,3.0389,3.1637,3.1637,3.169,3.2648,3.2701,3.2505,3.2358,3.1856,3.1684,3.2216,3.1653,3.0728,2.9564,2.8689,2.7539,2.5869,2.5701,2.5647,2.5529,2.5518,2.5858,2.6703,2.6993,2.7476,2.8259,2.8236,2.8234,2.8234,2.7956,2.7811,2.7811,2.7558,2.7403,2.7486,2.827,2.8475,2.8246,2.8379,2.8282,2.8029,2.8174,2.8318,2.8439,2.8439,2.8512,2.862,2.862,2.8717,2.8825,2.8825,2.8922,2.9031,2.9031,2.9031,2.9079,2.9344,2.9513,2.967,2.9936,3.0117,3.0214,3.0214,3.0214,3.0214,3.0214,3.0214,3.0214,3.0214,3.0214,3.0214,3.0214,3.0214,3.0214,3.0214,3.0214,3.0214,3.0214,3.0214,3.0214,3.0214,3.0214,3.0214,3.0214,3.0214,3.0214,3.0214,3.0214,3.0153,3.0008,2.9996,2.9876,2.9598,2.9465,2.9212,2.8813,2.8813,2.8753,2.862,2.862,2.862,2.862,2.862,2.862,1.3509,1.5897,1.9644,2.4388,2.7175,2.8778,2.8885,3.0047,3.1249,3.177,3.1998,3.2198,3.2541,3.2353,3.2056,3.1864,3.0734,3.0194,3.089,2.9793,2.8692,2.8116,2.7586,2.6766,2.5615,2.5486,2.5464,2.5464,2.5421,2.5554,2.5967,2.6384,2.6791,2.7145,2.7506,2.7727,2.7679,2.763,2.7606,2.7606,2.7126,2.6777,2.6548,2.751,2.7836,2.7679,2.7727,2.7715,2.7679,2.7727,2.7739,2.7751,2.7799,2.7944,2.8137,2.8186,2.8355,2.856,2.856,2.862,2.862,2.862,2.862,2.8681,2.8982,2.9236,2.9465,2.9779,3.0033,3.0214,3.0214,3.0214,3.0214,3.0214,3.0214,3.0214,3.0214,3.0214,3.0214,3.0214,3.0214,3.0214,3.0214,3.0214,3.0214,3.0214,3.0214,3.0214,3.0214,3.0214,3.0214,3.0214,3.0214,3.0214,3.0214,3.0214,3.0214,3.0214,3.0214,3.0117,2.9876,2.9864,2.9646,2.9163,2.9055,2.8886,2.862,2.862,2.862,2.862,2.862,2.862,1.3806,1.6573,2.0337,2.4823,2.5838,2.6547,2.9503,3.0368,3.0675,3.0915,3.157,3.2198,3.2541,3.2353,3.1816,3.0934,2.9944,2.8991,2.826,2.6959,2.6003,2.5906,2.5809,2.5712,2.5518,2.5335,2.5227,2.5227,2.5023,2.5308,2.6182,2.6323,2.6678,2.7347,2.7427,2.7319,2.709,2.6861,2.6753,2.6753,2.668,2.6499,2.6291,2.6632,2.6909,2.7102,2.7331,2.7341,2.7102,2.7377,2.7473,2.7498,2.7727,2.7836,2.7896,2.8113,2.8222,2.8294,2.8536,2.862,2.862,2.862,2.862,2.8717,2.92,2.9381,2.9513,3.002,3.0189,3.0214,3.0214,3.0214,3.0214,3.0214,3.0214,3.0214,3.0214,3.0214,3.0214,3.0214,3.0214,3.0214,3.0214,3.0214,3.0214,3.0214,3.0214,3.0214,3.0214,3.0214,3.0214,3.0214,3.0214,3.0214,3.0214,3.0214,3.0214,3.0214,3.0214,3.0202,3.0165,3.0165,3.0008,2.9695,2.9248,2.8886,2.862,2.862,2.862,2.862,2.862,2.862,1.558,1.6841,1.8845,2.5002,2.5705,2.5373,2.7362,2.827,2.9045,3.0333,3.0982,3.1463,3.1744,3.1704,3.1278,3.0328,2.9267,2.8243,2.7169,2.6001,2.5227,2.513,2.5044,2.499,2.499,2.498,2.5064,2.5349,2.5239,2.5392,2.581,2.6133,2.6178,2.5963,2.6435,2.6554,2.6166,2.6282,2.6283,2.6138,2.6138,2.5993,2.574,2.6017,2.6283,2.6548,2.6825,2.6873,2.6789,2.7054,2.7162,2.7162,2.7329,2.7461,2.7606,2.7715,2.786,2.8005,2.8125,2.8258,2.8391,2.8391,2.85,2.8644,2.9067,2.9188,2.9296,2.9827,2.9984,3.002,3.0177,3.0214,3.0214,3.0214,3.0214,3.0214,3.0214,3.0214,3.0214,3.0214,3.0214,3.0214,3.0214,3.0214,3.0214,3.0214,3.0214,3.0214,3.0214,3.0214,3.0214,3.0214,3.0214,3.0214,3.0214,3.0214,3.0214,3.0214,3.0214,3.0214,3.0214,3.0214,3.0081,2.9803,2.9429,2.9103,2.8837,2.8644,2.862,2.862,2.862,2.862,1.5517,1.5744,1.6497,2.2985,2.4399,2.4275,2.4636,2.5692,2.7121,2.9008,2.9887,3.0343,3.0393,3.077,3.0696,2.9478,2.8664,2.7767,2.6491,2.5589,2.4916,2.4646,2.4721,2.4635,2.4344,2.4599,2.4872,2.5051,2.5136,2.5213,2.5343,2.5829,2.5766,2.509,2.5786,2.5982,2.5488,2.5794,2.5885,2.5692,2.5692,2.562,2.5499,2.5692,2.5897,2.609,2.6367,2.6487,2.6499,2.6704,2.6777,2.6789,2.6861,2.7006,2.7198,2.7377,2.7546,2.7715,2.7787,2.7944,2.8113,2.8186,2.8343,2.8572,2.891,2.9019,2.9103,2.9574,2.9743,2.9839,3.0057,3.0165,3.0214,3.0214,3.0214,3.0214,3.0214,3.0214,3.0214,3.0214,3.0214,3.0214,3.0214,3.0214,3.0214,3.0214,3.0214,3.0214,3.0214,3.0214,3.0214,3.0214,3.0214,3.0214,3.0214,3.0214,3.0214,3.0214,3.0214,3.0214,3.0214,3.0214,3.0117,2.9912,2.9634,2.9344,2.9019,2.8813,2.8693,2.862,2.8716,2.8716,1.1688,1.2346,1.3539,1.7171,2.0562,2.2773,2.1984,2.3327,2.5117,2.6346,2.7949,2.8912,2.8334,2.9644,3.0161,2.8209,2.8082,2.758,2.5799,2.5116,2.4644,2.4196,2.475,2.4765,2.3776,2.4356,2.4534,2.3907,2.4095,2.4353,2.4819,2.5262,2.5618,2.5726,2.6042,2.5933,2.5396,2.5439,2.5427,2.5415,2.5415,2.5535,2.5764,2.5776,2.5788,2.5825,2.6078,2.6242,2.6242,2.6254,2.6266,2.6291,2.6512,2.662,2.6692,2.7198,2.7425,2.7473,2.7727,2.7824,2.7872,2.8125,2.821,2.8318,2.885,2.9019,2.9067,2.9344,2.9598,2.9803,2.9815,3.002,3.0214,3.0214,3.0214,3.0214,3.0214,3.0214,3.0214,3.0214,3.0214,3.0214,3.0214,3.0214,3.0214,3.0214,3.0214,3.0214,3.0214,3.0214,3.0214,3.0214,3.0214,3.0214,3.0214,3.0214,3.0214,3.0214,3.0214,3.0214,3.0214,3.0214,3.0214,3.0189,2.9924,2.9526,2.9019,2.9006,2.8862,2.862,2.9148,2.91,1.1864,1.0659,1.0008,1.4086,1.5607,1.6505,1.8098,2.0628,2.2852,2.3439,2.5858,2.7457,2.6104,2.8095,2.9196,2.6764,2.6979,2.6805,2.5045,2.4662,2.4384,2.3896,2.4487,2.4431,2.3162,2.3655,2.3931,2.3567,2.3081,2.3329,2.4492,2.3903,2.3716,2.4193,2.4594,2.4812,2.4873,2.4873,2.4873,2.4873,2.5053,2.5198,2.5294,2.5451,2.5535,2.5535,2.5632,2.5764,2.5977,2.6146,2.6218,2.623,2.6327,2.6331,2.6355,2.658,2.6716,2.6885,2.6981,2.728,2.7606,2.7872,2.8065,2.8306,2.885,2.8898,2.885,2.9284,2.9477,2.9586,2.9755,3.0008,3.0214,3.0214,3.0214,3.0214,3.0214,3.0214,3.0214,3.0214,3.0214,3.0214,3.0214,3.0214,3.0214,3.0214,3.0214,3.0214,3.0214,3.0214,3.0214,3.0214,3.0214,3.0214,3.0214,3.0214,3.0214,3.0214,3.0214,3.0214,3.0214,3.0214,3.0214,3.0214,3.0117,2.9803,2.926,2.9091,2.9019,2.91,2.9328,2.9471,1.0994,0.934,0.8328,1.1537,1.2047,1.2375,1.4721,1.8153,2.0957,2.1318,2.4185,2.6263,2.486,2.6507,2.7508,2.5562,2.5818,2.579,2.4252,2.403,2.3853,2.3531,2.3947,2.376,2.2578,2.3095,2.3344,2.2972,2.2542,2.2731,2.3778,2.3248,2.3177,2.3732,2.3963,2.4252,2.4583,2.4499,2.4499,2.4583,2.4776,2.4909,2.5017,2.527,2.5391,2.5403,2.5487,2.5572,2.5668,2.5837,2.5909,2.5921,2.6005,2.6085,2.6109,2.6246,2.6439,2.6608,2.6692,2.6957,2.7295,2.7703,2.7932,2.8174,2.8717,2.8765,2.8644,2.9043,2.9212,2.9332,2.9598,2.9936,3.0214,3.0214,3.0214,3.0214,3.0214,3.0214,3.0214,3.0214,3.0214,3.0214,3.0214,3.0214,3.0214,3.0214,3.0214,3.0214,3.0214,3.0214,3.0214,3.0214,3.0214,3.0214,3.0214,3.0214,3.0214,3.0214,3.0214,3.0214,3.0214,3.0214,3.0214,3.0214,3.0214,2.9996,2.9538,2.9272,2.9201,2.9271,2.9377,2.9758,0.0,0.0,0.0,0.9406,1.011,1.0954,1.2092,1.5917,1.9428,1.997,2.2947,2.5296,2.4644,2.496,2.5129,2.4517,2.4706,2.4555,2.3537,2.325,2.3148,2.3126,2.3137,2.2868,2.2081,2.2686,2.2803,2.209,2.2411,2.266,2.2693,2.3524,2.4146,2.4559,2.4318,2.4306,2.4559,2.4306,2.4306,2.4559,2.4571,2.4716,2.4993,2.5246,2.5367,2.5379,2.5644,2.562,2.5379,2.5391,2.5391,2.5415,2.568,2.5776,2.5837,2.6367,2.656,2.6608,2.6873,2.6969,2.7054,2.763,2.7799,2.7908,2.8451,2.8572,2.862,2.862,2.8765,2.9079,2.9357,2.9815,3.0214,3.0214,3.0214,3.0214,3.0214,3.0214,3.0214,3.0214,3.0214,3.0214,3.0214,3.0214,3.0214,3.0214,3.0214,3.0214,3.0214,3.0214,3.0214,3.0214,3.0214,3.0214,3.0214,3.0214,3.0214,3.0214,3.0214,3.0214,3.0214,3.0214,3.0214,3.0214,3.0214,3.0081,2.9803,2.955,2.9284,2.9006,2.9319,2.9997,0.9324,0.0,0.0,0.0,0.0,0.0,1.0614,1.3464,1.6209,1.6937,2.0048,2.2555,2.2334,2.3245,2.3815,2.3152,2.4139,2.4667,2.3747,2.3817,2.3855,2.3515,2.388,2.3738,2.2534,2.2796,2.2871,2.2459,2.1654,2.1736,2.2999,2.3289,2.3451,2.3572,2.3513,2.3663,2.4017,2.3945,2.3945,2.4017,2.421,2.4342,2.4427,2.4692,2.4812,2.4824,2.5102,2.5174,2.5126,2.5318,2.5391,2.5403,2.5475,2.5499,2.5523,2.5668,2.5849,2.6042,2.6351,2.6536,2.6789,2.7365,2.7655,2.7872,2.821,2.8463,2.862,2.862,2.8813,2.9199,2.9839,3.0105,3.0214,3.0214,3.0214,3.0214,3.0214,3.0214,3.0214,3.0214,3.0214,3.0214,3.0214,3.0214,3.0214,3.0214,3.0214,3.0214,3.0214,3.0214,3.0214,3.0214,3.0214,3.0214,3.0214,3.0214,3.0214,3.0214,3.0214,3.0214,3.0214,3.0214,3.0214,3.0214,3.0214,3.0177,3.0105,2.9815,2.9651,2.9578,3.0184,3.0856,0.0,0.0,0.0,0.938,0.0,0.0,0.999,1.2694,1.5246,1.5618,1.8711,2.1177,2.0521,2.1125,2.1533,2.1055,2.2212,2.3197,2.3216,2.3345,2.3359,2.3214,2.3428,2.3329,2.2659,2.2733,2.2756,2.2619,2.1882,2.1946,2.3124,2.3211,2.3279,2.3451,2.3451,2.356,2.38,2.38,2.38,2.3812,2.3957,2.4029,2.4041,2.4306,2.4427,2.4439,2.4716,2.4824,2.4849,2.5126,2.5294,2.5391,2.5391,2.5463,2.5572,2.568,2.5897,2.6162,2.6415,2.662,2.6849,2.7367,2.7691,2.7884,2.8258,2.85,2.862,2.862,2.8801,2.9151,2.9596,2.99,2.9996,2.9815,2.9996,3.0189,3.0069,3.0129,3.0214,3.0214,3.0214,3.0214,3.0214,3.0214,3.0214,3.0214,3.0214,3.0214,3.0214,3.0214,3.0214,3.0214,3.0214,3.0214,3.0214,3.0214,3.0214,3.0214,3.0214,3.0214,3.0214,3.0214,3.0214,3.0214,3.0214,3.0214,3.0214,2.9936,2.9674,2.9493,3.004,3.057,0.0,0.0,0.0,0.0,0.9958,0.0,0.9939,1.2668,1.5185,1.5209,1.7989,2.0055,1.8963,1.8945,1.8983,1.8682,1.9573,2.0751,2.2112,2.2309,2.2326,2.2383,2.2349,2.2395,2.2625,2.2596,2.2596,2.2636,2.2671,2.2854,2.3239,2.3291,2.344,2.38,2.38,2.38,2.38,2.38,2.38,2.38,2.38,2.38,2.3812,2.4041,2.415,2.4162,2.4427,2.4547,2.4559,2.4873,2.5138,2.5355,2.5379,2.556,2.5813,2.6085,2.6351,2.6584,2.6849,2.6945,2.703,2.757,2.7739,2.786,2.8343,2.8524,2.8584,2.8608,2.8789,2.8994,2.9066,2.9429,2.9634,2.9284,2.967,3.0045,2.9779,2.996,3.0165,3.0165,3.0189,3.0214,3.0214,3.0214,3.0214,3.0214,3.0214,3.0214,3.0214,3.0214,3.0214,3.0214,3.0214,3.0214,3.0214,3.0214,3.0214,3.0214,3.0214,3.0214,3.0214,3.0214,3.0214,3.0214,3.0214,3.0214,3.0214,2.99,2.9563,2.9152,2.9332,2.9663,0.0,0.0,0.0,0.0,0.0,0.0,0.995,1.062,1.1809,1.3646,1.481,1.5845,1.7016,1.7787,1.8126,1.7819,1.8094,1.8858,2.0309,2.1893,2.2479,2.1222,2.2192,2.2946,2.3006,2.2654,2.2615,2.2967,2.313,2.3385,2.368,2.368,2.372,2.38,2.38,2.38,2.38,2.38,2.38,2.38,2.38,2.38,2.3812,2.386,2.3884,2.3897,2.415,2.427,2.4306,2.48,2.5029,2.5102,2.5318,2.556,2.5788,2.5849,2.6029,2.6295,2.6572,2.6668,2.6716,2.7042,2.7283,2.7522,2.7618,2.7956,2.8331,2.856,2.8656,2.8717,2.9018,2.9151,2.932,2.9513,2.9562,2.9513,2.9259,2.9586,2.9876,2.9876,3.0057,3.0214,3.0214,3.0214,3.0214,3.0214,3.0214,3.0214,3.0214,3.0214,3.0214,3.0214,3.0214,3.0214,3.0214,3.0214,3.0214,3.0214,3.0214,3.0214,3.0214,3.0214,3.0214,3.0214,3.0214,3.0214,3.0214,2.9719,2.9627,2.9972,2.9563,2.9902,0.0,0.0,0.0,1.0463,0.0,0.0,0.0,1.0675,1.1655,1.2768,1.3736,1.4449,1.4625,1.5185,1.557,1.5538,1.5642,1.6093,1.7013,1.956,2.1389,2.1655,2.2163,2.2598,2.2864,2.2697,2.2706,2.307,2.3203,2.3309,2.3442,2.3535,2.3547,2.3454,2.3668,2.374,2.3607,2.374,2.38,2.38,2.38,2.38,2.38,2.38,2.38,2.3812,2.3945,2.4005,2.4029,2.4439,2.468,2.4836,2.5234,2.556,2.5788,2.5788,2.6042,2.6403,2.6548,2.668,2.6837,2.709,2.7271,2.7403,2.7582,2.7896,2.8258,2.8548,2.862,2.8656,2.8789,2.8934,2.9091,2.9139,2.9284,2.9344,2.9078,2.9357,2.9598,2.9598,2.9815,3.0045,3.0189,3.0214,3.0214,3.0214,3.0214,3.0214,3.0214,3.0214,3.0214,3.0214,3.0214,3.0214,3.0214,3.0214,3.0214,3.0214,3.0214,3.0214,3.0214,3.0214,3.0214,3.0214,3.0214,3.0153,3.0008,2.9598,2.9553,2.9799,2.9539,2.9806,0.0,0.0,0.0,0.0,0.0,1.0388,0.0,0.0,0.0,1.1837,1.2836,1.3369,1.2176,1.2352,1.2718,1.2857,1.3074,1.3451,1.4094,1.6566,1.8996,2.0842,2.0914,2.0986,2.1414,2.1655,2.2103,2.2919,2.2842,2.2852,2.2997,2.3225,2.3273,2.3133,2.3466,2.3571,2.3414,2.3619,2.3752,2.38,2.38,2.38,2.38,2.38,2.38,2.38,2.38,2.38,2.3824,2.4089,2.4318,2.4559,2.5102,2.5511,2.5788,2.5788,2.609,2.6524,2.6572,2.6728,2.6957,2.7256,2.7295,2.7343,2.7655,2.7896,2.8149,2.8451,2.8548,2.8512,2.8608,2.8777,2.8886,2.8669,2.8946,2.92,2.8982,2.9151,2.9357,2.9357,2.9586,2.9839,3.0069,3.0165,3.0214,3.0214,3.0214,3.0214,3.0214,3.0214,3.0214,3.0214,3.0214,3.0214,3.0214,3.0214,3.0214,3.0214,3.0214,3.0214,3.0214,3.0214,3.0214,3.0214,3.0214,3.0105,2.9876,2.9562,2.9381,2.932,2.9369,2.9663,0.0,0.0,0.0,0.0,1.1508,0.0,0.0,0.0,1.0232,1.0047,0.0,1.0218,1.005,0.0,0.0,1.067,1.1118,1.2029,1.3628,1.3895,1.4226,1.5085,1.6167,1.6897,1.7012,1.7907,1.9573,2.2288,2.1971,2.1994,2.2695,2.2985,2.3118,2.3082,2.3143,2.3237,2.3414,2.3439,2.3571,2.38,2.38,2.38,2.38,2.38,2.38,2.38,2.38,2.38,2.3824,2.4089,2.421,2.4294,2.4836,2.5355,2.5788,2.5788,2.5969,2.6258,2.6512,2.662,2.668,2.6945,2.703,2.7078,2.7343,2.7546,2.7761,2.8137,2.8246,2.8306,2.856,2.8596,2.8656,2.8632,2.8669,2.8657,2.8632,2.8885,2.9127,2.9127,2.9453,2.9744,2.9731,2.9996,3.0214,3.0214,3.0214,3.0214,3.0214,3.0214,3.0214,3.0214,3.0214,3.0214,3.0214,3.0214,3.0214,3.0214,3.0214,3.0214,3.0214,3.0214,3.0214,3.0214,3.0214,3.0202,3.0165,2.9658,2.9284,2.9055,2.9283,2.9663,0.0,0.0,0.0,0.0,0.0,0.0,1.2177,0.0,1.0375,0.0,0.0,0.0,0.0,0.0,0.0,0.0,1.0278,1.0764,1.1631,1.1267,1.2046,1.5161,1.5707,1.6316,1.7456,1.7234,1.7867,1.9943,1.9899,1.9932,2.0362,2.1522,2.2248,2.2393,2.2695,2.2913,2.2983,2.3258,2.3475,2.3583,2.3728,2.38,2.38,2.38,2.38,2.3812,2.3969,2.3945,2.3824,2.4089,2.4198,2.4222,2.4439,2.4861,2.5331,2.5331,2.5596,2.5969,2.6078,2.6331,2.6632,2.6897,2.6981,2.703,2.7341,2.7486,2.7665,2.7896,2.8198,2.8439,2.8391,2.85,2.862,2.862,2.862,2.862,2.8813,2.885,2.8885,2.9236,2.9417,2.955,2.9696,2.9972,3.0214,3.0214,3.0214,3.0214,3.0214,3.0214,3.0214,3.0214,3.0214,3.0214,3.0214,3.0214,3.0214,3.0214,3.0214,3.0214,3.0214,3.0214,3.0214,3.0214,3.0214,3.0129,2.9972,2.9743,2.9417,2.9006,2.9547,2.9746,1.4258,0.0,0.0,0.0,0.0,0.0,0.0,0.0,0.0,0.0,0.0,0.0,0.0,0.0,0.0,0.0,0.0,1.0206,1.0107,0.9754,1.0821,1.4356,1.4831,1.5515,1.7212,1.6456,1.6355,1.7588,1.7892,1.8155,1.8475,2.0277,2.1486,2.1897,2.2272,2.2538,2.2695,2.3043,2.327,2.3414,2.3607,2.374,2.38,2.38,2.38,2.3812,2.4005,2.3981,2.3824,2.4005,2.4125,2.4198,2.4198,2.4523,2.5005,2.5005,2.5246,2.5596,2.574,2.609,2.6512,2.6753,2.6954,2.7018,2.721,2.7365,2.7461,2.7679,2.7956,2.8162,2.8294,2.8415,2.8524,2.8608,2.862,2.8644,2.8958,2.8958,2.8994,2.9272,2.9489,2.967,2.9791,3.0045,3.0214,3.0214,3.0214,3.0214,3.0214,3.0214,3.0214,3.0214,3.0214,3.0214,3.0214,3.0214,3.0214,3.0214,3.0214,3.0214,3.0214,3.0214,3.0214,3.0214,3.0214,3.0117,2.9912,2.9839,2.9562,2.9115,2.9756,2.9869,0.0,0.0,0.0,1.5347,0.0,0.0,0.0,0.0,1.0932,0.0,0.0,0.0,0.0,0.0,0.0,0.0,0.0,0.0,0.0,0.9991,1.0304,1.0383,1.1928,1.338,1.4426,1.4492,1.4861,1.58,1.6421,1.7092,1.7883,1.9709,2.1087,2.1885,2.1921,2.2175,2.2683,2.2707,2.2935,2.3414,2.3427,2.3559,2.38,2.38,2.38,2.38,2.3812,2.3812,2.38,2.3812,2.3969,2.4198,2.4198,2.4523,2.5005,2.5005,2.5017,2.5102,2.5608,2.5969,2.6266,2.6447,2.6737,2.6981,2.6994,2.6994,2.7123,2.752,2.7329,2.7271,2.8343,2.8415,2.8282,2.856,2.862,2.8644,2.8958,2.9344,2.9538,2.9163,2.9707,3.0189,3.0202,3.0214,3.0214,3.0214,3.0214,3.0214,3.0214,3.0214,3.0214,3.0214,3.0214,3.0214,3.0214,3.0214,3.0214,3.0214,3.0214,3.0214,3.0214,3.0214,3.0214,3.0214,3.0214,3.0214,3.0202,2.9924,2.9658,2.9381,2.9701,2.9913,0.0,0.0,1.8151,1.7553,0.0,0.0,0.0,0.0,0.0,0.0,0.0,0.0,0.0,0.0,0.0,0.0,0.0,0.0,0.0,0.9738,0.9949,1.0234,1.1004,1.1916,1.2917,1.2258,1.2065,1.2834,1.3171,1.3587,1.4147,1.6803,1.8778,1.9769,2.1002,2.1813,2.2163,2.2514,2.2864,2.3188,2.333,2.3547,2.38,2.38,2.38,2.3812,2.3981,2.3969,2.3836,2.4174,2.427,2.421,2.4391,2.4559,2.4752,2.4933,2.5114,2.5318,2.5668,2.5849,2.6013,2.6363,2.6616,2.6765,2.6933,2.6981,2.7006,2.7172,2.7292,2.7403,2.7378,2.7781,2.8139,2.7902,2.826,2.8644,2.8958,2.9127,2.9296,2.9526,2.9767,2.9996,3.0189,3.0214,3.0214,3.0214,3.0214,3.0214,3.0214,3.0214,3.0214,3.0214,3.0214,3.0214,3.0214,3.0214,3.0214,3.0214,3.0214,3.0214,3.0214,3.0214,3.0129,2.9936,2.9936,2.9851,2.9682,2.9586,2.9405,2.9139,2.925,2.9394,1.9063,1.944,0.0,1.8863,1.7955,0.0,1.6275,0.0,0.0,0.0,0.0,0.0,0.0,0.0,0.0,0.0,0.0,0.0,0.0,0.9648,0.9739,1.0108,1.0906,1.1466,1.1605,1.123,1.0876,1.0666,1.1141,1.1677,1.2228,1.5348,1.7598,1.8703,2.042,2.1534,2.1909,2.2248,2.2586,2.2949,2.3196,2.3426,2.3562,2.3778,2.3787,2.368,2.3945,2.3957,2.3836,2.427,2.4403,2.4354,2.4632,2.4788,2.4885,2.4969,2.5174,2.5415,2.5584,2.5644,2.5692,2.6013,2.6158,2.6222,2.6556,2.6834,2.7006,2.7184,2.7292,2.7367,2.7223,2.7554,2.7874,2.7795,2.8105,2.8572,2.8934,2.9019,2.9175,2.9695,2.9791,2.9888,3.0165,3.0214,3.0214,3.0214,3.0214,3.0214,3.0214,3.0214,3.0214,3.0214,3.0214,3.0141,2.9948,3.0105,3.0165,3.0033,3.0141,3.0214,3.0214,3.0117,3.0153,3.0358,2.99,2.9755,2.9972,2.9797,2.9432,2.9055,2.9299,2.9431]},{"header":{"parameterUnit":"m.s-1","parameterCategory":1,"la1":30.6,"la2":29.2853,"lo1":-89.7004,"lo2":-87.6739,"dy":0.0162,"dx":0.0183,"nx":112,"ny":82,"refTime":"2023-09-26T12:00:00:Z","depth":0,"parameterNumber":3,"parameterNumberName":"V-component_of_WINDS"},"data":[0.0,0.0,0.0,0.0,0.0,0.0,0.0,0.0,0.0,0.0,0.0,0.0,0.0,0.0,0.0,0.0,0.0,0.0,0.0,0.0,0.0,0.0,0.0,0.0,0.0,0.0,0.0,0.0,0.0,0.0,0.0,0.0,0.0,0.0,0.0,0.0,0.0,0.0,0.0,0.0,0.0,0.0,0.0,0.0,0.0,0.0,0.0,0.0,0.0,0.0,0.0,0.0,0.0,0.0,0.0,0.0,0.0,0.0,0.0,0.0,0.0,0.0,0.0,0.0,0.0,0.0,0.0,0.0,0.0,0.0,0.0,0.0,0.0,0.0,0.0,0.0,0.0,0.0,0.0,0.0,0.0,0.0,0.0,0.0,0.0,0.0,0.0,0.0,0.0,0.0,3.515,4.2878,5.3078,5.9284,5.9182,5.9317,5.4262,4.2117,0.0,0.0,0.0,0.0,0.0,0.0,0.0,0.0,0.0,0.0,0.0,0.0,0.0,0.0,0.0,0.0,0.0,0.0,0.0,0.0,0.0,0.0,0.0,0.0,0.0,0.0,0.0,0.0,0.0,0.0,0.0,0.0,0.0,0.0,0.0,0.0,0.0,0.0,0.0,0.0,0.0,0.0,0.0,0.0,0.0,0.0,0.0,0.0,0.0,0.0,0.0,0.0,0.0,0.0,0.0,0.0,0.0,0.0,0.0,0.0,0.0,0.0,0.0,0.0,0.0,0.0,0.0,0.0,0.0,0.0,0.0,0.0,0.0,0.0,0.0,0.0,0.0,0.0,0.0,0.0,0.0,0.0,0.0,0.0,0.0,0.0,0.0,0.0,0.0,0.0,0.0,0.0,0.0,0.0,0.0,0.0,0.0,0.0,0.0,0.0,0.0,0.0,0.0,0.0,3.7205,5.1154,5.7642,6.0689,5.9979,5.7728,5.23,4.274,0.0,0.0,0.0,0.0,0.0,0.0,0.0,0.0,0.0,0.0,0.0,0.0,0.0,0.0,0.0,0.0,0.0,0.0,0.0,0.0,0.0,0.0,0.0,0.0,0.0,0.0,0.0,0.0,0.0,0.0,0.0,0.0,0.0,0.0,0.0,0.0,0.0,0.0,0.0,0.0,0.0,0.0,0.0,0.0,0.0,0.0,0.0,0.0,0.0,0.0,0.0,0.0,0.0,0.0,0.0,0.0,0.0,0.0,0.0,0.0,0.0,0.0,0.0,0.0,0.0,0.0,0.0,0.0,0.0,0.0,0.0,0.0,0.0,0.0,0.0,0.0,0.0,0.0,0.0,0.0,0.0,0.0,0.0,0.0,0.0,0.0,0.0,0.0,0.0,0.0,0.0,0.0,0.0,0.0,0.0,0.0,0.0,0.0,0.0,0.0,0.0,0.0,0.0,3.6849,4.4948,5.6132,5.9815,6.1132,6.0333,5.8173,5.2706,4.2909,4.0493,0.0,0.0,0.0,0.0,0.0,0.0,0.0,0.0,0.0,0.0,0.0,0.0,0.0,0.0,0.0,0.0,0.0,0.0,0.0,0.0,0.0,0.0,0.0,0.0,0.0,0.0,0.0,0.0,0.0,0.0,0.0,0.0,0.0,0.0,0.0,0.0,0.0,0.0,0.0,0.0,0.0,0.0,0.0,0.0,0.0,0.0,0.0,0.0,0.0,0.0,0.0,0.0,0.0,0.0,0.0,0.0,0.0,0.0,0.0,0.0,0.0,0.0,0.0,0.0,0.0,0.0,0.0,0.0,0.0,0.0,0.0,0.0,0.0,0.0,0.0,0.0,0.0,0.0,0.0,0.0,0.0,0.0,0.0,0.0,0.0,0.0,0.0,0.0,0.0,0.0,0.0,0.0,0.0,0.0,0.0,0.0,0.0,0.0,0.0,0.0,0.0,0.0,4.5124,5.1169,5.8798,6.0954,6.145,6.0442,5.8415,5.2891,4.2875,3.9039,0.0,0.0,0.0,0.0,0.0,0.0,0.0,0.0,0.0,0.0,0.0,0.0,0.0,0.0,0.0,0.0,0.0,0.0,0.0,0.0,0.0,0.0,0.0,0.0,0.0,0.0,0.0,0.0,0.0,0.0,0.0,0.0,0.0,0.0,0.0,0.0,0.0,0.0,0.0,0.0,0.0,0.0,0.0,0.0,0.0,0.0,0.0,0.0,0.0,0.0,0.0,0.0,0.0,0.0,0.0,0.0,0.0,0.0,0.0,0.0,0.0,0.0,0.0,0.0,0.0,0.0,0.0,0.0,0.0,0.0,0.0,0.0,0.0,0.0,0.0,0.0,0.0,0.0,0.0,0.0,0.0,0.0,0.0,0.0,0.0,0.0,0.0,0.0,0.0,0.0,0.0,0.0,0.0,0.0,0.0,0.0,0.0,0.0,0.0,0.0,0.0,0.0,4.4217,5.1278,5.8815,6.1412,6.197,6.034,5.7025,5.1299,4.2583,3.7562,0.0,0.0,0.0,0.0,0.0,0.0,0.0,0.0,0.0,0.0,0.0,0.0,0.0,0.0,0.0,0.0,0.0,0.0,0.0,0.0,0.0,0.0,0.0,0.0,0.0,0.0,0.0,0.0,0.0,0.0,0.0,0.0,0.0,0.0,0.0,0.0,0.0,0.0,0.0,0.0,0.0,0.0,0.0,0.0,0.0,0.0,0.0,0.0,0.0,0.0,0.0,0.0,0.0,0.0,0.0,0.0,0.0,0.0,0.0,0.0,0.0,0.0,0.0,0.0,0.0,0.0,0.0,0.0,0.0,0.0,0.0,0.0,0.0,0.0,0.0,0.0,0.0,0.0,0.0,0.0,0.0,0.0,0.0,0.0,0.0,0.0,0.0,0.0,0.0,0.0,0.0,0.0,0.0,0.0,0.0,0.0,0.0,0.0,0.0,0.0,0.0,0.0,4.6481,5.3291,0.0,6.1865,6.189,6.0275,5.7056,5.1319,4.2367,0.0,0.0,0.0,0.0,0.0,0.0,0.0,0.0,0.0,0.0,0.0,0.0,0.0,0.0,0.0,0.0,0.0,0.0,0.0,0.0,0.0,0.0,0.0,0.0,0.0,0.0,0.0,0.0,0.0,0.0,0.0,0.0,0.0,0.0,0.0,0.0,0.0,0.0,0.0,0.0,0.0,0.0,0.0,0.0,0.0,0.0,0.0,0.0,0.0,0.0,0.0,0.0,0.0,0.0,0.0,0.0,0.0,0.0,0.0,0.0,0.0,0.0,0.0,0.0,0.0,0.0,0.0,0.0,0.0,0.0,0.0,0.0,0.0,0.0,0.0,0.0,0.0,0.0,0.0,0.0,0.0,0.0,0.0,0.0,0.0,0.0,0.0,0.0,0.0,0.0,0.0,0.0,0.0,0.0,0.0,0.0,0.0,0.0,0.0,0.0,0.0,0.0,4.0799,4.8394,5.5359,0.0,6.2204,6.2024,6.0422,5.6797,5.0838,4.2061,0.0,0.0,0.0,0.0,0.0,0.0,0.0,0.0,0.0,0.0,0.0,0.0,0.0,0.0,0.0,0.0,0.0,0.0,0.0,0.0,0.0,0.0,0.0,0.0,0.0,0.0,0.0,0.0,0.0,0.0,0.0,0.0,0.0,0.0,0.0,0.0,0.0,0.0,0.0,0.0,0.0,0.0,0.0,0.0,0.0,0.0,0.0,0.0,0.0,0.0,0.0,0.0,0.0,0.0,0.0,0.0,0.0,0.0,0.0,0.0,0.0,0.0,0.0,0.0,0.0,0.0,0.0,0.0,0.0,0.0,0.0,0.0,0.0,0.0,0.0,0.0,0.0,0.0,0.0,0.0,0.0,0.0,0.0,0.0,0.0,0.0,0.0,0.0,0.0,0.0,0.0,0.0,0.0,0.0,0.0,0.0,0.0,0.0,0.0,0.0,0.0,0.0,4.0199,4.9407,5.7064,6.0875,6.2486,6.2576,6.0816,5.6011,4.9656,0.0,0.0,0.0,0.0,0.0,0.0,0.0,0.0,0.0,0.0,0.0,0.0,0.0,0.0,0.0,0.0,0.0,0.0,0.0,0.0,0.0,0.0,0.0,0.0,0.0,0.0,0.0,0.0,0.0,0.0,0.0,0.0,0.0,0.0,0.0,0.0,0.0,0.0,0.0,0.0,0.0,0.0,0.0,0.0,0.0,0.0,0.0,0.0,0.0,0.0,0.0,0.0,0.0,0.0,0.0,0.0,0.0,0.0,0.0,0.0,0.0,0.0,0.0,0.0,0.0,0.0,0.0,0.0,0.0,0.0,0.0,0.0,0.0,0.0,0.0,0.0,0.0,0.0,0.0,0.0,0.0,0.0,0.0,0.0,0.0,0.0,0.0,0.0,0.0,0.0,0.0,0.0,0.0,0.0,0.0,0.0,0.0,0.0,0.0,0.0,0.0,0.0,0.0,4.0261,4.9479,5.6907,6.0307,6.2,6.2016,5.9909,5.587,4.9829,4.1343,0.0,0.0,0.0,0.0,0.0,0.0,0.0,0.0,0.0,0.0,0.0,0.0,0.0,0.0,0.0,0.0,0.0,0.0,0.0,0.0,0.0,0.0,0.0,0.0,0.0,0.0,0.0,0.0,0.0,0.0,0.0,0.0,0.0,0.0,0.0,0.0,0.0,0.0,0.0,0.0,0.0,0.0,0.0,0.0,0.0,0.0,0.0,0.0,0.0,0.0,0.0,0.0,0.0,0.0,0.0,0.0,0.0,0.0,0.0,0.0,0.0,0.0,0.0,0.0,0.0,0.0,0.0,0.0,0.0,0.0,0.0,0.0,0.0,0.0,0.0,0.0,0.0,0.0,0.0,0.0,0.0,0.0,0.0,0.0,0.0,0.0,0.0,0.0,0.0,0.0,0.0,0.0,0.0,0.0,0.0,0.0,0.0,0.0,0.0,0.0,0.0,0.0,4.0342,4.9784,5.7287,6.0428,6.214,6.214,5.9857,5.6157,5.069,4.2996,0.0,0.0,0.0,0.0,0.0,0.0,0.0,0.0,0.0,0.0,0.0,0.0,0.0,0.0,0.0,0.0,0.0,0.0,0.0,0.0,0.0,0.0,0.0,0.0,0.0,0.0,0.0,0.0,0.0,0.0,0.0,0.0,0.0,0.0,0.0,0.0,0.0,0.0,0.0,0.0,0.0,0.0,0.0,0.0,0.0,0.0,0.0,0.0,0.0,0.0,0.0,0.0,0.0,0.0,0.0,0.0,0.0,0.0,0.0,0.0,0.0,0.0,0.0,0.0,0.0,0.0,0.0,0.0,0.0,0.0,0.0,0.0,0.0,0.0,0.0,0.0,0.0,0.0,0.0,0.0,0.0,0.0,0.0,0.0,0.0,0.0,0.0,0.0,0.0,0.0,0.0,0.0,0.0,0.0,0.0,0.0,0.0,0.0,0.0,0.0,0.0,0.0,4.0388,5.0218,5.7909,6.0771,6.253,6.2565,6.0289,5.6736,5.1951,4.5719,0.0,0.0,0.0,0.0,0.0,0.0,0.0,0.0,0.0,0.0,0.0,0.0,0.0,0.0,0.0,0.0,0.0,0.0,0.0,0.0,0.0,0.0,0.0,0.0,0.0,0.0,0.0,0.0,0.0,0.0,0.0,0.0,0.0,0.0,0.0,0.0,0.0,0.0,0.0,0.0,0.0,0.0,0.0,0.0,0.0,0.0,0.0,0.0,0.0,0.0,0.0,0.0,0.0,0.0,0.0,0.0,0.0,0.0,0.0,0.0,3.1596,0.0,0.0,0.0,0.0,0.0,0.0,0.0,0.0,0.0,0.0,0.0,0.0,0.0,0.0,0.0,0.0,0.0,0.0,0.0,0.0,0.0,0.0,0.0,0.0,0.0,0.0,0.0,0.0,0.0,0.0,0.0,0.0,0.0,0.0,0.0,0.0,0.0,0.0,0.0,0.0,0.0,4.04,5.0218,5.7495,5.9323,6.1427,6.1772,5.9461,5.6858,5.2693,4.6481,4.2176,0.0,0.0,0.0,0.0,0.0,0.0,0.0,0.0,0.0,0.0,0.0,0.0,0.0,0.0,0.0,0.0,0.0,0.0,0.0,0.0,0.0,0.0,0.0,0.0,0.0,0.0,0.0,0.0,0.0,0.0,0.0,0.0,0.0,0.0,0.0,0.0,0.0,0.0,0.0,0.0,0.0,0.0,0.0,0.0,0.0,0.0,0.0,0.0,0.0,0.0,0.0,0.0,0.0,0.0,0.0,0.0,0.0,0.0,0.0,0.0,3.2441,0.0,0.0,0.0,0.0,0.0,0.0,0.0,0.0,0.0,0.0,0.0,0.0,0.0,0.0,0.0,0.0,0.0,0.0,0.0,0.0,0.0,0.0,0.0,0.0,0.0,0.0,0.0,0.0,0.0,0.0,0.0,0.0,0.0,0.0,0.0,0.0,0.0,0.0,0.0,0.0,4.0481,4.9902,5.7064,5.9357,6.1323,6.153,5.9202,5.7237,5.4309,4.9997,4.459,0.0,0.0,0.0,0.0,0.0,0.0,0.0,0.0,0.0,0.0,0.0,0.0,0.0,0.0,0.0,0.0,0.0,0.0,0.0,0.0,0.0,0.0,0.0,0.0,0.0,0.0,0.0,0.0,0.0,0.0,0.0,0.0,0.0,0.0,0.0,0.0,0.0,0.0,0.0,0.0,0.0,0.0,0.0,0.0,0.0,0.0,0.0,0.0,0.0,0.0,0.0,0.0,0.0,4.3345,4.461,4.6217,4.7333,4.7898,4.7667,4.22,4.0877,4.2181,3.6754,0.0,0.0,0.0,0.0,0.0,0.0,0.0,0.0,0.0,0.0,0.0,0.0,0.0,0.0,0.0,0.0,0.0,0.0,0.0,0.0,0.0,0.0,0.0,0.0,4.2253,4.1367,0.0,0.0,0.0,0.0,0.0,0.0,0.0,0.0,0.0,0.0,0.0,0.0,4.0977,4.9812,5.6858,5.9702,6.1272,6.1323,5.9375,5.7736,5.5874,5.3736,4.7134,4.2885,0.0,0.0,0.0,0.0,0.0,0.0,0.0,0.0,0.0,0.0,0.0,0.0,0.0,0.0,0.0,0.0,0.0,0.0,0.0,0.0,0.0,0.0,0.0,0.0,0.0,0.0,0.0,0.0,0.0,0.0,0.0,0.0,2.8046,3.164,0.0,0.0,0.0,0.0,0.0,0.0,0.0,0.0,0.0,0.0,0.0,0.0,0.0,4.1387,4.4442,4.9233,5.1768,5.2039,5.569,5.7238,5.6855,5.7053,5.78,5.8786,5.4802,0.0,4.5277,4.3895,0.0,0.0,0.0,0.0,0.0,0.0,0.0,0.0,0.0,0.0,0.0,0.0,0.0,0.0,0.0,0.0,0.0,0.0,0.0,0.0,0.0,0.0,5.0253,5.1393,4.9628,4.8319,0.0,4.2439,3.5019,3.6298,3.3156,0.0,0.0,0.0,0.0,0.0,0.0,0.0,4.2447,5.0922,5.7288,5.8978,5.9978,6.0358,6.0082,5.8047,5.6115,5.4444,5.1321,4.7192,4.1922,4.3102,0.0,0.0,0.0,0.0,0.0,0.0,0.0,0.0,0.0,0.0,0.0,0.0,0.0,0.0,0.0,0.0,0.0,0.0,0.0,0.0,0.0,0.0,0.0,0.0,0.0,0.0,0.0,0.0,0.0,2.7911,3.2111,3.177,3.3509,3.2499,0.0,0.0,0.0,0.0,0.0,0.0,0.0,0.0,0.0,4.2987,4.7276,5.0022,5.1041,5.6876,6.0175,6.099,6.3616,6.516,6.5657,6.6088,6.685,6.7744,6.5701,6.2493,5.8239,5.1786,4.7633,4.4804,0.0,0.0,0.0,0.0,3.6185,3.8584,3.9555,4.2503,0.0,4.5053,0.0,0.0,0.0,0.0,0.0,0.0,0.0,0.0,0.0,0.0,5.429,5.6652,5.7495,5.7771,5.784,5.1851,4.5704,0.0,3.9514,3.6048,3.3291,0.0,0.0,0.0,0.0,4.3935,4.6044,5.2804,5.815,6.0082,6.1013,6.1289,6.0875,5.9116,5.7771,5.7064,5.3592,5.0366,4.7712,4.7025,4.4239,0.0,0.0,0.0,0.0,0.0,0.0,0.0,0.0,0.0,0.0,0.0,0.0,0.0,0.0,0.0,0.0,0.0,0.0,0.0,0.0,0.0,0.0,0.0,0.0,0.0,0.0,0.0,0.0,3.2385,3.6006,3.3802,3.7231,3.7005,0.0,0.0,0.0,0.0,0.0,0.0,4.4172,4.6095,4.8444,5.1397,5.6684,5.9511,5.9542,6.4454,6.7535,6.8771,6.9467,7.0494,7.1753,7.2117,7.268,7.3343,7.278,7.162,6.9358,5.9516,5.426,5.2138,4.8868,4.6078,4.3911,4.4392,4.5618,4.7341,4.9489,5.2098,5.4231,5.2584,5.1412,4.9664,4.4288,0.0,0.0,0.0,0.0,4.6888,5.1443,5.4971,5.8186,6.1443,6.3945,6.5014,6.291,5.9651,5.5543,0.0,4.6331,4.2691,3.9087,0.0,0.0,0.0,0.0,4.8287,4.9499,5.4823,5.9219,6.1116,6.1668,6.1806,6.1634,5.984,5.872,5.872,5.4996,5.2444,5.1686,4.9777,4.6939,4.3173,0.0,0.0,0.0,0.0,0.0,0.0,0.0,0.0,0.0,0.0,0.0,0.0,0.0,0.0,0.0,0.0,0.0,0.0,0.0,0.0,0.0,0.0,0.0,0.0,0.0,0.0,0.0,0.0,0.0,4.1859,4.7143,0.0,0.0,0.0,0.0,4.0619,4.4487,4.8731,5.2832,5.5796,5.9861,6.5292,6.7831,7.0428,7.3169,7.3533,7.4097,7.4859,7.3508,7.3276,7.3997,7.3343,7.3442,7.413,7.4097,7.403,7.3401,6.6519,6.2423,6.0084,5.5747,5.3941,5.3361,5.0036,5.1444,5.4835,5.3614,5.6287,6.0583,6.2479,6.0112,5.5416,4.9812,4.7421,0.0,0.0,5.0746,5.5098,5.7049,6.1427,6.5723,6.7325,6.7807,6.7497,6.5999,6.333,6.0238,0.0,5.2046,4.8169,4.7238,0.0,4.5866,4.2036,4.6818,5.1119,5.1836,5.6687,6.0392,6.122,6.0703,6.0875,6.2342,5.9668,5.7978,5.7978,5.5701,5.3115,5.0252,4.9982,4.8991,4.6977,4.3455,0.0,0.0,0.0,0.0,0.0,0.0,0.0,0.0,0.0,0.0,0.0,0.0,0.0,0.0,0.0,0.0,0.0,0.0,0.0,0.0,0.0,0.0,0.0,0.0,0.0,0.0,0.0,0.0,4.7484,5.214,0.0,4.7732,4.9174,5.0522,5.0754,5.5889,6.0732,6.4563,6.6674,6.931,7.2689,7.4038,7.4966,7.5562,7.6954,7.7583,7.7351,7.7782,7.8113,7.8372,7.8113,7.8113,7.8372,7.7881,7.7329,7.6565,7.3754,7.0262,6.6353,6.2853,6.1231,6.0634,5.9363,6.0362,6.2415,6.2294,6.3642,6.5322,6.4871,6.2644,5.9804,5.805,5.7275,5.7104,5.7653,5.9925,6.2389,6.3478,6.593,6.8207,6.8759,6.9621,6.9877,6.8414,6.728,6.5883,6.3756,5.7907,5.3034,5.2218,5.2892,5.241,4.9022,5.2912,5.6478,5.722,5.9857,6.1944,6.2703,6.2117,6.1893,6.2445,5.9668,5.7909,5.7909,5.5322,5.308,5.1479,5.0513,4.9436,4.824,4.646,4.349,0.0,0.0,0.0,0.0,0.0,0.0,0.0,0.0,0.0,0.0,0.0,0.0,0.0,0.0,0.0,0.0,0.0,0.0,0.0,0.0,0.0,0.0,0.0,0.0,0.0,4.4004,5.1172,5.2908,5.8255,6.0231,5.6112,5.8093,6.0148,6.1367,6.5986,7.003,7.2945,7.427,7.5669,7.7358,7.8146,7.8411,7.8179,7.9345,7.9841,7.9637,8.0551,8.1025,8.0998,8.1209,8.0595,7.9408,8.0202,7.9477,7.7707,7.8085,7.6433,7.3335,7.0153,6.8616,6.8148,6.7881,6.8317,6.9098,6.9434,6.9608,6.9514,6.8159,6.6387,6.4763,6.4785,6.4791,6.4964,6.5688,6.6999,6.8379,6.9104,7.0222,7.1187,7.1187,7.1739,7.1933,7.0725,6.9414,6.8448,6.8207,6.3086,5.8147,5.6028,5.6495,5.5977,5.2375,5.4823,5.7322,5.784,5.9909,6.1548,6.2013,6.2324,6.2514,6.2514,5.9185,5.7253,5.7529,5.446,5.2375,5.1858,4.9864,4.8416,4.7672,4.5646,4.2918,3.9464,0.0,0.0,0.0,0.0,0.0,0.0,0.0,0.0,0.0,0.0,0.0,0.0,0.0,0.0,0.0,0.0,0.0,0.0,0.0,0.0,0.0,0.0,0.0,3.8167,4.9924,5.8498,5.8528,6.6001,6.9732,6.6165,6.9103,7.1488,7.2216,7.4329,7.6159,7.7523,7.8246,7.8908,7.9637,8.036,8.1056,8.1752,8.1155,8.1188,8.1912,8.1818,8.1779,8.1786,8.2327,8.0538,7.7192,8.0885,8.0378,7.7091,7.9388,8.0725,8.1021,7.7319,7.5862,7.5761,7.4958,7.463,7.4587,7.423,7.3681,7.3154,7.2888,7.1795,7.0415,6.969,6.9483,6.9621,7.0346,7.1622,7.2933,7.3692,7.4395,7.496,7.496,7.4395,7.3658,7.2899,6.9828,6.7807,7.0001,6.7428,6.3462,5.9012,5.8185,5.6667,5.2237,5.2823,0.0,5.3804,5.7012,5.9288,5.9202,6.1082,6.2411,6.2514,5.8185,5.5823,5.6702,5.3203,5.1099,5.1099,4.8167,4.6226,4.5569,4.1051,3.9812,4.209,0.0,0.0,0.0,0.0,0.0,0.0,0.0,0.0,0.0,0.0,0.0,0.0,0.0,0.0,0.0,0.0,0.0,0.0,0.0,0.0,0.0,4.6178,5.2976,5.265,5.8141,6.4306,6.9889,7.4003,7.6,7.5007,7.6788,7.808,7.8279,8.0366,8.179,8.2154,8.1158,8.0709,8.0909,8.1109,8.1042,8.0709,8.3259,8.4383,8.4049,8.5025,8.5432,8.5425,8.4986,8.4227,8.3253,8.3787,8.3319,8.2257,8.293,8.3191,8.2874,7.8919,7.7068,7.6516,7.5713,7.5315,7.4833,7.2296,7.3134,7.5254,7.5179,7.4477,7.3615,7.3408,7.3374,7.3408,7.3615,7.396,7.4477,7.5257,7.5615,7.5753,7.5753,7.5615,7.5119,7.3796,7.2243,7.1139,7.1187,6.9932,6.8083,6.5704,6.4393,6.3273,6.2013,6.2204,0.0,6.2461,6.3377,6.4032,6.3979,6.1082,6.0289,6.3048,5.6564,5.3375,5.5789,5.2892,5.1099,5.1099,4.974,4.8913,4.872,4.5228,4.3782,0.0,0.0,0.0,0.0,0.0,0.0,0.0,0.0,0.0,0.0,0.0,0.0,0.0,0.0,0.0,0.0,0.0,0.0,0.0,0.0,0.0,0.0,5.4979,6.3408,6.677,6.8747,7.1804,7.6954,7.9769,8.1265,8.1265,8.2055,8.2552,8.2552,8.3745,8.4588,8.4812,8.3637,8.2592,8.1804,8.2791,8.2623,8.1125,8.4627,8.6169,8.5731,8.7111,8.7552,8.7246,8.7318,8.6306,8.4566,8.5419,8.4814,8.332,8.4305,8.4789,0.0,0.0,0.0,0.0,0.0,7.775,7.6862,7.5239,7.574,7.7097,7.7408,7.6753,7.5925,7.627,7.4994,7.3477,7.3477,7.2339,7.167,7.405,7.4671,7.5154,7.7063,7.6787,7.5856,7.4947,7.2636,7.1036,7.1864,7.038,0.0,6.9463,6.6945,6.4308,6.2376,6.21,6.21,6.21,6.3186,6.3963,6.3963,6.2324,6.1875,6.3462,5.7943,0.0,0.0,0.0,5.0361,4.8747,4.8603,0.0,0.0,0.0,4.5331,4.7307,4.5093,0.0,0.0,4.2237,4.0863,0.0,0.0,0.0,0.0,0.0,0.0,0.0,0.0,0.0,0.0,0.0,0.0,0.0,0.0,0.0,0.0,6.2815,7.0858,7.9154,7.9818,7.995,8.1188,8.3612,8.5297,8.5422,8.5455,8.5484,8.5538,8.5538,8.5797,8.6332,0.0,0.0,0.0,0.0,8.4884,8.2662,8.5722,8.7213,8.7247,8.8496,8.873,8.808,8.9224,8.7501,8.3811,8.6432,8.5604,8.2604,8.4604,8.5742,8.6018,8.4476,8.3373,8.25,8.1328,8.0362,7.9649,7.989,0.0,0.0,7.9293,7.8442,7.7339,7.8154,7.5533,7.2291,7.236,6.998,6.8379,7.2416,7.352,7.4589,7.8568,7.8028,7.6546,7.6373,7.2567,6.9877,7.245,7.0139,6.8586,7.105,6.7532,6.2944,5.884,5.8219,5.8185,5.8081,6.0427,6.2082,6.2082,0.0,0.0,6.4048,6.0703,5.8513,5.8288,5.4237,5.0243,4.6625,4.7314,4.6383,4.3503,4.4087,4.6515,5.0769,5.0007,5.1763,5.5651,4.7238,4.5551,0.0,0.0,0.0,0.0,0.0,0.0,0.0,0.0,0.0,0.0,0.0,0.0,0.0,0.0,0.0,6.3457,7.1598,7.887,8.4022,8.5175,8.5344,8.5156,8.5629,8.6401,8.7495,8.7619,8.7788,8.8301,8.8329,8.8385,8.8464,8.6494,8.5165,8.4821,8.5263,8.5297,8.4821,8.7787,8.9322,8.9349,0.0,0.0,9.0206,8.9863,8.9226,8.8398,8.8364,8.7605,8.6363,8.6811,8.6363,8.5259,8.3707,8.2293,8.058,7.674,7.7499,7.9959,7.7028,7.7442,7.9304,7.9465,7.8442,7.7339,7.8154,7.7775,0.0,7.781,7.743,7.7085,7.7948,7.8637,7.9132,7.9431,7.9614,7.9408,7.8223,7.6637,7.5235,7.458,7.3395,7.2278,7.1601,7.0173,6.8586,6.7103,6.6896,6.6654,6.5979,6.6428,6.6773,6.6773,6.4014,6.3324,6.6117,6.0151,5.7513,6.0461,5.8081,5.5685,5.3704,5.4375,5.4237,5.2965,5.3084,5.3911,5.5495,5.5306,5.5996,5.7391,5.3739,5.2843,0.0,0.0,0.0,0.0,0.0,0.0,0.0,0.0,0.0,0.0,0.0,4.7176,4.9667,0.0,6.4717,7.0623,7.7241,8.3026,8.701,8.7893,8.7893,8.7185,8.7419,8.8037,8.9125,8.9221,8.947,9.0154,8.9844,8.9923,9.0605,8.8497,8.7174,8.6997,8.7833,8.7867,8.7023,9.001,9.1314,9.0937,9.1266,9.1192,9.0812,9.0433,9.026,9.0226,8.9467,8.8915,8.8501,8.7743,8.6536,8.5121,8.4363,8.3121,8.1535,7.9603,7.9879,8.0959,7.9442,7.9408,8.0097,8.0534,8.0155,7.9603,7.9982,7.8775,7.7235,7.7201,7.5546,7.4326,7.6602,7.7465,7.8258,8.0189,8.0339,7.9856,7.912,7.8028,7.6856,7.5718,7.5223,7.4464,7.2933,7.2347,7.1588,7.007,7.0173,7.0118,6.9325,6.9256,6.9104,6.8759,6.629,6.5324,6.6896,6.2806,6.0668,6.1806,6.0461,5.8909,5.7375,5.7322,5.7702,5.8461,5.7685,5.8237,6.0185,5.984,5.984,6.0203,5.9782,5.8985,0.0,0.0,0.0,0.0,0.0,0.0,0.0,4.3622,4.6923,4.7902,5.2429,5.7072,5.972,6.5479,7.1518,7.6827,8.1638,8.5911,8.9246,8.9729,8.961,8.9039,8.9138,8.9636,9.0691,9.0658,9.0884,9.1574,9.1127,9.1255,9.2316,9.08,8.984,8.9717,9.0875,9.0944,8.9709,9.195,9.2813,9.2192,9.2192,9.1813,9.1054,9.1054,9.095,9.0778,9.0019,8.964,8.9398,8.7984,8.6536,8.5225,8.5363,8.4397,8.2983,8.3718,8.3259,8.2328,8.2914,8.2097,8.0925,8.1603,8.1707,8.1603,8.1741,7.9672,7.7097,7.6615,7.3684,7.1567,7.5085,7.6016,7.6913,8.05,8.0534,7.9718,7.9718,7.8718,7.7649,7.6891,7.6649,7.6097,7.4705,7.4464,7.3589,7.1001,7.1139,7.1222,7.0484,7.0415,7.0173,6.9587,6.8828,6.7945,6.7103,6.5842,6.4565,6.3239,6.253,6.1565,6.0185,5.953,6.0082,6.191,6.0737,6.1427,6.4067,6.3446,6.317,6.3188,6.455,6.3625,3.4963,3.1358,3.0721,3.6242,3.9034,4.2566,0.0,5.593,5.9486,6.0894,6.4795,6.8597,7.0894,7.5031,7.9146,8.2449,8.6077,8.928,9.1531,9.1838,9.2033,9.2501,9.1067,9.085,9.2753,9.2366,9.2247,9.2872,9.283,9.2823,9.298,9.2754,9.2953,9.3641,9.3138,9.3138,9.3668,9.3296,9.3054,9.2985,9.2985,9.2571,9.1847,9.1847,9.1468,9.0778,9.0019,8.9329,8.8639,8.7777,8.6536,8.5259,8.5915,8.4846,8.2983,8.3718,8.389,8.3776,8.3855,8.2914,8.1672,8.1776,8.1328,8.0856,8.1569,8.15,8.1293,8.1845,8.119,8.0224,7.9994,7.9959,7.9925,7.981,8.0132,8.0476,8.0476,8.0339,7.9994,7.9235,7.8603,7.7879,7.6959,7.6822,7.558,7.1912,7.1429,7.1222,7.0484,7.0415,7.038,7.0311,6.9621,6.8586,6.7137,6.6842,6.6413,6.5585,6.5447,6.4998,6.4083,6.3979,6.4048,6.4324,6.4152,6.4565,6.5654,6.555,6.5516,6.5535,6.635,6.5492,4.0063,4.0024,4.1708,4.6469,5.111,5.5938,6.1508,6.5194,6.8022,7.0101,7.3866,7.7288,7.8914,8.1454,8.4253,8.7178,8.8483,9.0181,9.3024,9.2296,9.1748,9.238,8.9085,8.7769,9.0338,9.1849,9.2267,9.12,9.2778,9.3985,9.4399,9.3572,9.3675,9.4882,9.4192,9.4158,9.4917,9.4606,9.4227,9.3778,9.3778,9.3158,9.1985,9.1985,9.1571,9.0778,9.0467,8.9916,8.9191,8.8398,8.7467,8.6467,8.6363,8.5708,8.4811,8.4225,8.3718,8.3362,8.3362,8.3259,8.3087,8.3087,8.2845,8.2545,8.2466,8.2431,8.2431,8.2293,8.2052,8.1707,8.1397,8.1293,8.1224,8.0914,8.0718,8.0718,8.1224,8.058,7.9856,7.9569,7.889,7.8154,7.7339,7.7201,7.6649,7.5085,7.4464,7.3912,7.3098,7.2257,7.1586,7.115,7.0826,7.0549,7.0335,6.9879,6.9473,6.9191,6.9156,6.8803,6.7975,6.8011,6.8011,6.794,6.7112,6.7042,6.7817,6.7817,6.7606,6.7218,6.8809,6.8598,4.3308,4.6082,4.9811,5.4878,6.1055,6.6856,7.0396,7.334,7.6024,7.8456,8.1163,8.3448,8.466,8.5872,8.7409,8.9682,9.0193,9.1159,9.3613,9.2426,9.0841,8.97,8.5649,8.3151,8.3573,8.8475,9.1521,9.1295,9.333,9.4841,9.5365,9.433,9.433,9.5641,9.522,9.5158,9.5675,9.571,9.5331,9.4572,9.4572,9.3806,9.2295,9.1847,9.1226,9.0502,9.0502,8.995,8.9019,8.8501,8.7812,8.7053,8.6501,8.6191,8.5846,8.4742,8.3983,8.35,8.3293,8.3431,8.3707,8.3707,8.3707,8.3604,8.3087,8.2914,8.2811,8.2259,8.1948,8.181,8.181,8.1638,8.1431,8.1224,8.0879,8.0683,8.1086,8.0465,7.9856,8.0086,7.9362,7.858,7.8201,7.7959,7.7821,7.7821,7.7201,7.6373,7.5373,7.4298,7.3383,7.2656,7.2768,7.2931,7.3012,7.2297,7.1744,7.1495,7.1281,7.0907,7.0336,7.0334,7.0351,7.03,6.9263,6.8958,6.9513,6.9513,6.9227,6.8725,7.0578,7.0827,4.3039,4.5264,4.8944,5.758,6.4878,7.1265,7.6416,8.0738,8.4313,8.6761,8.6745,8.6749,8.7946,8.8103,8.8293,8.9109,9.135,9.302,9.3123,9.2468,8.983,8.4063,8.118,7.7406,7.1704,8.1274,8.9916,9.4875,9.5296,9.5365,9.54,9.5365,9.5675,9.6434,9.6434,9.6434,9.6469,9.6469,9.6089,9.5365,9.5365,9.4537,9.302,9.1537,9.0433,8.9743,8.9743,8.8881,8.7441,8.7467,8.7018,8.6329,8.6329,8.5846,8.5225,8.519,8.5156,8.5018,8.4259,8.3535,8.2949,8.2949,8.2949,8.2949,8.2914,8.2914,8.2914,8.288,8.2362,8.181,8.181,8.1224,8.0442,7.9718,8.0097,8.0407,7.9718,8.0097,8.0787,8.1569,8.05,7.9683,8.0373,7.989,7.9431,7.9431,7.881,7.7775,7.6235,7.6063,7.58,7.5068,7.5686,7.5512,7.3976,7.3136,7.2315,7.1565,7.0781,7.0336,7.03,7.03,7.03,7.03,7.0264,7.0229,7.0264,7.0264,7.0264,7.0246,7.1051,7.139,4.6752,5.3894,6.2094,6.6923,7.3558,7.9805,8.3514,8.5014,8.6059,8.7541,8.4677,8.1747,8.1392,7.9844,7.9822,8.3564,8.4504,8.661,9.1888,8.7715,8.4218,8.446,7.9532,7.7015,7.9281,8.1605,8.3953,8.6191,9.1019,9.4537,9.6055,9.6124,9.6469,9.7262,9.6779,9.6503,9.6503,9.602,9.54,9.4641,9.3606,9.3123,9.3054,9.1502,9.0674,9.0433,9.0433,8.9881,8.8881,8.8398,8.7743,8.6984,8.6501,8.6156,8.588,8.5397,8.519,8.5087,8.4294,8.3821,8.3614,8.3614,8.3713,8.3763,8.3763,8.3831,8.3893,8.3893,8.3717,8.3375,8.2791,8.2459,8.2034,8.1216,8.0787,8.0683,8.0983,8.0892,8.0958,8.1726,8.1531,8.1288,8.1514,8.1338,8.114,8.1155,7.9613,7.8074,7.7027,7.6951,7.7108,7.7378,7.7667,7.782,7.7821,7.6547,7.5621,7.5382,7.4092,7.3349,7.3349,7.3349,7.311,7.2564,7.2564,7.2294,7.1748,7.2294,7.2564,7.2564,7.3362,7.3709,5.3635,6.2521,7.1568,7.5492,8.1567,8.6989,8.8624,8.875,8.839,8.7968,8.4063,7.9867,7.7129,7.426,7.3906,7.8698,7.9243,8.1781,8.9662,8.5967,8.265,8.3172,7.839,7.6219,7.935,7.9488,8.0373,8.2845,8.8019,9.195,9.3951,9.4054,9.5055,9.7193,9.6745,9.6365,9.6089,9.5882,9.5262,9.4289,9.2985,9.2364,9.2226,9.0985,8.9674,8.8433,8.9536,8.9122,8.7708,8.8019,8.7881,8.7329,8.6605,8.6294,8.626,8.5777,8.5432,8.5087,8.4294,8.3821,8.3652,8.3978,8.3949,8.3872,8.4203,8.4308,8.4396,8.4396,8.4396,8.4252,8.372,8.3803,8.3793,8.2986,8.2584,8.2479,8.2724,8.2405,8.2256,8.2708,8.2658,8.2529,8.2453,8.2239,8.2112,8.2413,8.1199,7.9837,7.8701,7.8593,7.8837,7.9391,7.9722,7.9988,8.0209,7.8699,7.7766,7.7766,7.5968,7.5014,7.5307,7.505,7.4647,7.4147,7.4147,7.3854,7.3377,7.3891,7.4147,7.4147,7.4955,7.5322,6.3083,7.0754,7.7327,8.2941,8.8367,9.2174,9.1576,9.1568,9.0803,8.7647,8.424,8.0089,7.4286,7.0799,7.0184,7.4503,7.5796,7.8918,8.6632,8.7048,8.4876,8.0409,7.7865,7.5495,7.2846,7.5737,7.9856,8.488,8.6742,8.8364,9.0019,9.0123,9.2123,9.6538,9.6538,9.6193,9.5503,9.6055,9.5606,9.4254,9.3365,9.2226,9.0847,9.0088,8.7777,8.4511,8.7432,8.7018,8.4442,8.6605,8.7467,8.7398,8.6655,8.6379,8.6363,8.6419,8.597,8.5255,8.4509,8.3725,8.3153,8.398,8.3837,8.3502,8.4353,8.4605,8.459,8.459,8.4554,8.4518,8.4457,8.5049,8.5427,8.4656,8.5028,8.5329,8.4656,8.4554,8.4518,8.4457,8.3915,8.3439,8.3435,8.2755,8.2505,8.3236,8.3415,8.2881,8.1214,8.1053,8.1073,8.1073,8.1788,8.1929,8.1195,7.9653,7.8736,7.8736,7.646,7.5454,7.6276,7.5542,7.5087,7.5087,7.5087,7.505,7.5014,7.5014,7.505,7.5124,7.5836,7.6203,7.0382,7.8877,8.6859,8.8861,9.0473,9.1385,9.0678,8.8365,8.4688,7.872,7.2221,6.5251,5.7475,5.6202,5.9018,6.7089,7.1608,7.7028,8.5483,8.5329,8.383,8.2452,8.2243,8.2529,8.3366,8.4801,8.5777,8.6018,8.9019,9.2226,9.5468,9.5641,9.6676,9.8952,9.74,9.6676,9.7118,9.502,9.3778,9.3399,9.2019,9.1502,9.1675,9.0881,8.9985,8.9122,8.9916,8.9502,8.826,8.8295,8.8295,8.8233,8.7607,8.7263,8.7229,8.8076,8.7817,8.7141,8.7634,8.6479,8.4785,8.5036,8.5863,8.6861,8.7079,8.7202,8.7231,8.7231,8.6812,8.6211,8.554,8.5531,8.5447,8.463,8.4574,8.4646,8.4488,8.492,8.5406,8.5386,8.5281,8.517,8.5153,8.4496,8.4022,8.4223,8.4289,8.4131,8.3621,8.3609,8.3678,8.3678,8.3318,8.3014,8.2794,8.1289,8.0388,8.0388,7.8662,7.8002,7.8825,7.8075,7.7671,7.7671,7.7671,7.7341,7.6702,7.6702,7.7032,7.7635,7.7179,7.7656,7.967,8.6744,9.28,9.3176,9.33,9.2232,8.8089,8.3876,7.8399,6.9691,6.2743,5.5929,4.8443,4.8421,5.2587,6.1782,6.7722,7.4357,8.3505,8.4356,8.4179,8.4623,8.4772,8.6059,8.9114,8.9502,8.9778,9.026,8.9812,9.1157,9.4986,9.4848,9.5986,9.8814,9.7331,9.64,9.6221,9.4813,9.3606,9.2606,9.2433,9.1847,9.0985,9.0847,8.9916,8.8433,0.0,8.9329,8.7803,8.8801,8.9011,8.8658,8.8392,8.825,8.8229,8.8854,8.8757,8.8378,8.891,8.8471,8.7586,8.7208,8.7326,8.7616,8.8012,8.8161,8.8133,8.7766,8.7619,8.7331,8.6465,8.6539,8.6647,8.6161,8.6046,8.6046,8.6046,8.6733,8.7304,8.7304,8.6771,8.6334,8.6334,8.5967,8.5637,8.5637,8.5637,8.5519,8.5135,8.4793,8.4609,8.4609,8.4205,8.3785,8.3418,8.226,8.1525,8.1525,8.0021,7.947,8.0277,7.9543,7.914,7.914,7.914,7.8883,7.8405,7.8405,7.8662,7.9103,7.8993,7.9433,8.8615,9.332,9.6199,9.6094,9.5602,9.3039,8.5034,7.882,7.1763,6.1195,5.4954,4.9697,4.4129,4.5265,4.991,5.8765,6.5102,7.194,8.0666,8.3741,8.5418,8.6265,8.6286,8.7952,9.2184,9.1502,9.2192,9.5606,9.0674,8.9088,9.2709,9.2157,9.3468,9.729,9.6814,9.5779,9.4323,9.4813,9.4054,9.2019,9.3227,9.2468,9.0019,9.0467,8.8993,8.6252,8.8775,8.8496,8.6373,8.9056,8.9835,8.9296,8.9302,8.9285,8.9271,8.94,8.9385,8.93,8.9428,8.9971,9.0522,8.9715,8.8595,8.7699,8.8451,8.861,8.839,8.7675,8.7912,8.8169,8.7344,8.7692,8.8169,8.8059,8.8059,8.8059,8.8169,8.8739,8.9216,8.9106,8.7932,8.6978,8.6978,8.6978,8.6978,8.6978,8.6978,8.6738,8.604,8.5343,8.4866,8.4756,8.4756,8.4499,8.3785,8.2994,8.2517,8.2517,8.1211,8.0755,8.1452,8.0718,8.0293,8.0293,8.0183,8.011,8.011,8.0,8.0,8.0147,8.0608,8.0975,9.1389,9.4935,9.7709,9.7077,9.4022,8.9809,8.4437,7.4657,6.4162,5.5247,4.8131,4.2858,4.0508,4.4796,5.1529,6.0289,6.6932,7.243,7.6601,8.3056,8.6779,8.521,8.8142,9.1715,9.5358,9.2744,9.2847,9.7814,9.5468,9.4917,9.7469,9.6911,9.629,9.5813,9.6227,9.5779,9.4323,9.3778,9.2985,9.1985,9.1606,9.1468,9.1571,9.0398,9.0277,9.0976,9.0945,0.0,9.1321,9.1219,9.1478,9.1817,9.0696,9.016,9.0115,9.0987,9.0866,9.0373,9.1095,9.1453,9.1435,9.0565,9.0599,9.0979,9.1143,9.0702,9.0152,8.9987,8.9583,8.8996,8.8206,8.8096,8.8023,8.7362,8.7198,8.7399,8.8059,8.8316,8.8206,8.7528,8.7198,8.6978,8.6978,8.6978,8.6978,8.6978,8.6978,8.6941,8.6811,8.6664,8.6334,8.5637,8.56,8.5527,8.538,8.4646,8.4168,8.4168,8.3911,8.3838,8.3985,8.3197,8.2757,8.2757,8.2113,8.1799,8.1799,8.1122,8.1122,8.1762,8.055,8.0734,9.339,9.654,9.9104,9.7498,9.3636,8.7386,7.6643,6.6461,5.6195,4.5256,3.8725,3.4758,3.4012,3.8705,4.5977,5.6221,6.2212,6.8814,7.8071,8.1829,8.4852,8.8256,9.0537,9.2735,9.5117,9.333,9.3227,9.6255,9.5055,9.571,9.9193,9.8325,9.7359,9.6607,9.6158,9.54,9.4323,9.3916,9.3123,9.1985,9.2399,9.2192,9.1364,9.1433,9.1524,9.1632,9.174,9.0411,8.849,9.1075,9.0667,8.857,9.0433,9.114,9.11,9.16,9.1271,9.0589,9.1052,9.1179,9.1107,9.0701,9.0831,9.1179,9.1179,9.0922,9.0519,9.0097,8.9987,8.984,8.9033,8.8812,8.861,8.7839,8.7325,8.7215,8.8023,8.7876,8.7582,8.7619,8.7271,8.6978,8.6978,8.6978,8.6978,8.6978,8.6978,8.6831,8.6444,8.6738,8.6831,8.6481,8.6407,8.6261,8.5837,8.5453,8.5049,8.4646,8.4609,8.4609,8.4609,8.3821,8.3601,8.4005,8.281,8.259,8.3434,8.2223,8.226,8.3398,8.1782,8.1672,9.5146,9.8015,10.0017,9.7463,9.2863,8.4999,6.9832,5.9475,4.9679,3.7647,3.1844,2.9211,3.0186,3.411,4.0883,5.2134,5.6358,6.3366,7.822,7.9356,8.1943,9.0615,9.2183,9.3331,9.5289,9.4468,9.4365,9.5669,9.4986,9.5986,9.9228,9.8325,9.7566,9.7221,9.602,9.5124,9.4565,9.4392,9.3702,9.2502,9.3537,9.2985,9.1088,9.2189,9.2205,9.1467,9.2153,8.9733,8.5771,9.097,9.0031,8.5736,9.008,9.1803,9.1803,9.2024,9.1436,9.0665,9.1033,9.0922,9.0629,9.0812,9.0849,9.0849,9.0849,9.0849,9.0739,9.0097,9.0501,9.0922,8.9913,8.9657,8.9363,8.8206,8.7582,8.7399,8.7839,8.7582,8.7399,8.7839,8.7435,8.6978,8.6978,8.6978,8.6978,8.6978,8.6978,8.6775,8.6151,8.6628,8.6978,8.6978,8.6978,8.6738,8.6114,8.604,8.5783,8.5159,8.5123,8.5123,8.5123,8.4352,8.4205,8.4829,8.3434,8.3324,8.4609,8.3324,8.3361,8.4572,8.3287,8.3067,9.6997,9.928,9.9877,9.6796,9.0441,8.1958,7.0586,5.816,4.6683,3.849,3.259,3.0186,3.4389,3.7151,4.2091,5.2198,5.282,5.6997,7.1215,7.4705,7.9215,8.849,9.1819,9.4976,9.8981,9.7434,9.7365,10.0292,9.9711,9.8849,9.7946,9.7773,9.7083,9.5641,9.5468,9.5365,9.5296,9.4634,9.4254,9.4082,9.3468,9.2744,9.1874,9.1445,9.1715,9.2491,9.2711,9.138,0.0,9.2701,9.1657,8.8103,9.0758,9.1803,9.1913,9.2684,9.1987,9.0812,9.2354,9.1877,9.0739,9.1436,9.1693,9.1693,9.1693,9.1693,9.1657,9.1583,9.2207,9.2501,9.0922,9.0482,8.9913,8.7638,8.7619,8.7912,8.7252,8.7619,8.7912,8.7234,8.7051,8.6978,8.6978,8.6978,8.6978,8.6978,8.6978,8.6978,8.6904,8.6941,8.6978,8.6978,8.6978,8.6978,8.6904,8.6885,8.6885,8.6757,8.6757,8.6757,8.6757,8.6004,8.56,8.569,8.4829,8.4462,8.4609,8.4462,8.4462,8.4609,8.4462,8.4425,9.1635,9.5908,9.8472,9.5321,8.8346,7.8834,6.5672,5.4595,4.4413,3.4828,3.0369,2.8754,3.0572,3.2021,3.5698,4.4239,4.4148,4.8841,6.5491,6.8077,7.3703,8.8471,9.199,9.4674,9.8222,9.7296,9.6641,9.698,9.6535,9.6707,9.7641,9.7704,9.7221,9.6089,9.5606,9.522,9.4737,9.4461,9.4337,9.4469,9.4643,9.414,9.3101,9.3804,9.3583,9.279,9.3819,9.0799,0.0,9.2298,9.0924,8.5188,9.0521,9.2574,9.2574,9.2391,9.1583,9.0702,9.1363,9.1179,9.0665,9.0959,9.14,9.1803,9.1803,9.1803,9.1803,9.1803,9.2427,9.2941,9.2281,9.1363,9.0115,8.8169,8.7619,8.7399,8.7051,8.7252,8.7399,8.7051,8.6978,8.6978,8.6978,8.6978,8.6978,8.6978,8.6978,8.6978,8.6978,8.6978,8.6978,8.6978,8.6978,8.6978,8.6978,8.6978,8.6978,8.6978,8.6978,8.6978,8.6978,8.6224,8.604,8.6518,8.527,8.5086,8.604,8.5086,8.5123,8.604,8.5049,8.4866,8.5596,9.181,9.6515,9.339,8.5468,7.5028,6.1687,5.1329,4.1686,3.1809,2.8649,2.7708,2.7708,2.8157,3.1013,3.8614,3.9368,4.4697,6.1051,6.3413,6.923,8.4737,8.8019,9.0932,9.5848,9.7262,9.7437,9.6482,9.6034,9.6517,9.8181,9.8042,9.7392,9.6301,9.5754,9.5388,9.5149,9.5175,9.525,9.5374,9.5702,9.4513,9.2059,9.4388,9.3834,9.1177,9.4051,9.114,0.0,9.2426,9.1088,8.4972,9.0814,9.3088,9.3015,9.2391,9.151,9.0647,9.1179,9.1033,9.0629,9.0886,9.1326,9.1803,9.1803,9.1803,9.1803,9.1803,9.2244,9.2721,9.2721,9.151,8.9877,8.8536,8.7582,8.7051,8.7325,8.7161,8.7124,8.7601,8.7308,8.7088,8.7325,8.7178,8.6978,8.6978,8.6978,8.6978,8.6978,8.6978,8.6978,8.6978,8.6978,8.6978,8.6978,8.6978,8.6978,8.6978,8.6978,8.6978,8.6978,8.6444,8.6407,8.6978,8.5894,8.5894,8.6978,8.5857,8.5894,8.6978,8.5857,8.56,8.0133,8.7773,9.4117,9.1003,8.1488,7.0253,6.0107,4.885,3.8359,3.051,2.8263,2.7708,2.7708,2.7708,3.0207,3.7777,4.085,4.6326,5.802,6.1828,6.668,7.5569,7.8303,8.3055,9.2234,9.7946,10.1197,10.1408,10.0718,9.9999,9.9583,9.8823,9.7579,9.5787,9.5701,9.6161,9.7148,9.7171,9.7171,9.7136,9.6363,9.3109,8.7899,9.2055,9.1334,8.7177,9.2988,9.3143,0.0,9.3804,9.307,8.9565,9.2115,9.3088,9.3088,9.3088,9.2024,9.0849,9.2501,9.1987,9.0739,9.1546,9.1803,9.1803,9.1803,9.1803,9.1803,9.1803,9.1803,9.1803,9.1803,9.0629,8.9216,8.839,8.7582,8.7215,8.8023,8.7582,8.7455,8.9069,8.8078,8.7252,8.8059,8.7545,8.6978,8.6978,8.6978,8.6978,8.6978,8.6978,8.6978,8.6978,8.6978,8.6978,8.6978,8.6978,8.6978,8.6978,8.6978,8.6978,8.6978,8.6978,8.6978,8.6978,8.6978,8.6978,8.6978,8.6978,8.6978,8.6978,8.6978,8.6978,6.4794,7.0007,7.3729,7.1693,6.5619,5.8211,5.0803,4.3406,3.6357,3.0159,2.8263,2.7708,2.7708,2.7708,3.0564,3.9354,4.1253,4.579,5.783,6.2783,6.9075,7.9615,8.9217,9.6429,10.0124,9.8995,9.8762,10.0515,9.8591,9.7961,9.9514,9.9359,9.8442,9.6787,9.6751,9.6636,9.6434,9.6387,9.645,9.6645,9.5844,9.3085,8.8858,9.3069,9.26,8.8709,9.3434,9.3473,9.0537,9.463,9.3583,8.9693,9.2758,9.3565,9.3015,9.2427,9.1877,9.151,9.2024,9.184,9.1473,9.173,9.1803,9.1803,9.1803,9.1803,9.1913,9.2537,9.2189,9.1546,9.0997,9.0008,8.8854,8.7499,8.7074,8.7215,8.8023,8.7986,8.8133,8.9179,8.8519,8.7912,8.8169,8.7545,8.6978,8.6978,8.6978,8.6978,8.6978,8.6978,8.6978,8.6978,8.6978,8.6978,8.6978,8.6978,8.6978,8.6978,8.6978,8.6978,8.6978,8.6978,8.6978,8.6978,8.6978,8.6978,8.6978,8.6978,8.6978,8.6978,8.6978,8.6978,5.2734,5.8702,6.267,6.1441,5.6385,5.0452,4.5712,3.9543,3.3608,2.9316,2.9211,2.9449,2.7982,2.8895,3.152,3.6469,4.0217,4.5348,5.356,5.9823,6.7536,7.8165,8.9382,9.7495,10.071,9.9554,9.9268,10.0883,9.8789,9.8287,10.0196,9.9439,9.8645,9.7959,9.7853,9.7327,9.6336,9.6603,9.6508,9.604,9.5256,9.274,8.8981,9.3124,9.2794,8.9091,9.3876,9.4611,0.0,9.5217,9.4427,9.1822,9.3308,9.3529,9.2978,9.2134,9.1803,9.1803,9.1803,9.1803,9.1803,9.1803,9.1803,9.1803,9.1803,9.1803,9.1913,9.2464,9.2152,9.1565,9.1052,9.0099,8.8946,8.7956,8.7348,8.7308,8.8426,8.8117,8.8082,8.9583,8.8649,8.7752,8.8115,8.7766,8.7344,8.7051,8.7234,8.7362,8.7014,8.6978,8.7012,8.7118,8.7098,8.7115,8.72,8.7064,8.6978,8.6978,8.7046,8.7098,8.7098,8.7098,8.7098,8.7098,8.7049,8.6978,8.6978,8.6978,8.6978,8.6978,8.6978,8.6978,0.0,5.2102,5.8,5.7228,5.1575,4.5689,4.35,3.6804,0.0,2.8586,3.1028,3.2423,2.893,3.1371,3.3257,3.123,3.8679,4.5324,4.6994,5.5157,6.4276,7.321,8.2164,8.9822,9.5548,9.9671,10.2095,10.2189,10.0903,10.0506,10.14,9.9311,9.8374,9.8978,9.888,9.8147,9.6795,9.7419,9.6869,9.5125,9.4446,9.1877,8.7877,9.2244,9.206,0.0,9.4189,9.6208,9.5565,9.5528,9.5455,9.5235,9.3712,9.3051,9.2905,9.2097,9.1803,9.1785,9.1803,9.1803,9.1785,9.1803,9.1803,9.1803,9.1803,9.1803,9.1803,9.1803,9.1767,9.1712,9.1712,9.0501,8.9308,8.9308,8.8152,8.7491,8.9069,8.8065,8.7628,9.0116,8.8578,8.7206,8.8098,8.828,8.8023,8.7198,8.7766,8.7986,8.7232,8.7122,8.7191,8.7378,8.7375,8.7368,8.7497,8.7234,8.7029,8.7029,8.72,8.7285,8.7285,8.7285,8.7285,8.7285,8.7115,8.7012,8.7012,8.7012,8.6995,8.6978,8.6978,8.6978,3.3986,0.0,3.9452,3.8058,3.6348,3.4873,0.0,3.1712,3.0124,3.2555,3.3275,3.3581,3.3836,3.6031,3.8031,3.8775,4.3471,4.8023,5.0918,6.4551,7.562,7.9332,9.126,9.7897,9.4647,9.966,10.2598,10.1488,10.1791,10.16,10.0593,9.9989,9.9255,9.819,9.8727,9.856,9.764,9.6575,9.4573,9.1583,9.2115,8.9183,8.3446,9.0264,9.1767,8.9202,9.3803,9.6025,9.6392,9.5749,9.5144,9.4483,9.3492,9.2684,9.206,9.1877,9.1712,9.1601,9.1749,9.1712,9.1601,9.1767,9.1803,9.1803,9.1803,9.1803,9.1803,9.1803,9.1272,9.0722,9.0722,8.9495,8.8233,8.8233,8.8101,8.8206,8.9179,8.9071,8.9126,9.0354,8.9621,8.8833,8.9069,8.9106,8.8849,8.8059,8.8592,8.8865,8.8213,8.8137,8.8205,8.8428,8.7854,8.7464,8.7497,8.7431,8.7382,8.7382,8.7415,8.7448,8.7448,8.7448,8.7448,8.7448,8.7398,8.7352,8.7237,8.7237,8.7169,8.6978,8.6978,8.6978,3.0799,3.1809,3.2748,3.4056,3.2765,3.1747,3.388,3.1528,2.9983,3.3889,3.4056,3.3766,3.4582,3.5652,3.7085,3.9045,4.1916,4.7161,5.6514,6.7205,7.6217,8.196,8.9599,9.4683,9.541,10.0097,10.279,10.1915,10.1685,10.1384,10.0927,9.9805,9.8961,9.8484,9.7823,9.7236,9.6795,9.6318,9.3784,8.9349,9.1767,8.9989,8.4816,9.1254,9.3436,9.2152,9.2867,9.4298,9.5932,9.3197,9.2739,9.3675,9.2739,9.2078,9.1657,9.1564,9.1527,9.1527,9.1638,9.1657,9.1657,9.1767,9.1546,9.1326,9.1693,9.1546,9.1326,9.1693,9.1437,9.096,9.0594,8.955,8.8597,8.8597,8.8375,8.8426,8.9216,8.9328,8.942,8.9932,8.9622,8.931,8.9382,8.9693,8.9692,8.899,8.9578,8.9869,8.9266,8.9172,8.9092,8.8906,8.8479,8.8067,8.7815,8.7778,8.7713,8.7514,8.7579,8.7649,8.7649,8.7649,8.7579,8.7514,8.7514,8.7464,8.7402,8.7402,8.7301,8.7152,8.7152,8.71,3.0904,3.1466,3.2485,3.6408,3.4266,3.23,3.6434,3.3108,3.0334,3.4697,3.5048,3.4592,3.4704,3.5762,3.6795,3.7286,4.0076,4.7646,6.3258,6.8679,7.417,8.2592,8.5686,8.9657,9.6045,10.0293,10.2575,10.2522,10.109,10.0503,10.109,9.9091,9.8154,9.8741,9.674,9.5602,9.5492,9.5951,9.3527,8.8397,9.2134,9.1914,8.836,9.3124,9.5327,9.5161,9.239,0.0,9.4978,9.0612,9.0484,9.2996,9.1949,9.1564,9.1546,9.1358,9.1396,9.1508,9.1508,9.1528,9.1657,9.1767,9.1253,9.0739,9.1546,9.1326,9.0922,9.162,9.1803,9.1657,9.0959,9.017,8.9546,8.9436,8.8959,8.872,8.929,8.9348,8.9367,8.9547,8.9458,8.9367,8.9565,9.028,9.0626,8.9993,9.069,9.1072,9.0301,9.0335,9.0106,8.9292,8.9123,8.878,8.8158,8.8084,8.7937,8.7595,8.7746,8.7863,8.7863,8.7863,8.7762,8.7595,8.7579,8.7579,8.7546,8.7546,8.7448,8.7318,8.7321,8.722,3.1423,3.266,3.3327,3.403,3.2695,3.1739,3.3757,3.1976,3.1774,3.8279,3.9519,3.9582,4.0097,4.6481,4.9159,4.1579,4.8787,5.9387,7.0944,7.8333,8.245,8.2151,9.3201,9.867,9.3047,9.8679,10.2412,10.1677,10.0796,10.0099,9.9512,9.8484,9.764,9.7089,9.6722,9.6208,9.5492,9.4263,9.2427,9.0045,9.1473,9.107,8.9148,9.2794,9.4483,9.4483,0.0,9.4648,9.4373,9.2923,9.2629,9.3015,9.2097,9.1767,9.1767,9.173,9.1638,9.1508,9.1508,9.1199,9.0922,9.1583,9.1253,9.0739,9.1546,9.1693,9.1657,9.1767,9.1803,9.1767,9.1657,9.1033,9.0244,8.9546,8.984,9.0078,8.951,8.9896,9.0373,9.0391,9.0373,9.0373,9.0391,9.1195,9.1614,9.0839,9.2122,9.274,9.1448,9.1872,9.1754,9.0397,8.965,8.8944,8.8158,8.8084,8.8068,8.8021,8.8037,8.8053,8.8053,8.8053,8.8037,8.8021,8.8021,8.7905,8.7746,8.7746,8.7665,8.7464,8.7352,8.7288,2.9351,3.0448,3.2028,3.6217,3.547,3.5081,4.0316,3.6225,3.3993,4.3442,4.0087,3.7061,4.2219,4.6202,4.942,5.151,6.2433,7.2168,7.6497,8.0749,8.4154,8.6169,9.2427,9.5817,9.3743,9.8313,10.12,10.0907,10.0099,9.9512,9.9125,9.7933,9.7089,9.6722,9.5437,9.4777,9.485,9.3675,9.1987,8.977,9.25,9.2189,8.9294,9.228,9.3639,9.3565,0.0,9.162,9.2794,9.0612,9.0777,9.2354,9.184,9.1657,9.1583,9.1162,9.0924,9.0795,9.0484,9.0172,9.006,9.0886,9.0629,9.017,9.1436,9.151,9.1253,9.1693,9.1803,9.1693,9.1253,9.0886,9.0408,8.9583,8.9987,9.0391,8.9583,9.0354,9.1106,9.0702,9.0959,9.1289,9.1397,9.2185,9.2585,9.1966,9.3327,9.4077,9.3078,9.328,9.3091,9.1985,9.0722,8.9607,8.8827,8.836,8.8084,8.8084,8.8084,8.8084,8.8084,8.8084,8.8084,8.8084,8.8084,8.8053,8.7974,8.7974,8.7842,8.7665,8.76,8.7452,2.8122,2.8965,3.1036,3.7717,3.69,3.7096,4.7162,4.0992,3.6566,4.8614,4.3021,3.8159,4.542,4.6595,5.0354,6.2181,7.3691,8.1593,8.2921,8.4482,8.715,9.1792,9.2414,9.347,9.6126,9.8406,9.9805,9.9989,9.9108,9.8631,9.8814,9.7309,9.6428,9.6428,9.4446,9.3675,9.4299,9.3492,9.2189,9.0411,9.3289,9.3124,9.0447,9.2079,9.2941,9.2923,8.9696,8.9604,9.162,8.9036,8.9494,9.1785,9.1638,9.1583,9.1509,9.0887,9.0649,9.0594,9.0116,8.984,8.9803,9.0629,9.0317,8.995,9.1363,9.1363,9.1033,9.162,9.1803,9.1657,9.1033,9.0886,9.0702,8.9877,9.0316,9.0719,8.9911,9.0902,9.1764,9.1122,9.1544,9.2058,9.2403,9.3063,9.3445,9.3279,9.4496,9.5138,9.4309,9.4362,9.4028,9.2802,9.139,9.009,8.9087,8.8455,8.8084,8.8084,8.8084,8.8084,8.8084,8.8084,8.8084,8.8084,8.8084,8.8084,8.8084,8.8084,8.8021,8.7879,8.781,8.7649,2.9948,3.101,3.1844,3.5275,3.331,3.4433,4.9434,4.3781,3.9274,5.298,5.2703,5.0522,5.2518,5.4331,5.941,7.1148,7.7536,8.3883,9.2115,9.4628,9.6332,9.8239,9.8462,9.8868,9.9822,9.8814,9.8374,9.9145,9.775,9.7199,9.7953,9.6465,9.5565,9.5565,9.4703,9.4226,9.4299,9.3492,9.3382,9.3914,9.2648,9.2721,9.3896,9.2574,9.2391,9.3088,9.2776,9.2299,9.1767,9.1546,9.1583,9.1803,9.1785,9.1785,9.1785,9.1712,9.1675,9.1675,9.1657,9.1143,9.0665,9.1436,9.1179,9.0665,9.1546,9.1767,9.173,9.1767,9.1803,9.1803,9.173,9.1693,9.151,9.0702,9.1269,9.1779,9.0969,9.1625,9.2338,9.2264,9.2338,9.2596,9.3352,9.3694,9.4111,9.4832,9.584,9.5943,9.44,9.4845,9.44,9.2059,9.1019,8.9867,8.8323,8.8121,8.8084,8.8084,8.8084,8.8084,8.8084,8.8084,8.8084,8.8084,8.8084,8.8084,8.8084,8.8084,8.8084,8.8068,8.7895,8.7778,2.721,2.8954,3.1829,3.7898,3.5709,3.5727,4.9651,4.798,4.7096,5.976,5.7668,5.3887,5.5095,6.1552,6.8744,7.502,8.2606,8.9423,9.4335,9.5584,9.6539,9.8154,9.7897,9.775,9.8043,9.7493,9.7273,9.7566,9.6766,9.6603,9.7432,9.614,9.5378,9.5378,9.4582,9.3953,9.3418,9.3122,9.29,9.2678,9.2075,9.2134,9.2721,9.1583,9.1253,9.1546,9.1546,9.1363,9.1106,9.1583,9.1803,9.1803,9.1803,9.1803,9.173,9.1253,9.1069,9.0996,9.0464,9.0097,8.9987,9.0812,9.0849,9.0757,9.1691,9.1894,9.184,9.1948,9.1984,9.1984,9.1984,9.1984,9.1836,9.1132,9.1662,9.2083,9.1272,9.1767,9.2409,9.2409,9.2409,9.2518,9.2971,9.3946,9.4624,9.4542,9.6186,9.7,9.5848,9.5514,9.5031,9.4102,9.2356,9.0573,8.8976,8.8827,8.8641,8.8121,8.8084,8.8084,8.8084,8.8084,8.8084,8.8084,8.8084,8.8084,8.8084,8.8084,8.8084,8.8084,8.8021,8.7927,2.5946,2.7467,3.0605,3.7897,3.7145,3.8289,5.2242,5.2059,5.2711,6.5935,6.4689,6.1136,6.0832,6.7395,7.3739,7.6524,8.4258,9.1033,9.4281,9.496,9.5659,9.7114,9.6582,9.6251,9.6584,9.6161,9.5976,9.6234,9.5715,9.5746,9.656,9.5509,9.492,9.492,9.414,9.3471,9.2897,9.2571,9.2146,9.1606,9.1604,9.1688,9.1757,9.1081,9.0918,9.1175,9.105,9.0996,9.1033,9.1583,9.184,9.1894,9.1894,9.1783,9.158,9.1285,9.1028,9.0771,9.044,9.0366,9.044,9.0991,9.1175,9.1303,9.1997,9.2091,9.202,9.2145,9.218,9.2198,9.225,9.2233,9.2105,9.1673,9.2055,9.2348,9.1793,9.2141,9.2582,9.2582,9.2582,9.2707,9.3122,9.4103,9.4747,9.4606,9.6034,9.6814,9.596,9.5365,9.4808,9.4288,9.2728,9.1167,8.9793,8.9459,8.905,8.8493,8.8233,8.8084,8.8084,8.8084,8.8084,8.8084,8.8084,8.8084,8.8084,8.8084,8.8084,8.8084,8.8084,8.799,2.7111,2.721,2.8077,3.4133,3.6689,4.1884,5.7839,5.5808,5.5044,7.0965,7.4744,7.4197,7.0818,7.1646,7.3583,7.5954,8.1663,8.7545,9.2427,9.3786,9.4706,9.5827,9.5272,9.523,9.6374,9.5014,9.442,9.522,9.4531,9.442,9.5257,9.4531,9.4102,9.4102,9.3322,9.2914,9.2881,9.1878,9.1387,9.1387,9.1256,9.1394,9.1671,9.1361,9.1634,9.2392,9.1984,9.1822,9.1822,9.1822,9.193,9.2091,9.2091,9.1736,9.1301,9.2077,9.1892,9.1301,9.2114,9.2373,9.2409,9.2409,9.2409,9.2409,9.2409,9.2409,9.2409,9.2409,9.2409,9.2461,9.265,9.2547,9.2427,9.2427,9.2565,9.2684,9.2684,9.2872,9.2988,9.2988,9.2988,9.3248,9.4065,9.4177,9.4474,9.5254,9.5403,9.5105,9.4288,9.4214,9.3545,9.1873,9.1725,9.139,9.0573,8.9793,8.931,8.931,8.853,8.81,8.8084,8.8084,8.8084,8.8084,8.8084,8.8084,8.8084,8.8084,8.8084,8.8084,8.8084,8.8006,2.9535,2.9706,3.0714,3.7043,4.1588,4.7137,5.7172,5.9585,6.3189,7.5566,7.6973,7.4882,7.1559,7.6961,8.1053,7.8348,8.4258,9.0078,9.2721,9.3308,9.3676,9.4258,9.4108,9.3731,9.3161,9.3194,9.3103,9.2732,9.2737,9.3317,9.4603,9.4137,9.403,9.4516,9.3733,9.3024,9.2411,9.0985,9.0261,9.0261,9.0215,9.0626,9.1344,9.1833,9.2151,9.2373,9.166,9.1699,9.2178,9.1625,9.1771,9.2249,9.1695,9.1361,9.1228,9.1486,9.1412,9.1228,9.1486,9.1929,9.2409,9.2409,9.2409,9.2444,9.2565,9.2513,9.2444,9.2565,9.2599,9.2616,9.2667,9.2751,9.2838,9.2838,9.2872,9.2922,9.2922,9.2955,9.2988,9.2988,9.2988,9.3062,9.3322,9.3842,9.4288,9.4511,9.5031,9.5105,9.4288,9.4214,9.3805,9.2728,9.2616,9.2282,9.1428,9.113,9.0499,8.9347,8.9087,8.8678,8.8121,8.8084,8.8084,8.8084,8.8084,8.8084,8.8084,8.8084,8.8084,8.8084,8.8084,8.8068,3.0972,3.1994,3.4563,4.3422,4.7382,5.1506,6.0635,6.5756,7.1318,8.1142,8.147,7.9497,7.7835,8.2076,8.4939,8.237,8.6554,9.0464,9.1492,9.1638,9.1818,9.2306,9.2374,9.215,9.1666,9.2048,9.2144,9.1585,9.1769,9.2263,9.3081,9.2855,9.2885,9.3218,9.2769,9.2097,9.126,9.0527,9.0011,8.9675,8.9614,8.9888,9.0485,9.13,9.167,9.1616,9.1,9.1006,9.1412,9.0932,9.104,9.1478,9.0997,9.0678,9.0485,9.0819,9.0708,9.0485,9.0819,9.1263,9.167,9.167,9.167,9.1724,9.2158,9.2236,9.2205,9.2694,9.2838,9.2838,9.2838,9.2922,9.2988,9.2988,9.2988,9.2988,9.2988,9.2988,9.2988,9.2988,9.2988,9.2988,9.2988,9.3397,9.3731,9.3731,9.414,9.4251,9.3768,9.3731,9.3545,9.3062,9.2988,9.2802,9.2245,9.191,9.1279,9.0313,8.9942,8.9421,8.8604,8.827,8.8084,8.8084,8.8084,8.8084,8.8084,8.8084,8.8084,8.8084,8.8084,8.8053,3.2407,3.4586,3.9046,5.0961,5.3299,5.5837,6.772,7.356,7.8662,8.6481,8.6811,8.604,8.7124,8.6738,8.6444,8.7088,8.8482,8.9473,8.9473,8.9436,8.9644,9.0312,9.0499,9.082,9.1337,9.1371,9.1371,9.1296,9.1259,9.121,9.1073,9.1073,9.1021,9.0968,9.0803,9.037,8.9661,9.0106,8.9917,8.9135,8.9017,8.9013,8.9087,8.9979,9.035,9.026,9.0045,8.9838,8.9727,8.9801,8.9921,9.0107,9.0107,8.976,8.9384,9.0127,8.9942,8.9384,9.0127,9.0424,9.0499,9.0499,9.0499,9.0647,9.1465,9.1688,9.1873,9.2728,9.2988,9.2988,9.2988,9.2988,9.2988,9.2988,9.2988,9.2988,9.2988,9.2988,9.2988,9.2988,9.2988,9.2988,9.2988,9.2988,9.2988,9.2988,9.2988,9.2988,9.2988,9.2988,9.2988,9.2988,9.2988,9.2988,9.2988,9.2282,9.1799,9.1725,9.1019,9.0239,8.9421,8.8641,8.8174,8.8084,8.8084,8.8084,8.8084,8.8084,8.8084,8.8084,8.8084,8.8006,3.8822,3.9959,4.1638,4.931,5.5864,6.4209,7.8846,8.055,8.0587,8.6114,8.5967,8.5894,8.9234,8.9674,8.9417,8.8959,8.9528,9.0041,9.0041,8.9657,8.9427,8.9564,9.0642,9.1124,9.0549,9.0494,9.0231,8.9592,8.9517,8.9704,9.0087,9.0109,9.0272,9.0589,8.9383,8.8654,8.8468,8.7306,8.6622,8.6436,8.639,8.6709,8.7378,8.8864,8.9198,8.8641,8.9193,8.8716,8.7529,8.8234,8.8896,8.9485,8.9485,8.939,8.931,8.9496,8.9459,8.931,8.9496,8.9979,9.0499,9.0499,9.0499,9.0647,9.1465,9.1688,9.1873,9.2728,9.2988,9.2988,9.2988,9.2988,9.2988,9.2988,9.2988,9.2988,9.2988,9.2988,9.2988,9.2988,9.2988,9.2988,9.2988,9.2988,9.2988,9.2988,9.2988,9.2988,9.2988,9.2988,9.2988,9.2988,9.2988,9.2988,9.2988,9.2839,9.2431,9.1725,9.1539,9.1093,9.0276,8.9459,8.8716,8.81,8.8084,8.8084,8.8084,8.8084,8.8084,8.8084,8.8084,8.8068,3.7519,4.1433,4.6812,5.7211,6.57,7.3413,8.0681,8.2517,8.3634,8.6921,8.6921,8.7068,8.9546,8.9693,8.9307,8.8904,8.8877,8.8856,8.8664,8.8618,8.8612,8.8678,8.9457,8.99,8.9663,8.963,8.9442,8.9029,8.8992,8.8894,8.8725,8.8637,8.8488,8.8282,8.7387,8.6895,8.6895,8.6041,8.5595,8.5595,8.4815,8.4495,8.4592,8.7007,8.7638,8.6932,8.7341,8.7044,8.6264,8.6709,8.7155,8.7527,8.7527,8.775,8.8084,8.8084,8.8381,8.8716,8.8716,8.9013,8.9347,8.9347,8.9347,8.9496,9.0313,9.0833,9.1316,9.2133,9.2691,9.2988,9.2988,9.2988,9.2988,9.2988,9.2988,9.2988,9.2988,9.2988,9.2988,9.2988,9.2988,9.2988,9.2988,9.2988,9.2988,9.2988,9.2988,9.2988,9.2988,9.2988,9.2988,9.2988,9.2988,9.2988,9.2988,9.2988,9.2802,9.2356,9.2319,9.1948,9.1093,9.0685,8.9904,8.8678,8.8678,8.8493,8.8084,8.8084,8.8084,8.8084,8.8084,8.8084,3.4185,4.189,5.2541,6.678,7.4661,7.9066,7.936,8.2553,8.5857,8.7288,8.7912,8.8463,8.9253,8.8739,8.8224,8.8293,8.77,8.7226,8.7231,8.7612,8.7978,8.8164,8.8331,8.8583,8.8964,8.8879,8.8804,8.8804,8.8654,8.8209,8.7314,8.7148,8.6615,8.5604,8.5447,8.5335,8.5186,8.5038,8.4963,8.4963,8.3641,8.2563,8.1857,8.4666,8.5669,8.5186,8.5335,8.5298,8.5186,8.5335,8.5372,8.5409,8.5558,8.6004,8.6598,8.6747,8.7267,8.7898,8.8062,8.8084,8.8084,8.8084,8.8084,8.827,8.9198,8.9979,9.0685,9.165,9.2431,9.2988,9.2988,9.2988,9.2988,9.2988,9.2988,9.2988,9.2988,9.2988,9.2988,9.2988,9.2988,9.2988,9.2988,9.2988,9.2988,9.2988,9.2988,9.2988,9.2988,9.2988,9.2988,9.2988,9.2988,9.2988,9.2988,9.2988,9.2988,9.2988,9.2988,9.2691,9.1948,9.191,9.1242,8.9756,8.9421,8.8901,8.8084,8.8084,8.8084,8.8084,8.8084,8.8084,3.4992,4.4473,5.6448,6.8201,7.0991,7.2936,8.0922,8.3434,8.4278,8.4939,8.6738,8.8463,8.9253,8.8739,8.8311,8.8582,8.7271,8.6645,8.7954,8.8525,8.8851,8.8879,8.8908,8.8936,8.8992,8.8353,8.7978,8.7978,8.7264,8.6653,8.6311,8.6268,8.5751,8.4637,8.457,8.4235,8.3529,8.2823,8.2489,8.2489,8.2266,8.1709,8.0914,8.2117,8.2972,8.3566,8.4272,8.4146,8.3566,8.4257,8.4555,8.4629,8.5335,8.5669,8.5855,8.6524,8.6858,8.7081,8.7824,8.8084,8.8084,8.8084,8.8084,8.8381,8.9867,9.0424,9.0833,9.2393,9.2914,9.2988,9.2988,9.2988,9.2988,9.2988,9.2988,9.2988,9.2988,9.2988,9.2988,9.2988,9.2988,9.2988,9.2988,9.2988,9.2988,9.2988,9.2988,9.2988,9.2988,9.2988,9.2988,9.2988,9.2988,9.2988,9.2988,9.2988,9.2988,9.2988,9.2988,9.2951,9.2839,9.2839,9.2356,9.139,9.0016,8.8901,8.8084,8.8084,8.8084,8.8084,8.8084,8.8084,4.0128,4.5957,5.3124,6.8926,7.0624,6.983,7.5175,7.7671,7.98,8.3197,8.5123,8.6444,8.7215,8.7105,8.6968,8.7304,8.6841,8.644,8.6497,8.7426,8.7978,8.764,8.7339,8.7152,8.7152,8.7114,8.7049,8.6967,8.6592,8.5895,8.4751,8.4651,8.3983,8.2659,8.2427,8.2183,8.1898,8.1492,8.104,8.0594,8.0594,8.0148,7.9368,8.0222,8.104,8.1857,8.2712,8.286,8.26,8.3418,8.3752,8.3752,8.4109,8.4518,8.4963,8.5298,8.5743,8.6189,8.6561,8.6969,8.7378,8.7378,8.7712,8.8323,8.9459,8.983,9.0164,9.1799,9.2282,9.2393,9.2876,9.2988,9.2988,9.2988,9.2988,9.2988,9.2988,9.2988,9.2988,9.2988,9.2988,9.2988,9.2988,9.2988,9.2988,9.2988,9.2988,9.2988,9.2988,9.2988,9.2988,9.2988,9.2988,9.2988,9.2988,9.2988,9.2988,9.2988,9.2988,9.2988,9.2988,9.2988,9.2579,9.1725,9.0573,8.957,8.8753,8.8323,8.8084,8.8084,8.8084,8.8084,4.1365,4.4152,4.7324,6.3798,6.715,6.6696,6.7687,7.0587,7.4515,7.9564,8.2113,8.3651,8.4505,8.5117,8.5642,8.6068,8.6137,8.5938,8.5481,8.6041,8.636,8.595,8.5684,8.5384,8.4899,8.5435,8.5681,8.5426,8.5197,8.4441,8.3055,8.2864,8.2188,8.0803,8.0707,8.0562,8.0228,8.013,7.9814,7.9219,7.9219,7.8996,7.8625,7.9219,7.9851,8.0445,8.13,8.1671,8.1709,8.234,8.2563,8.26,8.2823,8.3269,8.3864,8.4257,8.4778,8.5298,8.5521,8.6004,8.6524,8.6747,8.723,8.7935,8.8976,8.931,8.957,9.1019,9.1539,9.1836,9.2505,9.2839,9.2988,9.2988,9.2988,9.2988,9.2988,9.2988,9.2988,9.2988,9.2988,9.2988,9.2988,9.2988,9.2988,9.2988,9.2988,9.2988,9.2988,9.2988,9.2988,9.2988,9.2988,9.2988,9.2988,9.2988,9.2988,9.2988,9.2988,9.2988,9.2988,9.2988,9.2691,9.2059,9.1205,9.0313,8.931,8.8678,8.8307,8.8084,8.8053,8.8053,3.4066,3.7101,4.0245,4.8827,5.7073,6.2462,6.0297,6.409,6.9009,7.2386,7.679,8.0388,8.1422,8.3279,8.4878,8.5547,8.4849,8.4725,8.606,8.4959,8.4039,8.421,8.4741,8.4451,8.2745,8.3391,8.3664,8.3033,8.2165,8.1559,8.1337,8.12,8.0638,7.9619,8.0297,7.9962,7.8453,7.8439,7.8402,7.8364,7.8364,7.8736,7.9442,7.9479,7.9516,7.9628,8.0408,8.0765,8.0765,8.0802,8.084,8.0914,8.1746,8.208,8.2303,8.3864,8.4406,8.4555,8.5335,8.5632,8.5781,8.6561,8.6821,8.7155,8.879,8.931,8.9459,9.0313,9.1093,9.1725,9.1762,9.2393,9.2988,9.2988,9.2988,9.2988,9.2988,9.2988,9.2988,9.2988,9.2988,9.2988,9.2988,9.2988,9.2988,9.2988,9.2988,9.2988,9.2988,9.2988,9.2988,9.2988,9.2988,9.2988,9.2988,9.2988,9.2988,9.2988,9.2988,9.2988,9.2988,9.2988,9.2988,9.2914,9.2096,9.087,8.931,8.9273,8.8827,8.8084,8.7911,8.7927,3.4212,3.2804,3.1741,4.142,4.4614,4.6369,5.0321,5.6966,6.2891,6.5171,7.2893,7.8625,7.6488,7.9477,8.2734,8.4085,8.3811,8.358,8.388,8.3423,8.265,8.1653,8.2171,8.1984,8.0443,8.0991,8.1114,8.0366,7.7454,7.6604,7.8576,7.61,7.5503,7.7319,7.7561,7.7368,7.6692,7.6692,7.6692,7.6692,7.725,7.7696,7.7993,7.8476,7.8736,7.8736,7.9033,7.9442,7.9948,8.0468,8.0691,8.0728,8.1025,8.1188,8.1263,8.1806,8.2377,8.2898,8.3195,8.396,8.4963,8.5781,8.6375,8.7118,8.879,8.8938,8.879,9.0127,9.0722,9.1056,9.1576,9.2356,9.2988,9.2988,9.2988,9.2988,9.2988,9.2988,9.2988,9.2988,9.2988,9.2988,9.2988,9.2988,9.2988,9.2988,9.2988,9.2988,9.2988,9.2988,9.2988,9.2988,9.2988,9.2988,9.2988,9.2988,9.2988,9.2988,9.2988,9.2988,9.2988,9.2988,9.2988,9.2988,9.2691,9.1725,9.0053,8.9533,8.8817,8.7927,8.781,8.7762,3.1703,2.9125,2.7027,3.4859,3.5553,3.5813,4.1572,5.0301,5.7678,5.9375,6.9134,7.6682,7.4435,7.6846,7.9889,8.2007,8.1885,8.1485,8.1385,8.1125,8.0526,7.944,7.9723,7.9575,7.8416,7.8916,7.8965,7.8179,7.5495,7.4786,7.6875,7.4299,7.3789,7.599,7.5712,7.562,7.5801,7.554,7.554,7.5801,7.6395,7.6804,7.7138,7.7919,7.829,7.8327,7.8587,7.8847,7.9145,7.9665,7.9888,7.9925,8.0185,8.0282,8.0357,8.0928,8.1523,8.2043,8.2303,8.3121,8.4161,8.5261,8.5966,8.6709,8.8381,8.853,8.8323,8.9384,8.9904,9.0276,9.1093,9.2133,9.2988,9.2988,9.2988,9.2988,9.2988,9.2988,9.2988,9.2988,9.2988,9.2988,9.2988,9.2988,9.2988,9.2988,9.2988,9.2988,9.2988,9.2988,9.2988,9.2988,9.2988,9.2988,9.2988,9.2988,9.2988,9.2988,9.2988,9.2988,9.2988,9.2988,9.2988,9.2988,9.2988,9.2319,9.0907,9.009,8.9209,8.8281,8.7958,8.7665,0.0,0.0,0.0,2.8734,3.0435,3.2212,3.4505,4.4256,5.3287,5.4961,6.5139,7.4122,7.5288,7.5554,7.6485,7.9263,7.8959,7.8474,7.8827,7.8178,7.7679,7.7604,7.7641,7.7355,7.6689,7.7205,7.7292,7.6564,7.6268,7.6194,7.6306,7.6054,7.5859,7.5726,7.4983,7.4946,7.5726,7.4946,7.4946,7.5726,7.5763,7.6209,7.7064,7.7844,7.8216,7.8253,7.907,7.8996,7.8253,7.829,7.829,7.8364,7.9182,7.9479,7.9665,8.13,8.1894,8.2043,8.286,8.3158,8.3418,8.5038,8.5558,8.5892,8.7564,8.81,8.8084,8.8084,8.8694,8.9496,9.035,9.1762,9.2988,9.2988,9.2988,9.2988,9.2988,9.2988,9.2988,9.2988,9.2988,9.2988,9.2988,9.2988,9.2988,9.2988,9.2988,9.2988,9.2988,9.2988,9.2988,9.2988,9.2988,9.2988,9.2988,9.2988,9.2988,9.2988,9.2988,9.2988,9.2988,9.2988,9.2988,9.2988,9.2988,9.2579,9.1725,9.0945,9.0127,8.9273,8.8265,8.7583,2.7567,0.0,0.0,0.0,0.0,0.0,3.0718,3.7956,4.5147,4.7417,5.7711,6.6803,6.8481,7.221,7.5103,7.5433,7.6558,7.7497,7.7825,7.7599,7.6974,7.573,7.6025,7.5865,7.4723,7.5297,7.5396,7.4623,7.1806,7.1373,7.4213,7.4286,7.4235,7.4197,7.4011,7.3922,7.4054,7.3831,7.3831,7.4054,7.4649,7.5057,7.5318,7.6135,7.6507,7.6544,7.7398,7.7621,7.7473,7.8067,7.829,7.8327,7.855,7.8625,7.8699,7.9145,7.9702,8.0297,8.11,8.182,8.26,8.422,8.5112,8.5781,8.6821,8.7601,8.8084,8.8084,8.8843,9.0032,9.1836,9.2653,9.2988,9.2988,9.2988,9.2988,9.2988,9.2988,9.2988,9.2988,9.2988,9.2988,9.2988,9.2988,9.2988,9.2988,9.2988,9.2988,9.2988,9.2988,9.2988,9.2988,9.2988,9.2988,9.2988,9.2988,9.2988,9.2988,9.2988,9.2988,9.2988,9.2988,9.2988,9.2988,9.2988,9.2876,9.2653,9.1762,9.0583,8.9044,8.7973,8.7285,0.0,0.0,0.0,2.903,0.0,0.0,2.9115,3.5908,4.2463,4.3575,5.3957,6.2609,6.2005,6.5259,6.8164,6.8599,6.9916,7.2061,7.5495,7.5619,7.5083,7.4474,7.4447,7.4274,7.3827,7.4213,7.4288,7.384,7.1573,7.1227,7.3478,7.3615,7.3552,7.3539,7.3539,7.3463,7.3385,7.3385,7.3385,7.3423,7.3868,7.4091,7.4128,7.4946,7.5318,7.5355,7.6209,7.6544,7.6618,7.7473,7.7993,7.829,7.829,7.8513,7.8847,7.9182,7.9851,8.0668,8.1448,8.208,8.2786,8.4384,8.5223,8.5818,8.6969,8.7712,8.8084,8.8084,8.8806,8.9883,9.1258,9.2022,9.2319,9.1762,9.2319,9.2914,9.2542,9.2728,9.2988,9.2988,9.2988,9.2988,9.2988,9.2988,9.2988,9.2988,9.2988,9.2988,9.2988,9.2988,9.2988,9.2988,9.2988,9.2988,9.2988,9.2988,9.2988,9.2988,9.2988,9.2988,9.2988,9.2988,9.2988,9.2988,9.2988,9.2988,9.2988,9.2133,9.0822,8.9113,8.8023,8.7385,0.0,0.0,0.0,0.0,3.0033,0.0,2.8967,3.571,4.1862,4.1645,5.1065,5.8452,5.5564,5.6519,5.8316,6.0051,6.0917,6.3985,7.1625,7.2545,7.2459,7.2645,7.2533,7.2683,7.3429,7.3479,7.3479,7.3467,7.3579,7.3604,7.3565,7.3589,7.3501,7.3385,7.3385,7.3385,7.3385,7.3385,7.3385,7.3385,7.3385,7.3385,7.3423,7.4128,7.4463,7.45,7.5318,7.5689,7.5726,7.6692,7.751,7.8179,7.8253,7.881,7.9591,8.0282,8.11,8.1969,8.2786,8.3083,8.3343,8.4852,8.5372,8.5743,8.723,8.7787,8.7973,8.8047,8.8604,8.9236,8.9623,9.0573,9.1205,9.0127,9.1316,9.2468,9.165,9.2208,9.2839,9.2839,9.2914,9.2988,9.2988,9.2988,9.2988,9.2988,9.2988,9.2988,9.2988,9.2988,9.2988,9.2988,9.2988,9.2988,9.2988,9.2988,9.2988,9.2988,9.2988,9.2988,9.2988,9.2988,9.2988,9.2988,9.2988,9.2988,9.2988,9.2022,9.0817,8.939,8.8303,8.7697,0.0,0.0,0.0,0.0,0.0,0.0,2.8592,3.0095,3.2948,3.656,3.9877,4.3534,4.8135,5.0846,5.2548,5.3064,5.4373,5.7823,6.4782,6.891,6.983,6.6049,6.8938,7.128,7.1466,7.1578,7.1591,7.1479,7.2124,7.2781,7.3424,7.3424,7.3411,7.3385,7.3385,7.3385,7.3385,7.3385,7.3385,7.3385,7.3385,7.3385,7.3423,7.3571,7.3645,7.3683,7.4463,7.4834,7.4946,7.6469,7.7175,7.7398,7.8067,7.881,7.9516,7.9702,8.0259,8.1077,8.1931,8.2229,8.2377,8.3381,8.4124,8.4703,8.5,8.6041,8.7192,8.7898,8.8195,8.8545,8.9474,8.9883,9.0239,9.0833,9.0982,9.0833,9.0218,9.1056,9.1948,9.1948,9.2505,9.2988,9.2988,9.2988,9.2988,9.2988,9.2988,9.2988,9.2988,9.2988,9.2988,9.2988,9.2988,9.2988,9.2988,9.2988,9.2988,9.2988,9.2988,9.2988,9.2988,9.2988,9.2988,9.2988,9.2988,9.2988,9.2988,9.1465,9.0509,9.0066,8.8514,8.7616,0.0,0.0,0.0,3.1964,0.0,0.0,0.0,3.0407,3.2629,3.4552,3.686,3.897,4.032,4.1862,4.3218,4.4183,4.5429,4.7752,5.1974,5.9977,6.5708,6.6525,6.8085,6.9422,7.0239,7.0376,7.0537,7.0871,7.1279,7.1738,7.2146,7.2568,7.2605,7.2184,7.2977,7.32,7.2791,7.32,7.3385,7.3385,7.3385,7.3385,7.3385,7.3385,7.3385,7.3423,7.3831,7.4017,7.4091,7.5355,7.6098,7.6581,7.7807,7.881,7.9516,7.9516,8.0297,8.1411,8.1857,8.2266,8.2749,8.3529,8.4087,8.4495,8.4889,8.5855,8.6969,8.7861,8.8084,8.8195,8.8768,8.9214,8.9533,8.9681,9.0127,9.0313,8.966,9.035,9.1093,9.1093,9.1762,9.2468,9.2914,9.2988,9.2988,9.2988,9.2988,9.2988,9.2988,9.2988,9.2988,9.2988,9.2988,9.2988,9.2988,9.2988,9.2988,9.2988,9.2988,9.2988,9.2988,9.2988,9.2988,9.2988,9.2988,9.2802,9.2356,9.1093,9.0451,9.037,8.8604,8.7649,0.0,0.0,0.0,0.0,0.0,3.0878,0.0,0.0,0.0,3.2356,3.4735,3.5996,3.273,3.2873,3.3904,3.5144,3.6353,3.7919,4.0219,4.9241,5.7819,6.3791,6.3891,6.4113,6.5782,6.6525,6.7776,7.0016,7.0041,7.0202,7.0648,7.1478,7.1626,7.0932,7.2221,7.2679,7.2196,7.2828,7.3237,7.3385,7.3385,7.3385,7.3385,7.3385,7.3385,7.3385,7.3385,7.3385,7.346,7.4277,7.4983,7.5726,7.7398,7.8662,7.9516,7.9516,8.0445,8.1783,8.1931,8.2415,8.3121,8.3886,8.4161,8.431,8.5112,8.5855,8.6635,8.7564,8.7861,8.7914,8.8047,8.8567,8.8901,8.8233,8.9087,8.9867,8.9198,8.9719,9.035,9.035,9.1056,9.1836,9.2542,9.2839,9.2988,9.2988,9.2988,9.2988,9.2988,9.2988,9.2988,9.2988,9.2988,9.2988,9.2988,9.2988,9.2988,9.2988,9.2988,9.2988,9.2988,9.2988,9.2988,9.2988,9.2988,9.2653,9.1948,9.0982,9.0424,9.0239,8.8578,8.7697,0.0,0.0,0.0,0.0,3.4457,0.0,0.0,0.0,2.816,2.652,0.0,2.6706,2.6268,0.0,0.0,2.7662,2.9539,3.266,3.7191,3.9171,4.1537,4.5329,4.8056,5.0407,5.2262,5.501,5.9685,6.6975,6.6997,6.7565,6.9719,7.0611,7.1019,7.0908,7.1094,7.1515,7.2196,7.2271,7.2679,7.3385,7.3385,7.3385,7.3385,7.3385,7.3385,7.3385,7.3385,7.3385,7.346,7.4277,7.4649,7.4909,7.6581,7.8179,7.9516,7.9516,8.0074,8.0965,8.1746,8.208,8.2266,8.3083,8.3343,8.3492,8.431,8.4778,8.5283,8.6598,8.6932,8.7118,8.7898,8.8174,8.8195,8.8121,8.8233,8.836,8.8285,8.9066,8.9809,8.9809,9.0647,9.1374,9.1502,9.2319,9.2988,9.2988,9.2988,9.2988,9.2988,9.2988,9.2988,9.2988,9.2988,9.2988,9.2988,9.2988,9.2988,9.2988,9.2988,9.2988,9.2988,9.2988,9.2988,9.2988,9.2988,9.2951,9.2839,9.1279,9.0127,8.9421,8.8319,8.7697,0.0,0.0,0.0,0.0,0.0,0.0,3.4268,0.0,2.8897,0.0,0.0,0.0,0.0,0.0,0.0,0.0,2.6515,2.8086,3.0598,3.0235,3.3609,4.4108,4.5696,4.7552,5.1703,5.1695,5.379,5.9603,6.0236,6.1006,6.255,6.6116,6.8345,6.8791,6.9719,7.0388,7.0735,7.1713,7.2382,7.2717,7.3162,7.3385,7.3385,7.3385,7.3385,7.3423,7.3906,7.3831,7.346,7.4277,7.4612,7.4686,7.5355,7.6655,7.8104,7.8104,7.8922,8.0074,8.0408,8.1188,8.2117,8.2935,8.3195,8.3343,8.4146,8.4592,8.4985,8.5855,8.6784,8.7527,8.7378,8.7712,8.8084,8.8084,8.8084,8.8248,8.8678,8.879,8.9066,8.9979,9.0536,9.0945,9.1226,9.2245,9.2988,9.2988,9.2988,9.2988,9.2988,9.2988,9.2988,9.2988,9.2988,9.2988,9.2988,9.2988,9.2988,9.2988,9.2988,9.2988,9.2988,9.2988,9.2988,9.2988,9.2988,9.2728,9.2245,9.1539,9.0536,8.9273,8.8148,8.7628,4.2228,0.0,0.0,0.0,0.0,0.0,0.0,0.0,0.0,0.0,0.0,0.0,0.0,0.0,0.0,0.0,0.0,2.5704,2.5617,2.5042,2.8942,4.0541,4.232,4.4274,4.8605,4.7876,4.8529,5.1906,5.3864,5.5463,5.6756,6.229,6.6005,6.7268,6.8419,6.9236,6.9719,7.092,7.175,7.2196,7.2791,7.32,7.3385,7.3385,7.3385,7.3423,7.4017,7.3943,7.346,7.4017,7.4389,7.4612,7.4612,7.5615,7.7101,7.7101,7.7844,7.8922,7.9368,8.0445,8.1746,8.2489,8.2957,8.3306,8.3901,8.422,8.4518,8.5186,8.6041,8.6836,8.7081,8.7452,8.7787,8.8047,8.8084,8.8323,8.9124,8.9124,8.9236,9.009,9.0759,9.1316,9.1688,9.2468,9.2988,9.2988,9.2988,9.2988,9.2988,9.2988,9.2988,9.2988,9.2988,9.2988,9.2988,9.2988,9.2988,9.2988,9.2988,9.2988,9.2988,9.2988,9.2988,9.2988,9.2988,9.2691,9.2059,9.1836,9.0982,8.9607,8.8449,8.7833,0.0,0.0,0.0,4.3339,0.0,0.0,0.0,0.0,2.9983,0.0,0.0,0.0,0.0,0.0,0.0,0.0,0.0,0.0,0.0,2.5243,2.6756,2.8146,3.3278,3.6949,3.7643,4.0783,4.3467,4.5085,4.9166,5.2605,5.4936,6.0545,6.4779,6.7231,6.7342,6.8122,6.9682,6.9756,7.0586,7.2196,7.2233,7.2642,7.3385,7.3385,7.3385,7.3385,7.3423,7.3423,7.3385,7.3423,7.3906,7.4612,7.4612,7.5615,7.7101,7.7101,7.7138,7.7398,7.8959,8.0074,8.084,8.1397,8.2288,8.3195,8.3232,8.3232,8.3477,8.454,8.4109,8.4087,8.723,8.7452,8.7044,8.7898,8.8084,8.8323,8.9124,9.0313,9.0907,8.992,9.1428,9.2914,9.2951,9.2988,9.2988,9.2988,9.2988,9.2988,9.2988,9.2988,9.2988,9.2988,9.2988,9.2988,9.2988,9.2988,9.2988,9.2988,9.2988,9.2988,9.2988,9.2988,9.2988,9.2988,9.2988,9.2988,9.2951,9.2096,9.1279,9.0424,8.9415,8.8437,0.0,0.0,5.1256,4.9313,0.0,0.0,0.0,0.0,0.0,0.0,0.0,0.0,0.0,0.0,0.0,0.0,0.0,0.0,0.0,2.4293,2.5176,2.6616,2.8998,3.1451,3.387,3.3283,3.3893,3.6687,3.8802,4.1052,4.354,5.1714,5.7685,6.073,6.4519,6.7008,6.8085,6.9162,7.0239,7.1366,7.1936,7.2605,7.3385,7.3385,7.3385,7.3423,7.3943,7.3906,7.3497,7.4537,7.4834,7.4649,7.5206,7.5726,7.6321,7.6878,7.7435,7.8067,7.9145,7.9702,8.0059,8.1137,8.1917,8.2526,8.3046,8.3195,8.3269,8.3626,8.3997,8.4495,8.5529,8.6303,8.6926,8.733,8.779,8.8323,8.9124,8.9644,9.0164,9.087,9.1613,9.2319,9.2914,9.2988,9.2988,9.2988,9.2988,9.2988,9.2988,9.2988,9.2988,9.2988,9.2988,9.2988,9.2988,9.2988,9.2988,9.2988,9.2988,9.2988,9.2988,9.2988,9.2728,9.2133,9.2133,9.1873,9.1353,9.1056,9.0499,8.9681,8.9358,8.8652,5.3834,5.4612,0.0,5.2537,4.9667,0.0,4.4791,0.0,0.0,0.0,0.0,0.0,0.0,0.0,0.0,0.0,0.0,0.0,0.0,2.3992,2.4334,2.5701,2.7864,2.9532,3.0232,2.9789,2.9629,3.012,3.2354,3.4648,3.6811,4.6888,5.3961,5.6928,6.2614,6.6153,6.7305,6.8345,6.9385,7.0499,7.0994,7.1699,7.2518,7.2776,7.2938,7.3014,7.3831,7.3868,7.3497,7.4834,7.5243,7.5095,7.5949,7.6432,7.6729,7.699,7.7621,7.8364,7.8885,7.907,7.9219,8.0059,8.0505,8.0854,8.1731,8.2586,8.3269,8.3663,8.3997,8.4384,8.5046,8.5596,8.6108,8.6832,8.7306,8.7935,8.905,8.931,8.9793,9.139,9.1688,9.1985,9.2839,9.2988,9.2988,9.2988,9.2988,9.2988,9.2988,9.2988,9.2988,9.2988,9.2988,9.2765,9.2171,9.2653,9.2839,9.2431,9.2765,9.2988,9.2988,9.2691,9.2802,9.3434,9.2022,9.1576,9.2245,9.1028,9.0079,8.9421,8.9342,8.8763]}]]